GFSMW_925_thetae_000.txt.gz
Theta_e
312 313 313 314 315 316 318 320 322 325 322 324 327 328 329 329 329 329 329 328 329 328 328 327 326 325 326 326 326 325 323 323 323 320 322 323 324 324 324 324 323 323 324
311 311 312 313 313 313 314 316 319 323 325 324 327 328 329 323 317 315 316 315 314 313 312 312 313 314 318 321 323 325 324 324 324 322 323 325 325 325 325 325 324 324 323
312 311 311 311 312 312 313 313 314 315 317 322 323 322 315 313 313 313 312 312 312 311 310 308 307 307 307 308 309 316 321 323 324 324 323 326 327 326 326 326 325 324 324
312 311 311 311 311 312 313 313 313 313 313 314 314 313 312 311 311 312 311 310 309 307 306 305 304 304 304 305 307 307 307 312 319 321 323 324 324 325 326 325 325 325 324
311 311 310 310 311 312 312 312 312 312 312 313 312 312 311 310 309 308 307 306 305 304 303 302 302 302 302 303 305 305 305 306 310 313 316 317 318 319 321 321 320 319 320
310 309 310 311 311 311 311 311 311 311 311 310 310 309 307 306 305 304 303 302 302 301 300 299 299 299 300 301 302 303 302 305 306 307 309 311 312 314 315 316 315 316 317
309 309 308 308 309 310 311 310 310 309 309 308 306 305 304 303 301 300 299 298 297 297 296 296 296 296 297 299 299 300 302 303 304 305 306 308 309 310 311 311 312 314 314
308 309 307 307 308 309 309 309 308 306 306 305 303 303 302 300 298 296 295 293 293 293 292 291 291 292 293 294 296 299 300 301 302 304 305 304 304 305 306 309 311 311 311
309 308 306 307 308 308 307 306 305 304 303 303 302 300 298 297 294 292 290 289 289 289 289 289 290 290 290 291 293 297 296 297 300 302 299 300 302 302 304 308 308 309 309
308 307 305 306 307 306 304 303 303 302 301 300 299 296 294 292 290 289 288 288 288 288 288 288 288 288 288 288 290 294 292 295 299 295 295 298 299 300 304 304 304 304 305
308 306 304 306 305 303 302 301 301 300 299 298 295 294 291 288 287 287 287 287 287 287 287 287 287 287 287 287 289 290 291 292 294 292 293 295 297 301 298 300 298 298 301
307 304 304 304 303 300 299 298 298 297 295 295 292 289 287 287 287 286 286 286 286 287 286 286 287 286 286 287 288 288 289 292 291 292 294 296 296 294 295 295 294 296 299
305 304 303 303 301 299 297 296 295 294 293 291 289 287 287 286 286 286 286 286 286 286 286 286 286 286 286 286 286 287 289 290 291 292 290 289 291 291 291 291 292 296 296
306 305 303 301 299 297 296 295 293 292 291 289 287 287 286 286 286 286 286 286 286 285 285 285 285 285 285 285 286 288 289 290 291 289 287 287 288 290 290 290 291 294 294
305 306 304 299 297 295 294 294 292 290 288 287 286 286 286 286 286 285 285 285 285 285 285 285 285 285 285 285 287 288 289 289 289 287 287 288 288 289 289 290 291 292 292
305 305 302 299 296 294 294 292 290 288 287 286 286 285 285 285 285 285 285 285 285 284 284 284 284 284 284 285 287 288 288 288 287 287 287 287 288 288 289 289 289 290 290
303 304 300 297 295 294 293 291 289 287 286 286 285 285 285 285 285 284 284 284 284 284 283 283 283 283 283 284 286 287 287 287 287 287 287 287 288 288 289 289 289 289 290
304 301 297 295 294 293 291 289 287 286 286 285 285 285 285 285 284 284 284 284 283 283 283 283 283 282 282 284 285 286 287 287 287 287 287 288 288 288 288 288 289 289 288
300 299 298 295 292 291 288 287 286 286 285 284 284 284 284 284 284 284 284 283 283 283 282 282 282 282 282 283 285 286 286 286 286 287 287 288 288 287 288 289 288 287 288
298 296 294 293 291 288 287 286 285 284 284 284 284 284 284 284 284 283 283 283 283 282 282 282 281 282 282 283 285 285 286 286 286 287 288 287 287 287 288 287 287 286 286
295 294 293 291 289 287 286 285 284 284 284 284 284 284 284 283 283 283 283 283 282 282 281 281 281 282 282 283 284 285 286 286 287 287 286 286 286 288 285 285 285 285 286
293 293 290 288 287 286 285 285 284 284 284 284 283 283 283 283 283 283 283 282 282 281 281 281 281 282 283 284 284 284 285 286 287 286 285 286 286 284 284 284 283 284 284
293 291 290 287 286 285 285 284 284 284 283 283 283 283 283 283 283 282 282 281 281 281 281 281 282 283 283 283 284 284 285 286 286 285 286 284 283 282 282 282 282 282 282
291 290 287 286 286 285 284 284 283 283 283 283 282 282 282 282 282 282 282 281 281 281 281 282 283 283 283 283 283 284 285 285 285 286 285 283 281 281 281 281 280 280 281
289 288 287 286 285 284 284 284 283 283 282 282 282 282 281 282 282 281 281 281 281 282 283 283 283 283 283 283 284 285 285 285 285 284 283 281 281 281 280 280 280 280 280
288 286 285 284 284 284 284 283 283 282 282 281 281 281 281 282 281 281 281 281 282 282 282 282 283 283 283 283 284 284 284 284 282 281 281 281 281 280 280 280 280 279 280

GFSMW_925_thetae_003.txt.gz
Theta_e
312 311 312 313 314 317 319 322 324 323 325 326 328 327 324 318 316 314 313 312 311 310 309 309 309 309 314 315 316 318 320 321 323 323 322 323 324 325 325 325 323 323 325
313 311 311 311 312 313 314 316 319 324 326 327 327 321 315 313 312 311 311 310 309 308 306 305 305 304 305 306 309 311 312 313 315 320 321 325 323 324 325 325 325 325 324
314 312 311 310 311 312 313 313 314 314 318 319 314 313 313 313 312 310 308 307 306 305 304 303 302 302 303 305 306 308 308 309 310 312 314 319 319 317 315 320 322 325 323
313 312 311 311 310 311 312 313 313 314 313 314 313 313 310 309 306 305 304 304 303 302 300 300 299 299 300 302 304 304 305 306 308 308 310 311 312 315 316 312 314 315 320
313 312 311 310 310 311 311 311 312 311 311 311 310 308 306 305 304 303 302 301 299 297 295 294 295 297 299 300 301 302 303 304 305 306 307 308 309 310 314 314 312 312 312
312 310 309 309 309 310 310 310 309 308 308 307 306 305 304 302 301 299 297 296 295 294 291 290 291 292 294 296 297 298 300 301 302 304 305 307 308 308 309 310 310 310 309
312 310 310 309 309 309 309 308 307 305 304 304 303 302 300 298 296 294 292 292 291 291 289 289 289 290 290 291 292 293 297 297 298 301 303 303 302 301 303 305 307 309 308
311 310 309 308 308 308 307 306 304 303 303 302 299 298 296 294 291 290 289 289 289 289 288 288 288 288 288 288 289 291 295 293 295 299 297 297 295 297 299 302 305 306 306
310 310 307 307 307 306 304 303 302 302 301 298 297 295 293 291 289 288 288 288 288 288 288 288 288 288 287 287 288 290 292 291 291 294 293 293 294 297 299 301 302 303 305
310 308 306 306 305 303 302 301 300 300 298 296 294 292 290 289 288 288 288 288 287 287 287 287 287 287 287 287 287 288 289 289 290 292 292 293 294 296 298 296 297 298 298
310 308 306 305 302 301 300 299 298 298 296 294 292 290 288 288 288 287 287 287 287 286 286 286 286 286 286 286 286 287 287 288 290 291 291 292 292 290 291 293 293 293 292
309 306 306 302 299 298 297 297 296 295 293 291 289 288 287 287 287 287 286 286 286 286 286 286 286 285 285 285 286 286 287 288 289 290 291 290 289 288 289 290 291 291 292
307 305 304 301 298 296 295 294 293 292 290 289 288 287 287 287 286 286 286 286 286 286 286 285 285 285 285 285 285 286 287 288 288 288 289 288 287 288 288 289 290 291 291
307 305 304 300 297 295 294 293 291 290 288 288 287 287 287 286 285 285 285 285 285 285 285 285 284 284 284 284 285 287 287 288 288 287 287 287 287 287 289 289 290 290 290
307 306 303 299 296 293 293 292 290 289 287 287 286 286 285 285 286 285 285 285 285 284 284 284 284 283 283 284 286 287 287 287 287 287 287 287 287 288 288 289 289 289 290
307 306 302 298 295 293 293 291 289 288 287 286 285 285 285 285 285 285 284 284 284 284 284 283 283 283 283 284 286 287 287 287 286 286 286 286 287 287 288 288 288 289 289
306 306 302 298 294 294 293 291 288 287 286 285 285 285 285 285 285 284 284 284 284 284 283 283 283 282 282 283 285 286 286 286 286 286 286 286 287 287 288 288 288 289 288
304 304 299 295 294 293 291 289 287 286 285 285 285 285 284 284 284 284 284 284 283 283 282 282 282 282 282 283 284 285 286 286 285 285 286 286 287 288 287 288 288 287 286
302 300 298 294 292 291 289 287 286 285 285 285 284 284 284 284 284 283 283 283 283 283 282 282 281 281 281 282 283 285 285 285 285 285 286 287 287 286 287 288 286 286 286
298 296 294 292 291 288 287 286 285 285 284 284 284 284 283 283 283 283 283 283 283 282 282 281 281 281 281 282 284 285 285 285 285 286 287 286 285 286 287 285 285 285 284
295 294 292 290 289 287 286 285 284 284 284 284 284 283 283 283 283 283 283 283 282 281 281 281 281 281 281 282 283 284 285 285 286 287 286 285 285 287 285 284 283 283 284
293 292 290 288 287 286 286 285 284 284 284 283 283 283 283 282 282 282 282 282 281 281 281 281 281 282 282 283 283 284 285 285 286 286 285 286 286 285 283 282 282 283 282
292 291 289 287 286 285 285 284 284 283 283 283 282 282 282 282 282 282 281 281 281 281 281 281 282 283 283 283 283 284 284 285 285 285 286 284 283 283 281 281 281 281 280
291 290 288 286 285 285 284 284 283 283 282 282 282 282 282 282 281 281 281 281 281 281 281 282 283 283 283 283 283 284 285 285 285 285 283 281 281 282 281 280 280 280 280
290 288 287 286 285 284 284 283 283 282 282 281 281 281 281 281 281 280 280 281 281 281 283 283 283 283 283 283 284 284 284 285 285 282 281 280 281 281 280 280 280 280 280
288 287 286 285 284 283 283 283 282 282 281 281 281 281 281 281 280 280 280 280 281 281 282 282 282 283 283 283 283 283 284 284 282 281 280 280 280 280 280 279 279 279 279

GFSMW_925_thetae_006.txt.gz
Theta_e
317 316 316 317 317 319 321 325 328 328 329 330 329 325 321 317 315 313 312 311 310 310 310 310 309 309 310 309 309 310 310 311 311 311 312 312 315 318 316 323 320 318 321
318 316 316 316 316 316 317 319 322 326 328 329 323 319 317 314 313 311 310 309 307 307 306 307 307 307 307 307 307 308 308 308 308 309 310 312 312 312 312 310 312 313 314
318 317 316 316 315 315 315 315 317 317 317 317 316 316 315 314 313 310 308 306 305 303 303 303 303 303 304 304 304 303 304 304 304 305 307 311 311 312 308 309 310 312 310
318 317 316 316 315 315 315 314 314 314 315 315 315 314 313 311 308 307 306 304 302 299 298 299 299 299 299 300 300 299 300 302 302 302 303 304 305 309 310 307 307 307 308
318 317 316 314 314 314 313 313 312 311 311 311 311 310 308 307 305 304 303 301 300 297 295 295 296 296 296 296 297 297 298 299 299 299 301 302 303 304 306 307 304 303 302
317 316 314 314 313 313 312 311 309 308 308 307 306 306 305 303 303 300 299 298 296 296 294 294 294 294 294 294 294 295 297 297 296 297 298 301 301 301 301 301 302 302 300
317 316 315 314 313 313 311 309 308 306 305 304 303 302 301 299 298 297 296 295 294 294 293 293 293 292 292 292 292 293 295 295 294 295 297 297 296 295 295 297 302 302 301
317 316 316 314 313 312 310 308 306 305 303 301 299 298 297 296 295 294 293 293 292 292 291 291 291 291 291 291 291 291 292 293 293 292 294 295 294 294 295 297 300 302 302
317 316 315 314 312 310 308 307 305 303 300 298 297 295 294 293 292 292 291 291 291 290 290 290 290 290 290 290 290 291 291 291 291 291 293 293 293 294 294 294 294 297 299
316 315 314 313 311 308 306 304 303 301 298 296 294 293 292 291 291 290 290 290 290 289 289 289 289 289 289 289 289 290 289 289 290 291 291 292 292 292 291 291 290 292 294
316 315 313 312 308 305 304 302 301 299 296 294 293 292 291 290 289 289 289 289 289 288 288 288 288 288 288 288 288 288 288 289 289 290 290 290 290 290 290 289 289 290 291
316 314 313 309 306 304 302 301 299 298 294 292 291 290 289 289 289 289 288 288 288 288 288 287 287 288 288 287 287 288 288 289 289 289 289 289 289 289 288 289 289 290 290
315 313 312 308 306 303 301 299 297 295 292 291 290 289 289 289 289 288 288 287 287 287 287 287 287 287 287 286 287 287 288 288 289 289 288 288 288 288 288 288 289 290 290
314 313 312 308 305 302 299 297 295 293 291 289 289 289 289 288 288 287 287 287 286 287 286 286 286 286 286 286 286 286 287 288 288 288 288 288 287 287 287 288 288 289 289
314 312 312 309 304 301 298 296 293 292 289 289 289 288 287 287 287 287 287 286 286 286 286 286 286 286 286 285 285 286 287 287 287 288 287 287 287 287 287 288 289 289 289
313 312 311 308 304 300 297 295 292 290 289 288 287 287 287 287 287 287 286 286 286 286 286 286 286 285 285 285 285 286 287 287 287 287 287 286 286 287 287 288 288 288 289
312 312 310 307 302 299 297 294 291 289 288 287 287 287 287 287 286 286 286 286 286 286 286 286 285 285 284 284 284 285 286 286 286 286 286 286 286 287 287 287 287 288 288
311 311 309 304 300 297 294 291 289 288 287 287 287 286 286 286 286 286 286 286 286 286 285 285 285 284 284 283 284 285 285 286 286 286 286 286 287 287 286 287 288 288 286
308 309 306 301 297 295 292 290 289 287 287 287 286 286 285 285 285 285 285 285 285 285 285 284 284 284 283 283 284 285 285 285 286 286 286 286 287 286 286 288 287 286 285
304 302 299 297 296 293 290 290 288 287 286 286 286 285 285 284 285 285 285 285 285 284 284 284 284 283 283 283 284 285 285 285 285 286 286 286 286 286 288 286 285 285 284
300 297 296 295 293 290 289 289 286 286 285 285 285 284 284 284 284 284 284 284 284 284 284 283 283 283 283 284 284 284 285 285 286 287 287 286 287 286 284 284 284 283 283
297 296 294 292 290 289 288 287 286 285 284 284 284 284 284 283 283 284 284 284 283 283 283 283 283 284 284 284 284 284 285 285 286 286 286 286 285 283 282 283 283 282 282
296 294 293 291 289 287 286 286 285 284 284 284 284 284 283 283 284 283 283 283 283 283 283 283 284 284 284 284 284 284 285 285 285 285 286 284 282 281 282 282 281 281 281
296 293 292 291 289 286 285 285 284 283 283 284 284 283 283 283 283 283 283 282 282 282 283 283 283 283 283 284 284 284 285 284 285 286 284 282 281 281 281 281 280 280 281
295 293 292 291 289 286 285 284 283 283 283 283 283 283 283 283 283 282 282 282 282 282 283 283 283 283 283 283 284 284 284 284 285 283 282 281 281 281 280 280 280 280 280
294 292 290 289 287 285 284 283 283 282 282 283 283 283 283 283 282 282 282 282 282 282 282 282 282 282 283 283 283 283 283 284 282 281 281 281 280 280 280 280 280 280 280

GFSMW_925_thetae_009.txt.gz
Theta_e
321 320 321 321 322 325 328 330 330 331 332 332 329 325 321 318 316 314 312 311 310 309 309 309 309 309 309 309 308 307 307 307 307 307 308 307 310 308 310 308 308 310 312
320 320 319 319 319 320 323 326 329 330 328 325 323 320 318 315 314 312 309 308 306 306 306 305 305 305 305 305 304 303 303 303 303 305 305 307 307 306 305 305 308 307 309
320 320 319 319 318 318 319 319 320 320 320 320 319 317 316 315 312 310 308 306 304 301 301 301 301 300 301 300 300 300 300 302 301 301 302 304 304 305 304 304 305 303 303
320 320 319 318 318 318 317 317 317 317 318 318 317 316 314 311 309 308 306 305 302 299 297 297 298 298 298 298 298 297 298 299 300 299 299 300 301 303 303 302 301 301 300
320 319 319 318 317 317 316 315 314 314 313 313 312 311 310 308 307 306 304 302 301 298 296 296 296 296 296 296 296 296 297 298 298 297 298 298 300 300 300 299 299 298 297
320 319 317 317 316 315 314 313 312 311 310 309 309 308 307 306 305 303 301 300 299 297 295 295 295 295 294 294 294 294 295 296 296 296 296 296 297 298 297 297 297 298 298
319 318 317 316 316 315 313 311 310 309 308 306 306 305 304 302 301 300 298 297 297 296 294 294 294 293 293 293 293 293 293 294 294 294 294 294 295 296 295 296 297 298 297
319 318 318 317 316 314 312 310 308 306 305 303 302 301 300 299 298 296 296 295 294 294 293 293 292 292 292 292 292 292 292 292 292 293 293 293 294 294 294 295 296 296 295
320 318 318 317 315 313 312 310 307 305 303 301 300 298 297 296 295 294 294 293 293 292 292 292 292 291 291 291 291 291 291 291 291 291 292 292 292 293 293 293 294 293 293
319 318 318 316 314 312 310 308 307 304 301 299 298 296 295 294 293 293 292 292 292 291 291 291 290 290 290 290 290 290 290 290 290 290 291 291 291 291 291 291 292 291 292
319 318 317 315 313 310 308 307 304 302 299 298 296 295 293 292 292 292 291 291 291 290 290 290 290 290 290 290 290 289 289 289 289 290 290 290 290 290 290 290 290 290 291
319 317 317 314 311 309 307 305 304 301 298 296 295 293 293 292 292 291 291 290 290 289 289 289 289 289 289 289 289 288 288 288 289 289 290 290 290 289 289 289 289 289 289
318 317 316 314 311 309 307 304 302 300 296 295 294 293 292 292 291 291 290 289 289 289 289 289 289 288 288 288 288 288 287 288 288 289 289 289 289 289 289 288 288 288 289
318 317 316 314 311 308 306 303 301 297 295 293 293 292 291 290 290 290 289 289 288 288 288 288 288 288 288 288 287 287 287 287 288 288 288 288 288 288 288 288 288 289 289
317 316 316 314 310 307 304 301 299 296 294 292 292 291 289 290 289 289 289 288 288 288 288 288 288 288 288 287 287 286 286 287 287 287 288 288 287 287 287 288 288 288 289
317 316 315 314 310 307 303 300 297 294 292 291 290 289 289 289 289 288 288 288 288 288 288 288 288 288 287 287 286 286 286 286 286 287 287 287 287 287 287 288 288 288 288
316 315 314 313 310 306 302 298 295 292 291 290 290 289 289 288 288 288 288 288 288 288 288 288 287 287 286 286 286 286 285 286 286 287 287 287 287 287 287 287 287 288 288
315 314 313 311 307 303 300 297 293 292 291 290 289 289 288 288 287 287 287 287 287 287 287 287 287 286 286 285 285 285 285 286 286 286 286 286 287 287 287 287 288 288 286
312 313 311 308 303 299 297 293 292 291 290 289 288 288 287 287 287 287 287 287 287 287 287 286 286 285 285 285 285 285 286 286 286 286 286 286 287 287 288 287 286 285 284
309 308 306 302 300 297 294 293 292 291 289 287 287 287 286 286 286 286 286 286 286 286 286 285 285 285 284 285 285 285 286 286 286 286 286 286 286 287 287 285 284 284 284
304 302 301 300 298 294 293 293 290 288 287 286 286 286 286 286 286 285 286 286 286 285 285 285 284 284 285 285 285 285 286 286 286 286 286 286 286 286 285 284 283 284 284
300 300 299 297 293 292 293 290 289 287 286 286 286 286 286 285 285 285 286 285 285 285 284 284 284 285 285 285 285 285 285 285 286 285 285 285 286 284 283 283 282 283 282
299 298 297 294 292 291 290 289 287 286 286 286 286 286 285 285 286 285 285 285 284 284 284 284 284 284 284 284 284 284 284 285 284 284 285 285 283 282 282 281 282 281 281
299 297 295 294 292 289 287 287 286 285 285 285 285 285 285 286 285 285 285 284 284 283 283 284 284 284 284 284 284 284 284 284 284 285 284 282 282 281 281 281 281 281 281
298 296 296 295 292 288 287 286 285 285 285 285 285 285 285 285 285 285 284 283 283 283 283 283 283 283 283 283 284 284 283 284 284 283 282 281 281 281 281 280 280 280 280
298 296 295 292 291 288 287 286 285 284 284 284 285 285 284 285 284 284 283 283 283 283 283 283 283 283 283 283 283 283 283 283 283 282 281 281 280 280 280 280 280 280 280

GFSMW_925_thetae_012.txt.gz
Theta_e
318 321 322 324 328 329 330 331 331 331 332 332 323 320 316 314 312 310 308 307 307 306 305 305 304 303 304 303 302 301 300 302 301 303 301 303 303 303 302 299 304 302 304
318 319 320 321 324 327 330 331 329 328 327 324 321 318 315 312 310 308 306 304 303 302 301 300 300 299 300 299 299 298 299 300 300 300 300 300 300 301 299 301 301 302 300
317 317 317 319 320 320 321 324 325 323 322 319 317 315 313 311 309 308 305 303 301 299 298 298 298 297 298 297 297 297 297 299 298 298 298 298 299 298 300 299 300 298 298
316 317 316 317 318 319 319 319 319 319 319 318 316 315 311 309 308 306 304 302 300 299 296 296 296 296 296 295 295 295 295 297 298 297 297 296 297 297 298 298 296 296 295
316 316 316 318 318 317 316 316 315 315 314 313 312 310 308 307 306 304 302 300 299 297 296 295 295 295 294 294 293 293 294 294 295 296 296 295 295 294 294 295 294 294 294
316 316 317 317 316 315 313 312 311 311 310 310 309 308 307 305 302 301 299 298 297 296 294 294 293 293 293 293 293 292 292 292 293 293 293 294 293 293 293 294 293 293 293
316 316 315 315 315 314 312 310 309 308 307 306 305 304 302 301 299 298 297 296 295 294 293 292 292 292 292 292 292 292 291 292 292 292 292 292 292 292 293 293 293 292 292
316 315 314 315 315 313 311 309 307 305 304 303 302 301 299 298 296 295 295 294 293 292 292 292 292 291 291 291 291 291 291 291 291 291 290 291 291 291 292 291 292 291 292
316 315 314 315 315 312 310 308 305 303 302 300 299 297 297 296 295 294 293 293 292 292 291 291 291 290 290 290 290 290 290 290 290 290 290 290 290 290 291 291 290 291 291
316 315 314 315 314 312 309 307 304 302 300 299 297 295 294 294 293 293 292 291 291 291 290 290 290 289 289 289 289 289 289 289 289 289 289 289 289 290 290 290 290 289 289
316 316 314 315 313 310 309 306 303 300 299 297 296 294 293 293 292 292 291 290 290 290 290 289 289 289 289 289 289 288 288 288 288 287 288 288 289 289 289 289 289 288 288
316 315 313 313 311 309 307 305 302 299 298 296 295 293 293 292 292 291 290 290 289 289 289 289 289 289 288 288 288 288 288 287 287 287 287 287 288 288 288 288 288 288 287
315 314 313 310 309 309 306 305 302 298 296 295 294 293 292 292 291 290 290 289 289 288 288 288 288 288 288 288 288 288 287 286 286 286 287 287 287 287 288 287 287 287 287
316 314 312 309 309 308 306 304 301 297 295 294 293 292 291 290 290 289 289 289 288 288 288 288 288 288 288 288 288 287 287 287 286 286 286 286 287 287 287 287 287 288 288
316 314 312 309 309 307 305 302 299 296 294 293 292 291 290 290 289 289 289 288 288 288 288 288 288 288 288 288 288 287 287 286 286 285 285 286 287 287 287 288 288 288 287
316 313 312 309 307 305 303 300 297 294 293 292 291 290 290 289 289 288 288 288 288 288 288 288 288 288 287 287 287 287 287 286 285 285 286 286 286 286 287 287 287 287 288
314 313 312 309 307 304 301 298 295 293 292 291 290 289 289 288 288 288 287 287 287 287 287 287 287 287 286 286 286 286 286 286 285 285 285 285 286 286 286 286 287 288 287
313 312 310 309 306 303 300 297 293 292 291 290 289 289 288 288 287 287 287 287 287 287 287 287 286 286 285 285 286 286 286 285 285 285 285 285 285 286 286 287 287 286 285
310 310 309 305 302 300 296 293 292 291 290 289 289 288 287 287 286 286 286 286 286 286 286 286 285 285 284 285 285 286 286 285 285 285 285 286 286 286 286 287 286 285 284
308 305 303 301 299 295 294 292 291 290 289 288 287 287 287 286 286 286 285 286 286 286 285 285 284 284 284 284 285 286 286 285 285 285 286 285 285 285 286 286 284 283 282
302 301 300 299 296 294 293 292 290 288 287 286 286 286 286 286 286 285 285 285 285 285 284 284 284 284 284 284 285 285 285 285 285 285 285 284 284 286 285 284 283 282 284
300 300 297 294 294 293 293 290 288 287 286 286 286 286 286 285 285 285 285 285 285 284 284 283 283 283 283 284 283 284 285 285 285 284 284 284 285 284 283 282 282 282 282
299 297 294 293 292 292 291 288 287 286 286 286 286 285 285 285 286 285 285 285 284 284 283 283 283 283 283 283 283 283 284 284 284 283 284 285 283 282 281 281 281 281 280
297 295 293 291 290 290 289 287 286 286 285 285 285 285 285 286 285 285 285 284 284 283 283 283 283 283 282 282 283 283 284 283 283 284 284 282 281 280 280 280 279 279 279
297 295 293 292 289 288 287 286 285 285 285 285 284 285 285 284 284 284 284 284 284 284 284 284 283 283 283 283 284 284 283 283 284 283 281 280 280 280 279 279 279 279 279
297 296 295 291 289 288 286 286 285 285 284 284 284 284 284 284 284 283 283 283 283 283 283 283 283 283 283 283 283 283 283 283 282 281 280 279 279 279 279 279 279 279 279

GFSMW_925_thetae_015.txt.gz
Theta_e
316 320 322 325 327 329 330 331 332 332 332 328 323 320 313 313 311 310 308 307 306 304 303 302 300 300 300 298 298 297 297 298 298 299 297 299 300 298 297 296 300 297 299
316 317 321 326 328 329 330 330 331 331 329 326 321 318 312 310 308 306 304 303 302 301 300 299 298 297 297 296 297 296 296 297 297 297 297 297 297 298 294 297 294 299 296
317 314 315 320 323 325 325 326 327 326 323 321 317 313 309 307 306 305 303 301 301 299 298 297 296 296 296 294 294 294 294 296 295 295 296 295 295 294 297 294 296 293 294
316 314 313 316 319 320 321 322 322 321 319 318 314 311 309 308 306 304 302 300 299 298 296 295 295 295 294 293 293 293 293 292 294 293 295 294 294 293 293 295 292 294 293
316 315 314 316 317 318 318 319 319 318 316 314 313 310 308 307 304 302 300 299 297 296 294 294 294 293 293 293 292 292 292 291 292 293 292 293 292 292 291 291 291 292 292
315 315 315 316 315 315 314 313 313 312 314 313 310 308 306 304 302 300 298 297 296 294 293 293 292 292 292 292 291 291 291 291 291 291 291 291 291 291 290 290 291 291 291
315 315 314 313 312 311 311 310 310 308 309 308 307 306 303 301 300 298 296 295 294 293 292 292 292 291 291 291 291 290 290 290 290 290 290 290 290 290 290 290 290 290 290
315 315 313 312 311 310 309 308 307 305 306 305 303 301 300 299 297 296 294 294 293 292 292 291 291 290 290 290 290 290 289 289 289 289 289 289 289 289 289 289 290 290 289
315 314 313 312 311 309 308 306 304 303 303 301 300 298 297 296 295 294 293 293 292 291 291 290 290 289 289 289 289 289 289 288 288 288 288 288 287 287 288 289 289 289 289
314 314 313 312 311 309 307 305 303 301 300 298 298 296 295 294 294 294 293 292 291 290 290 290 289 289 289 289 288 288 288 288 288 287 287 286 286 287 287 288 288 288 288
314 314 312 312 310 308 306 304 302 300 298 297 295 294 293 293 293 293 292 291 290 290 289 289 289 288 288 288 288 288 288 287 287 286 286 286 286 286 287 287 287 287 287
314 313 312 310 308 306 305 303 300 299 297 295 295 293 293 293 293 292 291 290 289 289 288 288 288 288 288 288 288 288 288 287 287 286 286 286 286 286 286 286 287 287 287
314 312 310 308 307 305 303 301 299 298 295 295 294 293 292 292 292 291 290 289 289 288 288 288 288 288 288 288 288 288 287 287 287 286 285 285 285 285 286 286 286 287 287
315 312 310 307 306 305 303 301 298 297 295 294 293 292 292 292 291 290 289 289 288 288 288 288 288 288 287 287 287 287 287 287 286 286 285 285 285 285 286 286 287 287 287
314 312 310 307 305 304 303 301 297 295 294 293 292 292 291 291 290 289 288 288 288 288 287 287 287 287 287 286 287 287 287 287 286 285 285 285 285 286 286 286 286 286 287
314 312 309 307 305 303 300 297 295 294 293 292 292 291 290 289 289 288 288 287 287 287 287 287 286 286 286 286 286 287 287 286 286 285 285 285 285 285 286 285 286 287 288
312 311 310 306 304 301 299 296 294 293 292 291 290 290 289 288 288 287 287 287 286 286 286 286 286 285 285 285 286 286 286 286 286 285 285 285 285 285 285 285 286 287 287
312 311 308 304 302 299 298 295 293 292 291 290 290 289 288 288 287 287 286 286 286 286 286 285 285 284 284 284 285 286 286 286 285 285 285 285 285 285 285 285 286 286 285
308 306 305 301 299 297 295 294 292 291 290 289 289 288 288 287 286 286 285 285 285 286 285 284 284 283 283 284 285 285 285 285 285 285 285 285 285 284 285 286 286 284 283
303 300 298 297 296 293 294 292 291 290 289 288 288 287 287 286 286 285 285 285 285 285 284 284 283 283 283 283 284 285 284 285 284 285 285 284 284 284 286 285 284 282 282
298 298 296 294 293 293 293 291 290 289 288 287 287 286 286 286 285 285 285 285 285 284 284 283 283 283 283 283 284 284 284 284 285 285 284 283 283 286 284 283 281 282 283
297 296 294 293 293 293 292 289 288 288 287 287 286 286 286 285 285 285 285 285 284 284 283 283 282 282 283 283 283 284 284 285 285 284 283 283 285 283 282 281 281 282 281
294 294 293 292 292 292 291 288 287 287 286 286 286 285 285 285 285 285 284 284 283 283 283 282 282 282 282 282 283 283 284 285 284 283 284 283 282 280 280 280 280 280 279
293 292 291 289 289 289 289 289 287 286 286 285 285 284 285 285 285 284 284 283 283 283 283 283 283 282 282 283 283 284 284 283 283 284 282 280 279 279 279 279 279 279 279
293 292 290 289 287 288 287 287 286 285 285 284 284 284 284 284 284 283 283 283 283 283 283 283 283 282 283 283 284 284 283 283 283 282 280 279 279 279 279 279 279 279 279
293 292 290 289 288 287 286 286 285 285 284 284 284 284 284 284 283 282 282 282 282 282 282 282 282 282 283 283 283 283 283 283 281 280 279 278 278 278 278 278 279 279 279

GFSMW_925_thetae_018.txt.gz
Theta_e
315 317 320 322 325 326 328 326 322 331 333 328 324 321 314 313 316 312 309 308 306 304 303 302 300 299 298 296 296 295 294 296 294 296 296 297 298 297 295 295 295 295 295
315 316 322 324 327 328 329 327 327 325 327 329 322 321 315 311 309 306 305 303 302 301 301 299 298 297 295 294 294 294 293 294 294 294 295 294 295 296 293 295 293 295 292
316 316 317 322 326 327 329 329 326 326 326 324 320 313 309 305 303 302 301 300 300 299 298 297 296 295 294 293 293 293 292 292 293 295 293 292 293 292 294 292 294 292 292
316 315 315 317 322 324 327 328 326 326 324 323 318 313 306 304 303 302 300 299 298 298 296 295 295 294 293 292 292 292 291 291 292 292 292 292 292 291 291 292 291 291 290
315 316 316 317 320 321 322 324 323 322 320 320 317 311 307 306 303 300 299 298 297 296 295 294 293 293 292 292 291 291 291 291 290 290 290 291 290 290 290 290 289 289 290
314 314 314 315 315 319 319 319 319 317 317 314 311 309 306 304 301 299 298 297 296 295 294 293 292 292 291 291 290 290 290 290 289 289 289 289 289 289 289 288 288 288 289
314 314 313 312 310 312 314 316 315 313 313 311 309 307 305 302 300 298 297 296 295 294 293 292 291 291 290 290 290 289 289 289 289 288 288 288 288 288 288 287 287 288 288
315 315 313 311 309 308 309 310 311 309 310 308 305 304 302 300 298 297 296 295 294 292 291 291 290 290 289 289 289 289 289 288 288 288 287 287 287 286 286 286 287 287 287
315 314 311 310 308 307 307 307 306 305 305 304 302 300 299 298 297 295 295 294 292 291 291 290 289 289 289 289 288 288 288 288 288 287 287 286 286 286 286 286 286 287 287
315 313 311 309 307 307 306 305 304 302 301 300 299 298 297 296 295 294 294 292 291 290 290 289 289 289 288 288 288 288 288 288 287 287 286 286 286 285 285 285 286 286 286
314 313 311 309 306 306 304 303 302 300 298 298 297 295 294 294 294 293 292 291 290 289 289 288 288 288 288 288 288 288 287 287 287 287 286 286 285 285 285 285 285 285 286
314 312 310 307 305 303 302 301 299 298 297 296 295 294 293 293 293 292 291 290 289 289 288 288 288 288 288 287 287 287 287 287 287 287 286 285 285 284 284 285 285 285 285
312 311 309 307 304 302 301 300 298 297 295 294 294 293 293 293 292 291 290 290 289 288 288 288 288 287 287 287 286 287 287 287 287 287 286 285 285 284 284 285 285 285 286
313 311 309 306 304 301 299 298 297 296 294 294 293 293 293 292 291 290 289 288 288 288 287 287 287 287 286 286 286 287 287 287 287 286 285 285 285 285 285 285 286 286 285
313 311 309 306 303 300 299 298 296 294 294 293 293 292 292 291 290 289 288 288 287 287 287 287 286 286 285 285 286 287 287 286 286 286 285 285 285 286 286 286 286 286 286
313 311 308 305 302 300 297 296 294 293 294 293 292 291 291 290 289 288 287 287 287 286 286 286 285 285 284 285 286 287 286 286 286 285 285 285 285 285 285 285 285 286 286
313 310 308 305 303 299 297 294 294 293 293 292 291 291 290 289 288 287 287 286 286 286 286 285 284 284 283 285 285 286 286 285 285 284 284 285 284 285 284 284 285 285 286
312 309 307 304 301 298 296 295 293 292 292 291 290 290 289 288 287 287 286 285 286 286 285 284 284 283 283 284 285 286 285 284 284 284 284 284 284 284 284 285 286 285 284
309 308 305 300 298 296 295 294 292 291 291 290 289 288 288 287 286 286 285 285 285 285 284 284 283 283 283 283 284 285 284 284 284 284 284 285 284 283 285 286 284 283 281
302 299 298 296 294 292 294 292 290 290 290 289 288 288 287 286 286 285 285 285 285 284 284 283 283 283 283 283 284 284 284 284 284 284 285 284 283 284 286 284 283 281 281
295 295 294 292 291 293 293 290 290 289 289 288 287 287 286 286 285 285 285 285 284 283 283 283 283 283 283 283 283 284 285 284 285 285 284 283 284 284 283 282 281 281 283
294 293 292 290 292 293 292 289 289 288 288 287 286 286 285 285 285 285 285 284 283 283 283 283 283 283 282 282 283 284 284 285 284 284 283 284 283 282 281 280 281 282 281
293 292 291 290 291 292 292 289 287 287 287 286 285 285 285 285 285 284 283 283 283 282 283 282 282 282 282 282 282 283 284 283 284 283 284 282 281 280 279 279 280 280 278
291 291 290 288 288 290 290 289 287 287 286 285 285 284 285 285 284 283 283 282 282 282 283 282 282 282 282 282 282 283 283 283 283 283 281 280 279 279 279 279 278 278 279
290 290 288 287 287 288 288 287 286 286 285 284 284 284 284 284 283 283 282 282 282 283 283 282 282 282 282 282 283 283 283 283 282 281 279 278 278 278 278 278 278 278 278
290 289 288 287 286 287 286 286 285 285 284 284 284 284 284 283 283 282 282 282 282 282 282 282 282 282 282 282 282 283 282 282 280 279 278 278 278 278 278 278 278 278 278

GFSMW_925_thetae_021.txt.gz
Theta_e
313 316 318 319 321 323 324 323 328 334 335 329 321 318 317 316 316 315 314 315 308 304 303 302 301 299 297 295 294 294 293 294 293 294 294 296 297 296 296 293 294 292 294
314 314 317 320 323 325 325 324 325 330 328 327 324 322 315 311 309 305 304 304 303 302 302 300 298 296 295 294 293 293 292 292 293 293 293 292 293 296 293 293 292 293 292
314 314 316 321 324 326 326 324 323 325 324 325 321 314 309 304 302 301 301 300 301 301 300 298 297 295 293 293 292 292 291 291 292 293 291 289 290 290 292 292 292 291 291
314 315 316 318 323 325 326 324 322 323 322 321 320 317 309 302 300 301 300 299 299 299 297 296 295 293 293 292 291 291 290 290 290 290 290 291 291 289 289 290 290 290 289
315 315 318 319 323 324 325 323 322 321 319 320 322 317 308 304 301 300 299 298 297 296 295 294 293 292 292 291 291 290 290 290 289 289 289 289 288 289 288 288 288 288 287
315 315 315 318 318 321 323 321 320 318 319 320 318 317 308 303 300 298 298 296 296 295 294 293 292 291 291 290 290 289 289 289 288 288 288 287 287 287 287 286 286 286 286
314 314 315 313 313 316 317 318 319 315 316 316 313 309 306 304 302 299 298 296 295 294 293 292 291 290 290 289 289 289 289 288 288 288 287 287 287 286 286 286 286 285 285
314 316 315 314 311 312 314 314 315 313 312 310 307 306 305 303 300 298 297 295 295 293 292 291 290 289 289 289 289 288 288 288 288 287 287 286 286 286 286 285 285 285 285
314 316 313 311 309 309 310 312 312 310 309 307 305 303 301 299 297 296 295 295 293 291 290 290 289 289 288 288 288 288 288 288 287 287 286 286 286 286 285 285 285 285 285
315 314 311 308 307 307 308 309 310 308 305 304 302 300 298 297 296 295 295 293 292 290 289 289 288 288 288 288 288 287 287 287 287 287 286 286 286 285 285 284 284 284 285
315 312 310 307 304 304 304 304 305 303 300 300 298 297 296 295 294 295 293 292 291 289 289 288 288 288 288 287 287 287 287 287 287 287 286 286 286 285 285 284 284 284 284
313 311 308 304 302 301 301 300 300 299 298 297 296 295 294 294 294 293 292 290 289 288 288 288 288 287 287 287 286 286 286 286 286 286 286 286 285 285 285 284 284 284 284
312 309 306 304 302 299 299 298 298 297 295 295 294 293 293 293 293 292 290 289 288 288 288 287 287 287 286 286 285 286 286 287 286 286 286 285 285 285 284 285 284 284 285
312 309 306 303 300 299 297 296 296 295 294 294 293 293 293 293 291 290 289 288 287 287 287 287 287 286 285 284 285 286 287 286 286 286 285 285 285 284 285 285 285 286 285
312 310 307 303 300 297 296 295 295 294 294 293 293 292 292 291 290 289 288 287 287 286 287 286 286 285 284 284 286 287 287 286 285 285 284 284 284 285 285 285 285 285 285
312 310 307 303 299 297 295 294 293 293 294 293 292 292 291 290 289 288 287 287 286 286 286 285 285 284 283 284 286 287 286 285 285 284 284 284 284 284 284 284 284 285 286
312 309 307 303 300 296 295 293 293 293 293 292 291 291 290 289 288 287 286 286 286 286 285 285 284 283 283 284 285 286 286 285 284 284 284 284 283 284 284 284 284 285 285
311 308 305 302 299 296 295 294 293 292 292 291 290 290 289 288 287 286 286 286 286 285 285 284 283 283 283 284 285 285 285 284 284 284 284 284 284 284 284 285 286 283 282
309 306 304 300 297 295 294 293 292 292 291 290 289 289 288 287 286 285 286 286 285 285 284 283 283 283 283 283 284 285 284 284 284 284 284 284 284 283 285 286 283 282 281
304 300 298 296 294 293 294 292 290 290 290 289 289 288 287 286 285 285 285 285 284 284 283 283 283 283 283 282 284 284 284 284 284 284 284 284 283 284 285 283 282 280 280
296 296 295 293 291 292 292 290 290 289 289 288 288 286 286 285 285 285 285 284 284 283 283 283 283 282 282 282 283 284 284 284 285 283 283 283 283 284 283 282 281 281 283
292 292 291 289 290 291 293 289 289 288 288 287 286 285 285 285 285 285 284 283 283 282 282 283 282 282 282 282 282 283 284 284 283 284 283 283 283 282 281 280 281 282 281
291 291 289 288 290 292 293 289 287 287 287 286 285 284 285 285 285 284 283 283 282 282 282 282 282 282 282 282 282 283 283 283 284 283 283 282 281 280 279 279 280 280 278
290 289 289 287 287 290 290 289 287 287 286 285 284 284 285 285 284 283 283 282 282 282 282 282 282 282 281 281 282 283 283 283 282 282 281 279 278 278 278 278 278 278 278
289 289 288 286 286 288 287 287 286 286 285 284 284 284 284 284 283 283 282 282 282 283 283 282 282 281 281 282 283 283 283 283 282 281 278 277 277 277 277 277 277 278 278
288 287 287 286 286 286 286 286 285 285 284 284 284 284 284 283 283 282 282 281 281 282 282 281 281 281 281 281 282 282 282 281 280 279 277 277 277 277 277 277 277 277 277

GFSMW_925_thetae_024.txt.gz
Theta_e
315 315 317 317 319 321 323 325 330 332 334 332 327 321 320 320 321 320 315 313 308 305 304 303 301 299 299 295 294 293 293 292 292 293 294 295 294 297 295 293 293 293 293
313 313 315 317 319 321 322 323 329 330 329 328 324 321 316 315 314 311 306 303 302 303 303 302 300 298 295 294 293 293 292 291 291 291 291 290 292 293 294 293 293 293 292
315 312 312 317 320 322 323 322 327 328 326 326 321 316 311 306 303 301 300 300 301 302 301 300 298 295 294 293 292 291 291 291 290 291 290 288 288 289 291 292 291 292 290
313 313 312 316 320 323 324 323 323 324 324 323 319 319 309 302 299 299 299 299 299 299 299 297 295 294 293 292 291 290 290 290 289 290 289 289 290 288 288 289 289 289 288
315 313 313 317 320 323 325 323 321 321 320 319 318 314 307 304 299 298 298 298 297 297 296 295 294 293 292 291 290 290 289 289 289 288 288 288 288 288 287 287 286 286 286
312 313 314 317 320 322 323 320 319 318 317 317 315 315 311 301 298 297 297 296 296 295 295 294 293 291 290 290 289 289 289 289 288 288 287 287 286 286 286 284 285 285 286
312 313 315 316 315 318 318 317 317 314 314 314 311 312 310 305 300 298 297 296 295 294 293 292 291 290 289 289 289 289 289 288 288 287 287 287 286 286 286 285 285 285 285
311 314 316 317 315 315 315 314 314 312 312 312 311 310 307 302 300 299 297 296 295 294 292 291 290 289 289 289 288 288 288 288 287 287 287 286 286 286 286 285 284 284 283
312 314 316 316 314 313 313 314 313 312 311 310 308 304 303 301 298 297 296 295 293 292 291 290 289 288 288 288 288 288 288 287 287 287 287 286 286 286 286 285 285 284 284
312 313 315 313 311 311 311 312 313 310 308 305 304 302 300 299 297 295 295 293 292 291 290 289 288 288 288 288 288 287 287 286 287 286 286 286 286 286 285 285 285 284 283
313 314 312 308 305 305 307 307 307 306 303 302 300 298 296 295 295 294 293 292 291 289 289 288 288 288 287 287 287 286 286 286 286 286 286 286 286 285 285 285 284 284 284
313 312 308 304 303 301 302 302 301 301 300 299 297 296 294 294 294 292 291 290 290 288 288 288 287 287 287 286 286 285 286 286 286 286 286 285 285 285 285 284 284 284 284
309 306 304 303 300 298 297 297 297 298 297 296 295 293 293 293 292 291 290 289 288 288 287 287 287 287 286 285 285 286 286 286 286 285 285 285 284 284 284 284 284 284 284
309 307 305 302 299 297 295 294 294 295 295 294 293 293 292 292 291 290 289 288 288 287 287 287 286 286 285 284 285 286 287 286 286 285 284 284 284 284 284 284 285 285 284
310 307 304 300 297 295 293 293 293 293 294 293 293 292 291 291 290 289 288 287 287 287 287 286 286 285 284 284 286 287 287 286 285 284 284 283 284 284 285 285 285 284 285
311 307 303 299 296 294 292 291 292 292 293 293 291 291 290 290 289 288 287 286 286 287 286 286 285 284 284 283 286 287 286 286 285 284 284 284 283 283 284 284 284 285 286
311 307 303 300 296 294 292 291 292 292 292 292 291 290 290 289 288 287 286 286 286 286 285 285 284 284 283 284 285 286 286 285 284 284 284 284 284 284 284 284 284 285 284
310 307 303 298 295 293 293 293 292 292 292 291 290 289 289 288 286 286 286 286 286 285 285 284 283 283 283 283 284 285 285 284 284 284 284 284 284 284 284 284 286 283 282
309 305 302 298 294 293 293 292 291 291 291 290 289 289 288 287 286 285 286 286 285 285 284 283 283 283 283 283 284 285 284 284 284 284 284 284 284 283 284 285 283 282 281
304 301 297 295 293 291 292 291 290 290 290 289 288 288 287 286 285 286 286 285 284 284 283 283 283 282 282 282 283 284 284 284 284 284 283 283 283 283 285 283 282 281 280
298 296 295 293 290 291 292 289 289 289 289 288 287 286 286 285 285 285 285 284 284 283 282 282 282 282 282 282 283 284 284 284 284 283 283 283 283 284 282 282 281 281 283
294 292 291 289 289 291 292 288 289 288 288 287 286 285 285 285 285 285 284 284 283 282 282 282 282 282 282 282 282 283 284 284 283 283 283 282 283 282 281 280 281 282 281
290 290 289 288 289 291 292 288 286 287 286 286 285 284 285 285 285 284 284 283 282 281 282 282 282 282 281 281 281 282 283 283 284 283 282 282 281 279 278 279 280 279 277
289 289 288 287 286 289 289 288 286 286 286 285 284 285 285 285 284 283 283 282 282 281 282 282 281 281 281 281 282 282 282 283 282 282 281 279 278 278 278 277 277 277 277
289 289 287 285 284 287 286 286 286 286 285 284 284 284 284 284 283 283 282 282 281 282 282 282 282 281 281 281 282 282 283 282 282 281 279 277 277 277 277 277 277 277 277
287 286 285 284 284 285 285 285 285 286 284 284 284 284 284 283 283 282 282 281 281 281 281 281 281 281 281 281 282 282 282 281 280 279 277 276 276 276 276 276 276 277 277

GFSMW_925_thetae_027.txt.gz
Theta_e
317 317 318 319 318 318 320 322 324 329 332 333 332 328 327 325 325 326 321 320 313 311 305 303 303 301 300 297 295 294 293 292 292 293 295 294 293 295 297 293 292 292 292
317 316 315 316 318 318 319 322 326 330 330 327 324 323 318 314 317 316 312 311 305 304 302 304 302 300 297 295 294 293 292 291 291 292 292 295 295 293 293 292 292 291 291
316 317 316 315 318 317 320 321 327 328 326 326 325 318 313 309 305 304 303 301 301 301 302 302 300 297 296 294 292 292 291 292 290 291 292 294 294 292 292 292 291 291 289
313 315 316 315 316 318 320 321 325 325 324 325 322 320 312 306 301 302 301 298 300 300 299 299 298 296 294 292 291 290 290 290 291 290 289 289 290 292 292 290 290 288 288
313 315 316 315 317 318 321 321 322 322 321 320 321 316 310 305 300 299 297 297 297 297 297 297 296 294 292 291 290 290 289 289 289 289 289 288 289 288 289 290 290 288 288
314 315 315 315 316 318 321 321 320 318 318 317 315 314 311 303 298 296 296 295 295 295 295 295 293 292 291 290 290 289 289 289 288 288 287 288 288 288 288 288 289 288 287
312 314 314 316 317 318 320 318 317 315 314 314 312 311 308 306 301 297 296 294 294 294 293 293 292 291 290 289 289 289 289 288 288 287 287 286 287 286 287 287 288 288 287
312 313 315 317 317 318 316 314 313 312 311 309 308 306 306 299 296 297 297 296 296 294 293 292 291 290 289 289 289 289 288 288 287 287 287 286 286 286 286 286 286 288 288
312 313 314 317 317 317 315 314 311 310 308 308 307 307 304 300 298 297 296 295 294 293 291 291 290 289 289 289 288 288 288 287 287 287 286 286 286 286 286 286 286 286 287
310 313 315 317 316 316 313 311 311 308 307 308 308 305 301 298 296 295 295 294 293 292 291 290 289 288 288 288 288 287 287 286 286 286 286 286 286 285 285 285 285 285 285
311 313 315 315 313 310 309 307 307 307 304 304 303 299 297 296 295 294 293 293 292 291 290 289 288 288 288 288 287 286 286 286 286 286 286 285 285 285 285 285 285 285 285
311 313 311 307 308 306 304 303 302 301 300 299 298 297 295 294 294 293 292 292 291 289 289 288 288 288 287 287 286 285 286 286 286 286 285 285 285 284 284 284 284 284 285
308 306 306 307 305 304 301 299 297 296 296 296 295 293 293 293 292 292 291 290 289 288 288 287 288 287 286 285 285 286 286 286 286 286 285 284 284 283 284 284 284 284 285
307 306 305 303 301 299 297 295 293 294 293 293 293 292 292 292 292 290 289 289 288 287 287 287 287 286 285 285 285 286 287 287 286 286 285 284 284 283 284 285 285 285 285
309 306 302 300 297 296 294 293 292 292 292 292 292 291 291 291 290 289 288 287 287 287 287 286 286 285 285 284 286 287 287 286 286 285 284 284 284 285 285 285 285 285 285
310 306 302 299 296 294 293 291 290 291 292 292 291 291 290 289 289 288 287 287 287 287 286 286 285 284 284 284 286 287 286 286 285 284 284 284 284 284 284 284 284 285 285
310 304 301 299 295 293 292 291 290 291 291 291 290 290 289 288 287 287 286 286 286 286 286 285 284 283 283 284 286 286 286 285 284 284 284 284 284 284 283 283 284 285 286
308 304 300 296 293 292 291 290 290 290 290 289 289 289 288 287 286 286 286 286 286 286 285 284 283 283 283 283 285 285 285 284 284 284 284 283 283 283 284 285 286 284 283
307 303 299 295 292 291 290 290 290 290 290 289 289 288 288 286 286 286 286 286 285 285 284 283 283 283 282 282 284 285 284 284 284 284 283 283 283 283 284 285 284 283 282
303 299 296 293 291 290 290 290 289 289 288 288 288 287 287 286 286 286 286 285 285 284 283 282 282 282 282 282 283 284 284 284 284 284 283 283 283 283 285 284 283 282 281
298 296 294 293 290 290 291 289 288 288 288 288 287 287 286 285 286 286 285 284 284 283 282 282 282 282 282 281 283 283 284 284 284 283 283 283 282 284 283 282 281 281 283
294 292 291 290 289 290 290 288 287 287 287 287 286 285 285 285 285 285 284 283 283 282 282 282 282 282 281 281 282 283 284 284 283 283 283 282 283 282 281 280 280 282 281
291 290 289 288 288 289 290 286 285 287 286 286 285 285 285 285 285 284 283 283 282 281 282 281 281 281 281 281 281 282 283 283 283 283 282 282 281 279 279 279 280 279 278
289 289 288 287 286 288 288 287 286 287 286 285 284 284 285 284 284 283 283 282 281 281 282 282 282 281 281 281 281 282 282 283 282 282 281 280 278 278 278 277 278 278 278
288 288 287 285 284 286 286 286 286 286 285 284 284 284 284 284 283 283 282 281 281 282 282 282 281 281 281 281 282 282 283 283 282 281 279 277 277 277 277 277 277 277 278
286 286 285 284 284 285 285 286 286 286 285 284 284 283 283 283 282 282 281 281 280 281 281 281 281 281 281 281 281 282 282 281 280 279 277 277 277 277 277 277 277 277 277

GFSMW_925_thetae_030.txt.gz
Theta_e
320 320 321 322 322 322 322 323 324 327 331 334 336 336 330 324 322 332 330 328 322 318 317 305 301 301 300 299 298 298 298 297 296 298 300 299 297 298 299 298 296 295 294
317 318 319 320 321 322 322 323 325 328 331 333 331 331 327 319 315 321 317 318 317 318 309 301 300 300 299 298 297 297 297 296 295 296 298 301 299 297 297 296 295 295 294
315 316 318 319 320 321 322 323 325 330 331 329 328 321 312 310 310 311 311 313 315 301 301 300 300 299 299 297 296 296 296 297 295 294 296 299 300 296 296 296 294 294 293
314 314 315 317 319 320 322 323 326 328 329 326 320 318 319 312 311 306 307 305 302 303 299 299 298 298 297 296 295 294 294 295 295 294 293 293 293 296 296 295 294 293 292
313 314 315 314 316 319 322 323 325 326 324 322 323 322 320 316 307 302 299 299 298 298 297 298 297 296 296 294 294 293 293 293 293 293 293 293 293 292 293 294 294 292 292
314 314 314 315 315 318 323 324 324 323 321 323 322 324 319 307 302 298 297 297 296 296 296 296 295 295 294 293 292 292 292 292 291 291 291 291 292 292 292 293 292 292 292
313 313 315 318 317 318 322 323 322 321 320 322 321 321 312 308 304 299 297 296 295 296 295 294 294 293 292 292 292 292 291 291 291 291 291 290 290 290 290 290 291 292 291
318 314 314 316 318 319 322 322 321 319 319 320 319 312 309 307 300 297 297 295 297 296 294 293 293 292 291 291 291 291 291 290 290 290 290 289 289 289 289 289 289 291 291
318 316 315 316 318 320 322 322 321 318 317 317 311 304 303 299 298 296 296 295 295 294 293 292 292 291 290 290 290 290 290 289 289 289 289 289 289 289 288 288 288 289 290
318 317 315 317 318 320 322 322 320 316 316 313 309 302 299 299 297 296 295 295 293 292 292 291 291 290 290 290 289 290 289 289 289 288 289 288 288 288 288 288 288 288 288
318 317 315 317 319 321 321 319 316 314 311 307 303 299 298 299 296 295 294 294 293 292 291 291 290 290 289 289 289 288 288 288 289 289 288 288 287 287 287 287 287 287 287
316 316 316 318 319 319 318 316 313 310 306 301 299 297 297 295 295 293 293 292 292 291 290 290 289 289 289 288 288 288 288 288 288 288 288 287 287 286 286 286 286 286 286
315 314 313 315 317 316 314 312 309 303 299 298 295 294 294 294 294 293 292 291 291 290 289 289 289 288 287 287 287 287 288 288 288 288 287 287 286 286 286 286 286 286 286
315 313 312 313 314 314 311 308 301 297 295 294 294 293 294 293 292 291 291 290 290 289 289 288 287 287 286 286 286 287 288 288 288 287 287 286 285 285 286 286 286 286 286
315 311 311 311 310 307 303 298 295 293 293 293 293 294 292 292 291 290 289 289 289 288 288 287 287 286 286 285 287 288 289 288 288 287 286 286 285 285 285 286 286 286 285
315 311 308 308 306 301 297 294 292 292 293 293 292 291 291 290 290 289 288 288 288 287 287 287 286 286 285 284 287 287 288 287 287 286 286 285 285 285 285 285 285 285 286
314 312 308 306 301 298 294 293 292 293 293 292 291 291 290 289 289 288 288 288 288 287 287 286 285 285 285 284 286 286 286 287 286 286 285 285 285 285 284 284 285 286 286
315 310 307 300 298 296 294 292 293 292 292 290 290 290 289 288 288 288 288 287 287 287 286 285 284 284 284 283 285 285 286 286 286 285 285 285 285 284 285 285 285 286 285
312 307 302 296 296 295 293 293 292 292 291 291 290 289 288 288 287 287 287 287 287 286 285 284 284 284 284 282 284 285 285 285 285 285 285 285 284 284 284 285 285 284 284
306 303 299 298 296 294 294 293 293 292 291 290 289 288 288 288 287 287 287 285 285 285 284 284 284 283 283 283 283 284 285 285 285 285 285 284 284 284 284 284 283 283 283
300 298 297 296 294 293 293 293 292 291 289 288 288 287 287 287 286 286 285 285 285 284 284 284 284 283 283 283 283 284 284 285 285 285 284 284 284 284 284 283 282 282 282
297 296 294 292 292 292 293 292 290 288 287 287 286 286 285 285 285 285 285 284 284 284 284 284 284 284 283 283 282 283 284 284 284 284 284 283 284 283 282 281 281 282 282
296 295 294 293 293 292 291 289 287 287 286 286 285 285 285 285 285 286 285 285 284 284 284 284 284 284 283 282 282 283 283 284 284 284 283 283 282 281 280 280 280 280 280
293 293 292 292 291 290 288 287 286 286 286 286 286 285 285 285 284 284 284 284 284 284 284 284 283 283 283 282 282 283 283 283 284 283 283 282 280 280 279 279 280 280 280
292 292 291 290 288 288 287 286 285 286 286 286 285 286 285 285 284 283 283 283 283 283 283 283 282 282 282 282 282 282 283 283 283 282 281 280 279 279 279 279 280 280 280
290 289 288 288 287 286 285 285 286 286 286 285 285 285 285 284 284 284 283 281 281 280 280 281 281 281 281 281 282 282 282 282 281 280 279 279 279 279 279 279 279 279 279

GFSMW_925_thetae_033.txt.gz
Theta_e
321 321 321 322 322 323 324 325 325 325 327 331 336 339 339 338 338 336 331 324 320 320 320 318 307 305 305 304 302 301 302 300 298 300 302 302 300 300 300 300 299 298 297
318 319 320 320 321 322 324 324 324 325 328 331 335 338 338 334 330 324 322 317 316 318 317 311 306 304 302 301 301 301 300 299 298 298 300 304 302 300 300 299 297 296 296
316 317 317 319 321 322 323 324 324 326 329 332 335 336 332 323 316 316 314 315 314 313 314 304 303 303 302 301 300 300 300 300 298 296 297 302 303 298 298 298 297 296 296
315 316 316 317 318 321 323 323 324 326 330 333 334 332 323 317 314 311 311 312 309 310 306 303 302 301 301 300 299 298 297 298 298 297 295 295 295 297 298 297 296 296 294
315 315 316 316 316 318 323 324 325 326 331 332 332 328 321 319 312 309 309 306 304 303 303 305 300 300 300 298 297 297 296 295 296 295 295 295 295 295 295 296 296 295 294
314 314 315 314 315 315 318 324 325 327 330 331 327 324 325 318 309 306 304 301 300 300 300 300 299 298 297 297 296 295 295 294 294 294 294 294 294 294 293 294 294 293 293
316 317 316 314 315 316 317 323 325 328 329 328 325 325 324 312 310 305 302 300 299 299 298 298 298 297 296 295 295 294 294 294 293 293 293 292 292 292 292 292 292 293 292
317 318 319 317 315 318 318 321 325 326 326 325 326 326 319 312 308 305 302 299 299 298 297 297 297 295 294 294 294 294 293 293 293 292 292 292 291 291 291 291 291 291 291
317 318 319 318 314 316 319 322 324 325 324 325 325 324 314 309 306 304 301 298 298 297 297 296 295 294 293 293 293 293 292 292 292 291 291 291 291 290 290 290 290 290 291
316 317 318 317 316 316 319 322 324 324 322 324 323 317 310 303 301 298 298 298 297 296 295 294 294 293 293 292 292 292 291 291 291 291 290 290 290 290 289 289 289 289 289
316 316 318 317 316 318 320 323 323 322 321 320 312 305 301 299 297 297 297 296 295 294 294 294 293 293 292 291 291 291 290 290 290 290 290 290 289 289 288 288 288 288 288
316 316 317 318 319 321 322 323 322 319 319 313 306 301 297 296 297 296 296 295 294 294 294 293 292 292 291 290 290 290 290 290 290 290 290 289 289 288 287 287 287 287 287
315 316 316 317 320 321 322 321 319 316 312 306 302 297 296 296 296 295 295 294 294 293 292 292 291 291 290 289 289 289 289 290 290 290 289 289 288 287 287 287 287 287 288
314 316 315 316 317 318 318 317 313 309 305 302 298 296 295 295 294 294 293 293 292 292 291 291 290 289 288 288 288 289 290 290 290 289 289 288 287 287 286 286 286 287 287
314 315 314 314 315 315 315 309 304 302 300 298 297 295 295 294 293 293 292 291 291 290 290 289 289 288 288 287 287 289 289 289 289 289 288 287 287 286 286 286 286 286 286
312 315 312 312 313 311 306 302 299 297 296 295 295 294 293 293 292 291 291 290 290 289 289 289 288 288 286 286 285 288 288 288 288 288 287 287 286 286 286 286 286 286 286
315 315 310 310 307 301 298 296 295 294 294 293 293 292 292 291 290 290 290 290 289 289 289 288 287 287 286 285 285 287 287 287 287 287 287 286 286 286 285 285 285 285 286
315 313 309 305 300 295 294 295 294 293 292 292 291 291 290 290 290 290 290 289 289 289 288 287 286 286 286 285 284 286 286 286 287 287 286 286 286 285 285 285 285 286 286
314 310 304 298 295 294 294 294 293 293 292 291 291 291 290 290 289 290 289 289 288 288 287 286 286 286 286 285 283 285 285 286 286 286 286 286 286 285 286 285 285 285 284
307 300 297 294 294 294 294 294 293 293 293 292 291 290 290 290 289 289 288 288 288 287 286 286 286 285 284 284 284 285 285 285 285 285 285 285 285 285 285 285 284 284 283
299 298 297 296 296 296 296 295 295 293 292 290 290 289 289 289 288 288 287 287 286 286 286 286 286 285 285 284 284 284 284 285 285 285 285 285 285 285 285 284 283 283 283
300 299 298 297 297 296 295 293 291 290 289 288 288 287 287 287 287 287 286 286 286 286 286 286 286 285 285 284 284 284 284 284 284 284 284 284 284 284 284 283 282 282 283
295 295 294 294 294 293 291 290 289 288 287 287 287 287 287 287 287 287 287 286 286 286 286 285 285 285 284 284 284 283 284 284 284 284 284 284 283 283 282 281 281 282 281
297 296 295 294 292 289 288 287 287 287 287 287 287 287 287 286 286 286 286 286 286 285 285 285 284 284 283 283 283 283 283 283 283 284 283 283 282 281 281 281 280 281 281
295 294 293 292 289 287 286 286 287 287 288 287 287 287 287 286 286 286 285 285 284 283 283 283 282 282 282 282 282 283 283 283 283 283 282 281 280 280 280 280 280 280 280
293 292 291 289 288 286 286 287 288 288 287 287 287 287 286 286 286 285 285 284 282 281 280 281 281 281 281 282 282 282 282 283 282 281 280 280 280 280 280 279 279 279 279

GFSMW_925_thetae_036.txt.gz
Theta_e
318 320 321 322 321 321 322 327 326 325 327 331 338 340 339 338 337 336 335 334 333 329 321 319 314 311 307 304 303 302 302 301 300 301 301 302 301 300 300 300 300 298 298
315 316 318 321 321 322 322 321 326 325 324 325 331 337 339 338 337 337 335 333 329 322 319 317 311 307 305 303 302 302 301 299 298 298 298 299 299 299 299 300 298 297 296
314 315 314 317 320 320 321 322 323 325 325 326 330 337 338 335 333 332 330 326 322 318 317 310 307 306 304 302 302 301 301 300 298 296 296 296 297 295 298 299 298 297 296
313 313 313 313 316 319 320 321 323 324 325 326 333 337 333 326 327 326 321 315 314 314 310 308 306 304 303 302 301 300 299 299 298 297 296 295 295 293 293 296 296 295 295
311 311 311 313 315 315 319 321 321 324 325 327 333 335 330 326 322 319 317 314 312 310 307 306 303 303 302 301 299 298 298 297 296 295 295 295 295 295 293 291 293 294 293
311 311 313 314 315 315 314 315 323 323 326 330 334 332 326 321 316 314 311 309 308 304 303 303 302 303 302 299 298 297 296 295 294 294 294 293 293 292 292 289 290 290 292
312 312 315 315 315 314 314 315 317 324 326 332 332 330 323 321 316 311 307 305 302 301 301 301 300 300 300 297 297 296 295 294 294 294 293 293 292 292 291 291 290 289 290
313 314 314 315 316 316 315 316 317 325 328 332 330 325 323 317 311 309 306 303 301 301 300 299 299 298 297 296 295 294 294 293 293 293 292 292 292 291 291 290 290 289 288
314 314 313 314 315 316 316 317 318 325 328 330 326 324 319 312 309 305 304 303 301 300 299 298 297 296 295 295 294 293 293 292 292 292 291 291 291 291 290 290 290 289 288
314 313 312 313 316 316 315 318 320 325 327 327 325 317 314 311 307 305 303 301 300 298 297 296 295 294 294 293 293 292 292 291 291 291 291 290 290 290 290 289 289 288 288
315 313 312 314 316 317 316 319 322 324 325 325 316 313 310 306 303 301 300 298 297 297 296 295 294 293 293 292 292 291 291 290 290 290 290 290 290 289 289 288 288 287 287
313 313 313 314 315 318 319 321 323 323 322 314 308 307 302 300 299 298 297 297 296 295 294 294 293 292 292 291 291 290 290 290 290 290 290 290 289 288 288 287 287 287 287
311 313 313 313 313 318 321 322 321 319 308 307 302 300 299 297 297 296 296 296 295 294 293 293 292 291 291 290 289 289 289 290 290 290 290 289 289 288 287 287 286 286 286
310 313 313 312 313 318 319 317 310 306 302 300 298 297 296 296 295 295 295 294 294 293 292 292 291 290 289 289 289 289 290 290 290 290 289 289 288 288 287 286 286 286 286
311 313 313 311 313 315 312 306 305 301 299 297 297 296 295 295 294 293 293 293 292 291 291 291 290 289 289 288 288 288 289 289 289 288 288 288 287 287 287 287 287 287 286
311 312 312 312 313 308 303 301 300 299 297 296 295 294 294 293 293 293 292 292 291 290 290 289 289 289 287 287 286 287 287 286 287 287 287 287 286 286 287 287 286 286 286
312 313 311 310 302 300 299 297 297 297 295 294 293 293 292 292 291 291 291 290 289 289 289 288 288 287 287 287 285 286 286 285 286 287 287 286 286 286 285 285 286 286 286
311 312 308 301 297 296 295 294 294 294 293 292 292 291 291 291 291 290 291 291 289 289 288 288 287 287 287 286 285 284 284 285 286 286 286 286 286 286 286 286 286 285 285
312 307 299 295 294 294 294 293 293 293 293 292 292 292 292 291 291 290 289 289 289 288 287 287 287 286 286 285 284 285 284 285 285 285 285 285 285 285 286 286 285 285 284
298 296 294 294 294 294 294 293 293 294 293 293 292 292 292 290 289 289 289 288 288 287 287 286 286 285 285 285 285 285 284 284 284 285 284 284 285 285 286 286 285 284 283
295 294 295 294 294 294 294 294 293 292 291 291 290 290 290 289 289 288 288 288 287 287 286 286 286 285 285 284 285 285 284 284 284 285 284 284 284 285 285 285 284 283 283
299 297 296 297 296 296 295 294 293 292 291 289 289 288 288 288 288 287 287 287 287 286 286 286 285 285 285 284 284 284 284 285 285 284 284 284 285 285 284 284 282 283 283
298 298 298 297 297 295 291 290 289 288 288 288 287 288 287 287 287 287 286 286 286 286 285 285 285 284 284 283 283 284 284 283 284 283 283 284 283 283 282 281 282 281 280
294 293 291 290 289 289 288 287 287 287 287 287 287 287 287 287 287 286 286 286 285 285 284 284 283 283 282 282 282 282 283 282 282 283 283 282 281 281 280 280 280 280 279
294 291 289 288 287 287 287 287 287 288 287 287 287 287 286 286 286 286 285 285 284 283 282 282 281 281 281 281 283 283 282 283 283 284 282 280 280 279 279 279 279 279 279
291 289 287 287 287 287 287 288 288 288 287 287 286 286 286 286 285 285 284 284 283 282 281 281 281 281 281 282 282 282 282 283 283 281 279 279 279 279 279 278 278 278 278

GFSMW_925_thetae_039.txt.gz
Theta_e
315 317 318 319 319 319 320 321 325 338 339 341 341 341 340 339 337 335 334 333 331 331 330 329 323 317 315 312 306 304 304 302 302 302 301 301 300 300 300 300 300 299 298
312 312 316 318 319 320 320 320 323 333 338 339 340 340 340 339 338 335 335 334 332 331 330 328 320 314 310 306 304 305 302 301 300 299 298 297 299 299 299 300 300 297 296
312 311 310 314 317 318 320 321 321 322 332 336 338 338 338 337 336 335 335 334 332 331 329 325 318 312 309 305 304 304 304 301 298 297 298 296 297 293 297 299 298 296 296
309 309 309 310 313 314 316 320 321 321 323 326 328 334 336 333 333 334 333 333 331 328 324 319 311 309 305 304 303 303 303 302 299 297 296 295 295 293 293 296 296 295 294
309 309 308 310 313 314 314 315 319 320 320 323 324 328 333 334 332 328 327 327 321 320 318 309 308 307 306 304 303 301 300 300 299 298 296 295 295 294 292 291 292 294 293
307 309 311 313 313 314 313 313 315 319 319 322 325 329 333 331 324 318 317 316 317 316 309 306 307 308 303 302 301 300 299 297 296 295 294 294 293 292 291 289 288 289 291
309 311 313 312 314 315 316 316 313 315 317 321 327 331 332 331 328 319 313 310 309 307 307 305 305 303 303 302 300 299 297 296 295 294 293 293 292 292 291 290 289 288 290
309 312 312 312 313 315 315 316 315 314 315 324 329 331 329 326 324 318 314 310 309 305 305 304 303 303 301 299 297 297 296 295 294 293 293 292 292 291 291 290 290 287 287
311 311 311 311 313 314 315 316 315 314 316 327 328 328 325 325 324 318 315 312 307 306 303 302 302 300 298 297 297 296 295 293 293 292 292 291 291 291 290 290 289 288 287
312 311 311 312 314 314 314 316 315 314 321 328 326 321 321 324 320 315 309 307 305 302 301 300 300 298 296 296 295 294 293 292 292 291 291 290 290 290 290 289 289 288 287
312 311 311 313 314 314 315 317 316 316 325 324 319 320 317 316 313 310 307 304 301 300 300 299 298 296 295 294 293 293 292 291 291 290 290 290 290 289 289 288 288 287 287
309 310 311 313 313 314 315 319 318 322 322 318 317 313 312 309 307 305 302 301 298 299 298 297 295 294 293 292 292 291 290 290 290 290 290 290 289 289 288 288 287 287 286
308 309 311 312 312 313 318 319 318 315 313 313 309 304 304 304 302 299 299 298 297 295 296 295 294 292 292 291 291 290 290 290 290 290 290 289 289 289 288 287 287 286 286
309 310 311 312 312 315 310 309 306 306 305 303 301 299 299 298 297 297 296 295 295 294 293 293 292 291 291 290 289 289 290 290 290 290 289 289 288 288 287 287 287 287 286
309 312 311 310 309 307 305 303 302 300 299 299 298 297 296 296 295 295 294 294 293 293 293 295 294 290 290 289 289 289 289 288 288 287 287 288 287 287 288 288 287 287 286
311 311 310 308 301 300 301 299 298 297 298 297 295 295 294 294 293 292 291 292 292 291 291 291 291 289 288 288 287 287 287 286 285 286 287 287 287 286 287 287 286 287 287
310 311 309 301 299 299 297 297 296 296 295 294 294 293 293 292 291 292 293 293 295 294 292 289 289 288 288 287 286 285 285 285 285 286 286 286 286 286 285 285 286 286 286
309 309 300 297 296 295 295 294 294 293 293 292 292 291 291 292 293 294 294 291 290 290 291 288 288 287 287 286 285 285 284 284 284 285 285 285 285 285 285 286 286 286 285
305 297 295 294 294 294 293 293 292 292 292 292 292 292 294 293 291 290 291 292 293 289 288 287 287 286 286 285 285 285 285 284 284 284 284 284 284 284 286 286 286 285 285
295 295 295 294 293 293 293 293 293 293 293 292 292 293 293 293 293 293 292 289 288 287 287 286 286 286 285 285 285 285 285 284 284 284 284 284 284 285 286 286 285 284 283
295 294 294 294 294 294 294 294 294 293 293 294 294 293 295 292 289 288 288 288 287 286 286 286 286 285 285 284 285 285 285 284 284 284 284 283 284 285 285 285 284 283 283
296 296 295 295 295 294 294 293 292 292 292 292 291 289 289 289 288 288 287 287 286 286 286 285 285 285 284 284 284 285 285 285 284 283 283 283 284 284 284 282 282 283 283
298 297 296 295 293 294 294 292 291 291 290 288 288 288 288 287 287 287 286 286 286 285 285 284 284 283 283 282 282 283 283 283 283 283 283 284 283 282 280 280 281 281 279
296 296 294 293 291 293 293 292 289 287 287 287 287 287 287 287 287 286 286 285 285 284 284 283 282 281 281 281 282 283 282 282 283 283 283 282 280 279 279 279 279 279 279
291 290 288 287 287 287 287 287 287 288 287 287 287 287 286 286 286 285 285 285 283 282 281 281 281 280 281 281 283 283 283 283 284 283 281 279 278 278 278 278 278 278 278
288 287 287 287 287 287 287 287 288 288 287 287 286 286 286 285 285 284 284 283 282 282 281 281 281 281 281 282 282 282 283 283 282 279 278 278 278 277 278 277 277 277 278

GFSMW_925_thetae_042.txt.gz
Theta_e
313 314 316 316 316 317 318 318 319 333 339 339 338 338 338 338 337 336 336 333 331 327 326 327 326 322 322 319 312 307 304 303 302 302 301 301 300 301 300 300 299 299 298
310 310 313 316 317 318 318 318 317 319 337 339 338 338 338 338 338 337 335 333 332 328 328 328 326 324 319 313 311 308 304 303 302 301 299 298 299 299 299 299 299 298 297
311 311 308 312 314 316 317 318 319 318 325 338 339 338 338 336 335 335 334 333 333 330 329 329 328 324 318 314 310 306 306 304 299 300 300 297 299 294 296 298 298 296 295
308 308 308 308 312 314 316 315 316 318 320 332 338 337 335 334 335 336 335 333 333 331 329 329 327 322 317 313 309 304 305 305 301 297 297 296 296 294 294 295 296 295 294
306 307 305 308 311 311 312 313 314 315 317 321 335 336 334 334 334 334 334 333 330 327 328 327 324 318 314 310 306 305 304 303 302 300 297 295 295 294 292 292 292 294 294
305 304 308 311 313 314 314 314 313 312 314 317 321 329 333 333 332 331 328 328 326 323 324 323 318 313 309 307 304 304 303 301 301 299 297 295 294 292 292 290 289 289 291
306 309 311 312 314 314 314 314 315 316 316 314 318 322 330 333 333 331 326 323 321 318 318 316 311 309 307 304 304 302 300 299 299 297 295 294 294 293 292 291 289 288 290
304 309 311 310 311 311 311 313 314 315 316 316 314 320 326 329 328 327 326 322 317 315 315 310 307 306 306 303 303 300 299 297 296 295 293 293 292 292 291 291 290 287 287
308 311 310 310 311 312 312 312 315 316 316 315 314 320 326 325 326 324 322 318 315 314 310 307 305 305 304 302 301 298 297 295 294 293 293 292 291 291 291 290 290 288 286
309 308 308 310 312 312 311 312 315 317 317 313 317 323 324 323 323 321 318 315 313 311 308 305 304 303 302 300 297 296 295 294 292 292 292 291 291 290 290 290 289 288 287
308 308 308 310 312 312 311 313 315 319 318 317 321 322 320 320 317 316 316 314 311 309 305 303 302 301 298 296 295 294 292 292 291 291 291 290 290 290 289 289 288 288 287
313 313 309 309 311 312 313 315 317 319 318 320 319 316 316 315 312 312 312 311 307 303 300 300 298 297 296 295 294 294 292 291 290 290 290 290 290 289 289 288 288 287 287
312 312 307 310 310 312 314 316 317 317 317 315 313 312 310 310 307 306 305 303 300 298 297 297 296 295 294 292 291 291 290 290 290 290 290 290 289 289 288 288 287 287 287
311 310 309 310 310 312 309 308 307 307 307 308 307 305 304 303 303 301 299 297 296 295 296 295 294 293 295 294 291 290 291 291 291 290 289 289 288 288 287 287 287 287 286
311 311 311 309 307 304 302 301 301 301 301 300 298 297 297 297 296 296 295 294 294 294 294 294 292 290 290 290 291 294 292 290 288 287 287 287 287 287 288 288 287 287 286
312 310 309 304 300 300 298 299 299 300 299 297 296 296 296 295 293 292 292 293 294 294 294 293 294 293 291 290 289 288 287 286 285 286 286 286 286 286 287 287 287 287 287
306 310 307 299 297 297 296 296 296 296 295 294 294 293 292 292 292 292 292 293 293 294 293 292 292 290 291 291 289 286 285 284 285 285 285 285 285 285 285 285 286 286 286
305 307 298 294 295 295 294 294 294 293 292 292 292 292 292 292 292 293 293 293 293 294 294 292 291 289 288 288 287 286 284 284 284 284 284 284 284 284 285 286 286 286 285
295 294 294 293 293 293 292 292 292 292 292 292 293 293 293 294 294 294 293 292 293 292 291 289 289 288 288 286 285 285 285 284 284 284 284 284 284 284 285 286 286 286 285
295 294 294 294 294 293 293 293 293 293 293 293 294 294 294 294 293 293 292 292 292 289 286 286 286 286 285 285 286 285 285 285 284 284 284 283 284 284 285 286 285 283 283
295 294 294 294 294 294 294 293 293 292 292 293 293 293 293 294 294 293 292 290 287 286 286 286 285 285 284 284 285 285 285 285 284 284 283 282 283 285 285 284 283 282 283
296 295 295 295 294 294 293 292 290 291 292 292 293 293 293 292 289 287 287 286 286 286 285 285 284 284 284 284 285 285 285 284 283 283 282 283 284 284 283 282 281 282 282
297 296 295 294 294 294 294 291 290 293 293 291 289 289 288 287 287 287 286 286 285 285 284 284 283 283 282 281 281 282 283 283 283 283 284 284 282 281 280 280 281 280 279
298 296 295 293 292 293 293 294 293 293 289 287 287 287 287 286 286 286 286 285 284 284 283 282 281 280 280 281 282 283 282 283 283 283 282 280 279 279 279 278 279 279 278
292 290 289 289 289 291 292 292 291 288 287 287 287 287 286 285 285 285 284 284 282 282 281 281 281 281 281 281 283 283 283 283 283 282 280 278 277 277 277 278 278 278 278
288 287 287 287 287 287 287 287 287 288 288 287 286 285 285 285 284 284 284 283 283 282 282 282 281 281 281 282 282 282 282 282 281 279 277 277 277 277 277 277 277 277 277

GFSMW_925_thetae_045.txt.gz
Theta_e
312 312 314 315 315 316 315 315 316 319 335 340 339 338 337 337 336 335 335 334 332 329 328 327 325 325 325 322 315 309 309 304 303 301 301 301 300 301 300 299 299 299 298
309 308 311 313 314 316 317 316 314 316 328 337 338 338 337 337 338 337 335 335 335 334 329 327 324 325 325 319 313 312 307 303 302 302 299 298 299 299 299 299 299 298 298
310 310 307 310 312 313 314 316 317 316 320 334 337 337 336 336 335 335 335 335 334 335 331 328 325 325 325 319 315 313 312 304 300 301 302 297 299 296 296 297 298 298 296
306 306 307 307 309 310 312 314 315 316 316 328 336 336 335 334 334 335 336 336 334 332 330 328 325 325 324 319 316 313 310 306 303 299 299 298 299 296 294 295 296 295 295
303 304 304 306 309 309 311 312 313 313 314 316 334 336 335 334 333 334 334 335 333 330 330 328 326 323 322 318 316 310 307 306 305 302 296 296 295 294 292 292 292 294 294
302 303 305 308 311 312 311 311 311 312 312 313 316 331 335 333 333 333 331 332 331 329 328 328 326 322 320 318 314 310 306 305 305 302 301 298 295 293 292 290 290 290 292
301 303 307 309 312 313 313 314 314 314 315 315 314 316 325 333 333 333 330 326 327 326 327 326 325 321 318 316 311 307 303 304 303 302 299 297 296 294 293 291 289 288 290
303 306 307 308 309 310 310 310 312 313 314 314 314 314 316 323 330 331 329 329 328 324 325 323 321 319 315 311 307 304 302 301 299 299 298 296 294 293 292 292 290 287 287
308 308 308 310 311 311 311 311 311 311 313 315 316 315 314 318 323 326 328 326 323 324 322 321 319 314 309 306 304 301 299 298 297 295 294 293 292 292 291 291 291 289 287
306 306 305 307 309 311 312 311 311 312 313 315 316 316 314 317 321 324 324 323 320 318 316 314 311 308 305 304 301 298 296 295 294 293 293 292 291 291 290 290 290 289 288
310 310 305 309 311 311 311 311 311 313 314 315 318 317 317 320 322 321 319 318 314 313 311 309 306 304 302 300 298 297 294 294 293 291 291 291 291 290 290 289 289 288 287
313 311 310 310 310 308 310 311 314 314 315 317 318 318 318 318 317 315 312 311 311 308 308 305 302 300 298 297 296 293 292 294 295 294 292 290 290 290 289 289 288 288 287
311 309 309 308 306 310 311 309 307 308 312 313 313 313 313 313 311 310 309 307 306 303 300 299 297 296 295 294 294 294 292 290 290 290 290 290 291 291 289 288 288 287 287
313 311 309 307 310 306 304 302 302 303 304 306 306 306 306 306 305 304 303 301 300 298 296 295 295 295 294 294 293 291 290 290 292 293 292 290 289 288 288 287 287 287 287
309 310 309 306 305 301 299 299 300 300 301 301 300 300 301 302 299 297 296 295 295 294 294 294 293 292 292 294 295 294 294 294 291 289 288 287 287 287 288 289 288 287 287
302 302 308 304 298 296 297 298 298 298 298 297 296 295 295 294 294 293 293 292 292 293 293 294 294 293 291 291 293 292 289 288 287 286 286 286 285 285 285 286 287 287 287
298 301 306 299 296 295 296 295 295 294 293 293 293 293 293 293 292 292 292 292 292 293 293 292 293 293 292 293 294 292 291 287 285 285 284 284 284 284 284 284 285 286 286
296 296 295 293 293 294 294 295 294 293 293 293 293 293 293 292 292 293 293 292 293 293 293 292 292 293 292 290 289 286 284 284 284 284 284 284 284 284 285 285 285 285 286
295 294 292 292 293 293 293 294 293 293 294 293 293 293 293 292 292 292 292 293 294 293 293 292 291 291 289 288 288 285 285 284 284 284 284 284 284 283 285 285 286 285 284
295 294 294 294 293 293 293 293 293 293 293 293 293 293 293 292 292 292 292 293 293 291 291 289 288 287 288 287 286 286 285 285 284 284 284 283 283 284 285 286 285 283 282
295 295 295 295 294 294 293 292 292 292 293 293 293 293 293 293 293 293 292 292 291 288 285 285 285 284 285 285 286 286 285 285 284 283 282 282 283 285 285 284 283 282 283
296 295 295 294 294 293 293 291 290 291 292 292 292 292 293 294 293 292 288 286 285 285 284 284 283 283 284 285 285 285 284 284 283 283 283 283 284 284 283 281 281 282 282
296 295 295 295 293 293 293 291 291 292 292 292 291 291 291 288 287 286 286 285 285 284 283 283 283 282 282 281 281 283 283 283 283 283 284 283 282 280 279 279 280 280 279
296 295 294 293 292 293 293 292 292 292 292 288 287 287 286 285 285 285 285 285 284 283 283 282 281 280 280 281 282 283 283 283 283 283 281 280 279 278 278 278 279 279 278
293 293 292 292 291 292 292 292 290 292 289 287 286 286 285 285 285 284 283 283 282 282 281 281 281 281 281 282 283 283 283 283 282 281 280 278 277 277 277 278 278 278 278
289 289 289 289 289 291 291 289 289 289 287 286 286 285 285 284 284 283 284 284 284 283 282 282 282 281 282 282 282 282 282 281 281 279 277 276 276 276 277 277 277 277 277

GFSMW_925_thetae_048.txt.gz
Theta_e
311 313 314 315 314 315 316 316 316 316 330 339 339 338 335 337 336 337 337 335 333 330 323 325 327 329 330 325 326 318 310 307 303 301 300 300 300 300 300 300 300 299 298
309 308 310 312 313 313 314 315 315 315 318 335 337 338 337 336 337 336 337 337 335 333 327 325 326 328 329 325 325 318 308 306 303 302 300 298 298 299 299 299 299 299 298
306 307 306 308 310 310 311 313 314 315 315 326 334 337 337 335 335 335 335 336 335 334 331 328 327 327 327 325 324 316 312 306 301 303 303 297 300 296 297 297 298 298 297
302 302 303 305 307 310 310 311 311 313 314 317 334 335 335 335 334 334 336 335 335 335 334 332 329 327 326 323 323 317 312 309 304 301 301 300 301 298 295 295 296 296 295
301 302 301 303 306 307 308 309 310 311 313 315 327 334 334 334 334 334 334 333 333 334 334 333 331 327 326 322 322 317 313 310 310 306 297 296 296 296 295 294 293 294 294
302 303 308 310 311 312 312 310 308 309 311 312 314 331 333 333 333 333 333 333 332 330 331 332 331 328 326 322 320 318 316 310 308 305 303 300 297 294 294 292 291 292 293
305 306 306 307 310 311 311 310 311 312 312 311 311 314 326 332 332 332 332 330 329 327 329 329 328 327 326 323 318 315 312 310 305 303 302 301 299 299 296 293 289 289 290
304 305 306 307 308 309 310 311 311 310 311 313 313 313 313 316 325 330 330 330 329 329 328 328 327 325 321 320 315 312 310 308 302 302 299 298 297 296 294 293 291 289 288
304 305 305 308 309 309 313 313 310 311 310 311 312 314 314 314 314 316 324 328 327 327 325 324 323 318 317 315 313 310 308 302 301 299 297 295 294 293 293 292 292 291 287
306 306 306 308 310 310 310 312 311 311 310 312 313 314 315 315 315 315 318 322 325 324 322 319 316 314 313 311 309 306 301 299 296 296 295 293 292 292 291 291 291 290 289
311 309 307 308 309 309 309 309 308 310 313 312 314 315 316 317 316 318 319 320 320 319 317 314 313 310 308 306 303 301 297 296 294 293 294 294 292 291 290 290 289 289 288
311 308 306 307 307 306 307 308 307 308 308 311 313 314 315 315 315 316 317 316 315 313 313 310 307 305 302 300 299 296 294 294 293 291 291 291 291 290 289 289 290 289 287
309 308 308 306 307 304 302 302 302 307 308 309 311 309 309 310 310 311 311 311 310 308 306 305 302 299 298 296 295 295 293 293 294 293 291 290 290 291 292 291 289 287 287
307 306 303 304 304 300 299 300 301 302 302 303 304 306 306 306 306 306 304 304 302 300 299 297 296 295 294 294 293 293 293 291 291 291 292 293 293 293 289 288 287 287 287
301 300 299 303 300 297 297 298 299 299 299 298 298 299 299 300 300 300 299 297 296 295 294 294 293 293 294 294 295 293 292 292 293 292 292 290 287 287 287 288 288 288 287
299 298 299 302 297 295 295 295 295 296 296 295 294 294 295 294 294 294 293 294 294 293 293 292 293 292 292 293 294 295 294 293 293 292 288 285 285 285 286 286 287 287 287
297 296 296 295 294 294 295 294 294 294 294 294 294 294 293 292 292 292 292 291 292 292 293 293 294 294 293 293 294 294 293 292 287 284 284 284 284 284 284 284 285 286 286
296 294 293 292 292 294 295 294 294 294 293 293 293 293 293 293 292 292 291 291 291 292 292 292 293 292 292 291 290 286 284 284 284 284 284 284 284 283 284 285 285 285 285
295 295 294 293 293 293 294 294 294 294 293 293 293 292 292 292 292 292 291 292 292 292 292 292 291 291 290 289 285 285 285 284 284 284 284 284 283 283 285 285 285 285 284
295 295 294 294 293 293 294 294 294 294 293 293 293 292 292 292 292 292 292 292 292 291 290 290 289 288 288 288 286 285 285 284 284 284 284 282 283 284 285 286 284 283 282
296 295 295 294 294 293 293 292 292 292 292 292 292 292 293 293 292 292 292 291 290 288 285 286 286 286 286 286 287 286 285 284 284 283 283 283 283 285 285 284 283 282 282
295 295 295 294 293 293 293 291 291 292 293 293 292 292 292 291 291 291 290 287 284 284 284 283 284 284 285 285 285 285 285 284 283 283 283 283 284 283 282 281 281 282 282
296 295 295 294 293 293 292 291 291 292 292 292 291 292 292 290 288 285 285 284 284 284 283 283 282 281 281 281 282 283 284 283 284 283 283 282 281 279 278 279 280 279 279
296 295 294 294 293 293 293 292 292 292 291 289 288 286 285 285 284 284 284 284 283 283 282 281 280 280 281 282 283 283 283 283 282 282 281 279 278 277 278 279 279 279 279
295 295 294 293 292 293 293 292 291 290 287 286 286 285 285 284 284 283 283 282 281 281 281 281 281 281 281 282 283 283 282 282 281 281 279 277 277 277 278 279 279 279 278
292 292 293 292 292 292 291 290 291 289 287 286 285 284 284 284 284 284 284 284 284 283 282 282 282 281 282 282 282 282 281 280 280 278 276 276 276 277 277 277 277 278 278

GFSMW_925_thetae_051.txt.gz
Theta_e
310 311 312 312 313 314 315 315 315 315 331 339 337 338 336 334 335 336 336 336 336 332 328 327 328 328 331 330 329 324 316 309 306 302 300 299 300 300 300 300 301 300 299
309 307 306 307 309 311 312 314 314 314 315 332 334 336 336 335 335 336 337 335 337 335 333 329 326 327 328 328 330 324 314 307 306 303 302 305 301 299 299 300 300 300 299
305 305 305 304 305 307 308 309 311 313 314 318 332 336 335 335 335 334 333 334 335 335 336 333 330 325 326 327 329 324 320 307 303 304 306 304 309 300 297 298 298 299 298
303 305 308 308 308 309 308 307 308 309 311 313 328 333 332 333 333 333 332 333 332 333 334 334 331 328 323 325 327 327 321 314 307 301 304 303 303 304 302 295 296 297 297
305 308 308 309 310 310 311 311 310 308 309 310 316 331 332 331 333 333 332 333 332 332 332 332 332 330 326 325 325 325 318 315 310 307 305 299 298 299 299 299 295 294 295
307 308 308 310 311 311 311 310 309 310 310 309 311 321 331 332 332 332 332 332 332 332 330 329 330 329 328 327 325 323 321 315 310 311 312 304 300 297 296 297 294 296 293
307 309 309 309 310 311 310 312 312 311 310 311 311 310 317 330 331 331 330 330 328 326 329 330 328 328 327 323 322 320 317 314 308 310 310 307 303 302 298 298 294 293 291
306 308 308 309 309 310 310 311 311 312 311 310 310 311 312 312 318 328 329 329 329 329 327 326 326 327 326 321 318 316 314 312 308 308 307 303 301 300 300 296 294 292 290
308 309 309 309 308 308 309 309 309 310 310 310 310 312 313 313 313 313 315 319 324 327 327 326 322 321 320 318 316 312 309 309 308 307 303 301 298 297 296 295 294 295 293
312 311 310 309 308 308 307 307 307 308 309 311 311 312 313 314 315 315 314 314 317 322 324 324 321 319 317 315 312 309 311 312 306 302 300 297 294 293 295 295 292 291 290
313 310 309 308 307 306 305 305 306 307 308 310 311 312 313 314 315 316 316 316 317 319 320 320 318 316 314 312 310 308 305 304 300 296 295 294 293 292 291 290 291 291 291
311 309 307 306 306 303 302 302 303 304 304 306 308 311 312 311 311 313 313 313 315 315 316 316 314 311 309 308 306 303 298 297 294 293 293 291 291 290 291 291 292 292 291
308 304 303 301 304 300 300 301 300 300 301 303 305 307 308 309 309 310 310 311 311 311 310 310 308 304 303 301 298 297 294 293 292 292 292 291 292 291 290 292 292 291 289
303 301 299 299 301 298 298 298 298 299 299 302 302 302 302 304 304 303 303 304 304 303 301 301 299 297 296 295 294 294 293 292 292 293 294 292 292 293 292 290 289 287 286
301 298 298 300 298 296 295 295 296 297 297 297 296 296 296 298 298 297 297 297 296 295 294 294 293 293 293 292 292 293 294 293 292 292 292 293 292 290 289 287 288 288 287
299 298 296 295 295 295 294 294 295 295 295 294 294 294 294 294 294 294 294 294 293 293 293 293 293 293 293 294 295 295 294 293 293 292 291 288 286 286 287 287 288 287 287
297 295 294 293 294 293 294 294 294 294 294 294 294 293 293 292 292 292 293 293 293 293 294 294 294 294 294 294 294 294 293 292 291 288 285 285 284 284 284 283 285 285 286
296 295 293 293 293 294 295 295 295 294 294 294 293 293 292 292 291 291 291 291 292 292 292 292 292 292 291 291 292 290 287 285 284 284 284 284 284 284 284 284 285 285 285
295 295 294 293 293 294 294 294 294 294 294 293 292 293 292 291 291 291 291 292 292 292 292 292 291 289 288 287 286 285 284 284 284 284 284 284 283 282 285 286 285 285 284
295 295 295 294 294 294 294 294 293 293 293 292 292 292 292 291 291 291 291 290 291 290 290 289 289 288 287 286 285 285 285 284 284 284 283 282 284 285 286 286 284 283 282
295 295 294 294 293 293 293 292 292 292 292 292 292 292 292 292 292 291 291 291 290 289 288 287 287 286 286 288 287 285 284 284 283 283 283 283 284 285 285 284 282 282 282
295 295 294 294 293 292 292 291 291 292 292 292 292 292 292 291 292 292 290 286 284 283 283 284 284 285 286 285 285 285 285 284 283 283 283 283 283 282 281 281 281 282 282
296 295 294 294 292 292 291 291 291 292 292 292 291 291 291 288 286 285 284 284 284 283 282 282 281 281 281 282 284 284 284 283 283 283 283 281 280 279 278 279 280 280 279
295 295 295 294 293 293 293 292 292 293 292 291 287 285 285 284 284 284 284 284 283 283 282 281 280 281 281 283 283 283 282 282 281 281 281 278 278 277 278 279 279 279 278
295 295 295 294 293 293 293 294 293 291 287 285 285 285 284 284 283 283 282 282 281 282 281 281 281 281 282 283 283 283 282 282 281 280 278 277 277 277 277 278 278 278 278
295 294 294 294 293 293 292 292 291 288 287 285 284 284 284 284 284 285 285 284 284 283 282 282 282 282 282 282 282 281 281 280 280 277 276 276 276 276 277 277 277 278 278

GFSMW_925_thetae_054.txt.gz
Theta_e
316 314 313 313 314 314 316 316 317 318 325 335 339 338 338 338 337 338 338 336 335 334 333 331 330 330 330 331 329 325 318 314 312 308 307 305 303 303 303 305 305 304 303
313 311 310 309 310 311 313 314 315 316 318 325 333 337 338 338 338 335 335 335 335 333 333 332 331 330 330 330 330 325 319 316 310 313 313 313 307 303 302 303 303 303 302
312 314 314 312 311 311 310 310 311 313 314 316 324 332 334 336 336 335 334 334 334 334 333 333 332 330 330 329 329 326 319 317 310 311 317 316 319 307 303 302 302 302 302
314 314 314 314 313 313 313 312 310 310 311 313 316 325 332 333 333 332 333 335 333 332 332 331 332 331 329 328 328 325 321 319 312 307 306 306 309 310 307 299 300 300 300
315 316 315 314 315 314 313 313 312 312 310 310 312 317 327 329 330 331 332 333 334 331 330 330 330 330 329 327 326 323 320 321 319 312 306 304 303 302 307 308 299 297 297
316 316 315 315 315 314 314 314 314 314 312 312 311 313 318 326 329 331 332 333 333 332 330 328 329 329 328 326 325 322 319 319 320 313 310 308 308 307 305 308 302 300 295
316 316 316 315 314 314 313 313 313 313 313 313 312 312 312 317 326 328 330 331 332 331 329 328 327 327 327 326 324 322 317 318 317 315 311 310 310 309 305 306 301 298 293
316 316 315 314 313 312 312 312 312 312 312 313 313 313 313 314 314 318 324 327 328 329 329 327 326 326 326 324 323 321 318 316 315 315 311 308 311 310 305 301 298 297 293
317 315 314 313 312 312 311 310 310 310 311 311 313 314 314 315 315 315 315 318 322 324 326 327 324 325 324 323 321 318 316 314 314 313 310 305 308 306 302 299 299 300 295
317 314 313 312 311 311 309 309 309 310 310 311 312 313 314 314 314 316 317 317 317 319 322 322 323 321 323 322 319 316 315 313 311 309 305 304 303 297 295 295 295 295 294
316 312 311 309 311 310 307 307 307 307 307 308 309 311 312 312 312 311 312 313 315 317 317 319 318 318 319 318 316 314 313 310 308 305 303 299 297 295 294 294 294 294 294
313 309 308 307 309 307 306 306 305 305 305 305 307 308 309 310 311 311 311 311 312 312 313 314 314 315 314 313 311 310 308 306 301 297 294 293 293 293 291 292 293 293 294
309 307 306 306 307 305 304 303 303 302 302 302 304 305 305 306 305 304 306 306 307 308 308 309 308 308 307 307 304 303 299 296 295 293 292 291 291 291 292 293 293 293 292
306 304 306 306 304 302 301 300 300 300 300 300 300 300 300 300 299 298 300 301 301 301 300 298 297 297 296 297 296 294 293 292 292 292 292 292 293 293 292 292 291 290 289
305 303 303 303 302 300 300 299 299 299 299 299 298 297 296 295 296 296 296 296 296 296 294 294 293 293 293 292 293 292 292 292 293 293 293 293 293 292 292 291 289 288 288
303 301 300 300 300 300 299 299 298 298 297 297 296 295 294 294 293 293 294 294 294 294 293 293 293 293 293 293 293 293 294 293 292 291 291 291 290 289 288 289 289 289 288
301 300 298 298 298 298 298 299 297 296 297 297 296 295 294 292 292 292 293 293 294 294 294 295 295 295 294 293 293 294 293 292 291 290 288 286 286 285 284 285 286 286 286
300 299 298 297 297 297 298 296 296 296 296 295 295 294 292 292 292 292 292 292 292 292 292 292 292 291 291 292 292 292 291 288 285 285 285 285 285 284 285 285 285 286 286
299 298 296 295 296 296 295 295 295 295 295 293 293 292 292 291 291 291 291 291 292 291 290 289 289 288 287 287 285 285 285 284 284 284 284 284 283 283 285 286 286 286 286
298 298 297 295 295 295 296 295 294 294 293 293 292 292 292 292 291 291 291 291 290 290 289 288 288 287 287 286 285 285 285 285 285 284 283 283 284 285 286 287 286 285 284
298 297 296 296 295 295 295 294 293 292 292 292 292 292 292 292 291 291 291 291 290 289 288 286 286 288 289 287 286 285 285 285 284 284 284 284 284 285 284 284 284 283 283
297 297 297 295 294 294 293 293 292 292 292 292 292 292 291 291 291 290 288 286 285 285 285 285 285 285 286 286 286 285 285 285 284 284 284 284 283 282 281 281 281 282 282
298 297 296 294 293 292 293 292 291 292 292 292 291 291 288 287 286 285 285 285 285 285 285 284 284 283 282 284 284 284 284 284 283 283 283 281 280 279 279 279 281 281 281
297 297 297 296 294 294 293 293 292 293 292 290 288 286 285 285 285 285 285 285 285 285 284 283 283 283 283 284 284 283 283 283 282 282 281 279 278 278 279 279 280 280 280
296 297 298 297 294 293 293 292 293 291 289 287 286 285 285 285 284 283 283 283 282 282 283 282 282 283 284 284 283 283 283 282 282 281 279 278 279 279 280 280 280 280 280
296 296 298 297 295 295 294 292 290 288 287 286 285 285 285 286 286 286 286 285 284 283 283 282 282 282 283 283 282 282 281 280 280 279 278 278 279 279 280 280 280 280 280

GFSMW_925_thetae_057.txt.gz
Theta_e
317 318 316 316 316 317 318 319 319 319 320 325 334 341 339 338 337 340 340 340 338 337 335 334 333 332 332 332 331 330 327 322 320 316 311 310 309 307 307 308 308 308 307
317 315 313 313 312 313 315 316 318 318 319 320 324 335 338 337 337 337 337 339 339 338 336 335 334 333 332 332 331 331 328 323 319 315 314 316 310 307 306 305 307 307 306
314 316 316 315 314 315 314 313 313 315 317 318 319 323 334 336 338 339 338 336 336 337 337 336 335 334 333 332 332 331 329 324 318 315 319 321 320 309 306 304 305 305 305
316 316 316 316 316 315 316 315 314 312 313 314 316 318 323 331 334 334 335 335 335 333 333 335 335 334 334 333 332 332 330 325 320 313 316 318 314 315 307 304 304 304 304
317 317 317 317 317 317 316 316 315 314 314 312 313 315 317 322 329 331 332 331 332 334 333 331 332 332 333 332 332 331 331 325 322 314 314 312 308 308 313 307 302 301 302
318 318 317 317 317 317 316 316 316 316 315 314 314 313 314 316 322 327 329 330 332 333 334 332 329 329 329 331 331 330 330 326 323 319 316 313 312 308 307 313 306 302 300
318 318 317 316 316 315 315 315 314 315 315 315 315 314 314 314 316 320 325 328 329 331 332 330 329 328 327 328 328 329 328 326 323 323 317 316 314 316 312 314 304 303 296
318 318 316 315 315 314 314 313 313 313 313 314 315 315 315 315 315 316 317 322 326 327 328 330 329 326 326 327 327 327 326 324 322 322 322 317 314 313 311 310 303 299 294
318 317 315 314 314 313 312 312 312 313 313 313 314 315 316 316 317 317 316 316 317 319 321 324 328 326 324 325 326 326 325 323 320 320 320 317 311 310 306 308 305 305 300
318 315 314 313 313 313 311 310 310 310 311 311 312 313 314 314 315 315 316 317 318 319 319 319 323 323 322 322 323 324 322 320 319 317 316 314 309 305 303 301 303 304 300
317 314 312 311 312 311 310 309 309 308 308 308 309 311 312 312 313 314 314 313 313 314 315 317 318 318 318 318 319 320 319 318 315 314 313 307 303 301 300 297 295 296 297
314 311 310 310 311 309 309 308 307 306 306 305 307 308 308 309 308 307 308 310 310 311 311 312 313 314 314 314 315 315 313 312 309 306 303 300 297 296 294 294 295 295 295
311 309 309 309 309 307 306 305 305 304 304 304 304 304 304 304 303 302 301 301 302 303 303 303 304 305 306 307 307 306 304 303 300 298 296 293 293 293 293 294 294 295 295
309 308 309 308 307 305 304 303 304 303 303 302 302 301 300 299 298 297 297 297 298 297 297 297 298 297 297 298 297 298 296 295 293 293 293 293 293 293 294 294 294 292 292
309 306 306 306 305 304 304 303 303 302 301 301 300 298 298 297 296 295 295 295 294 294 294 295 295 295 295 294 295 295 294 293 291 291 292 293 293 294 293 292 291 290 289
307 305 303 303 303 303 302 302 301 300 300 299 299 297 296 295 295 294 294 295 295 295 294 294 294 294 294 294 293 292 292 292 292 292 291 291 291 290 290 290 289 289 289
306 304 302 301 301 301 301 301 300 299 299 298 297 296 295 294 292 292 293 293 293 294 294 294 294 294 294 292 291 292 292 291 290 289 288 287 287 286 286 286 286 287 288
304 303 301 300 300 300 300 299 298 298 297 296 295 295 293 292 291 292 292 292 292 291 291 291 291 290 289 291 292 291 289 289 288 287 286 286 285 285 285 286 286 286 286
303 301 300 298 298 299 298 298 296 295 295 294 293 292 292 291 291 291 291 291 291 290 289 289 289 288 287 287 287 287 286 286 285 285 285 285 284 284 286 287 287 287 287
301 301 299 298 298 297 297 297 296 294 294 293 292 292 291 291 291 291 291 290 290 289 289 288 288 288 287 287 286 286 286 286 285 284 284 283 285 286 286 286 286 286 285
301 300 299 298 297 297 296 295 294 292 292 292 292 292 292 291 291 291 291 290 290 288 287 288 289 289 288 287 287 286 285 285 285 285 284 284 285 285 284 284 283 283 283
300 299 299 297 297 296 294 293 293 292 293 293 292 292 292 291 291 290 289 288 288 287 287 287 286 286 286 286 286 286 285 285 285 284 284 284 283 282 281 281 281 282 283
299 299 299 296 295 294 294 293 292 292 293 292 292 291 291 289 288 287 287 287 287 287 286 286 285 284 284 284 284 284 284 284 283 283 283 282 281 280 280 280 281 281 281
299 299 298 296 295 295 294 294 293 293 292 293 291 288 287 287 286 286 286 287 287 286 285 284 284 284 284 285 285 284 284 283 283 283 282 280 279 279 279 280 281 281 281
299 299 299 298 296 295 294 294 293 292 293 290 288 287 287 286 285 285 285 284 283 284 284 284 283 284 284 284 283 283 283 282 282 281 280 279 279 280 280 281 281 281 281
298 298 299 298 297 296 295 293 292 293 289 288 287 286 286 287 288 287 286 285 284 283 283 282 282 283 282 283 282 282 282 281 280 279 279 279 279 280 280 281 281 281 281

GFSMW_925_thetae_060.txt.gz
Theta_e
315 317 317 316 316 316 317 318 319 319 320 321 326 341 341 340 339 337 339 341 340 338 336 335 332 332 331 331 332 331 330 328 324 321 316 312 311 310 310 309 310 311 311
315 313 314 314 313 313 313 315 316 318 319 319 320 325 337 340 340 337 335 338 340 340 338 336 334 333 332 331 331 332 330 329 325 319 312 309 310 309 308 308 308 309 310
313 314 314 315 315 316 315 314 313 313 315 317 318 319 320 339 337 336 335 335 336 338 339 338 336 334 333 332 331 332 330 328 324 321 314 314 313 307 308 307 307 308 308
313 314 315 316 316 316 316 316 315 314 312 313 314 316 317 320 334 336 338 338 338 336 334 334 337 336 335 334 333 332 331 329 323 320 317 319 316 309 305 306 306 306 307
314 315 316 317 317 317 316 316 316 316 314 314 312 312 314 316 317 320 330 333 334 333 334 333 330 333 334 334 334 333 332 330 326 319 316 315 316 311 308 303 303 304 305
316 315 317 317 316 316 315 315 315 315 315 315 314 314 313 313 314 316 321 328 330 331 331 332 333 331 329 330 332 332 331 331 329 322 317 316 316 312 308 310 303 302 302
315 316 315 315 315 315 314 313 313 314 314 314 315 315 314 314 314 314 316 320 324 328 329 330 329 330 329 328 328 328 329 330 330 327 319 316 316 316 312 310 307 303 298
315 315 315 314 314 314 313 312 312 313 313 313 314 314 315 316 316 316 316 316 316 318 319 321 327 327 328 327 326 326 327 328 328 328 323 319 316 315 315 313 310 300 296
316 315 315 314 313 313 311 311 311 311 311 312 313 314 315 315 315 315 316 317 318 318 318 318 319 322 326 325 323 324 325 326 326 326 324 323 321 316 314 312 311 310 303
316 313 313 312 312 312 310 310 309 309 309 309 310 311 312 313 313 314 313 313 313 313 315 317 318 318 320 321 320 320 322 324 325 324 322 321 319 314 311 308 306 307 305
314 311 310 310 312 310 309 309 307 307 306 306 307 308 308 308 309 308 308 309 309 310 311 311 313 314 315 315 315 316 317 319 320 319 318 317 313 307 304 302 302 302 302
311 309 309 309 310 309 307 306 305 304 304 304 304 304 304 304 303 302 302 303 304 306 306 307 309 310 311 312 313 313 314 314 314 312 310 306 303 301 299 299 298 298 298
309 308 308 308 307 306 305 304 304 303 303 302 302 301 300 300 299 299 298 299 301 301 301 301 302 302 302 303 305 305 306 307 304 304 303 302 300 297 296 295 295 294 295
309 306 307 307 306 304 304 303 303 302 302 301 300 298 298 297 297 297 297 296 297 297 297 297 297 297 297 297 298 298 298 297 297 297 296 295 295 295 294 294 294 293 293
308 305 304 304 305 304 303 303 302 301 300 300 298 297 296 295 295 295 296 295 295 295 295 295 295 295 294 294 294 294 293 293 292 292 293 292 293 293 294 293 292 292 291
307 304 303 303 303 302 302 302 300 300 300 299 297 296 295 294 294 294 295 295 295 295 295 295 294 294 294 293 291 292 291 291 291 291 291 291 291 291 291 291 290 290 289
306 303 302 300 301 301 301 300 299 299 298 297 296 294 293 292 292 293 293 293 293 293 293 293 292 292 292 291 292 293 292 291 290 290 289 289 288 288 287 287 288 288 288
304 302 301 300 300 300 299 298 298 297 296 295 294 292 292 291 292 292 292 292 292 291 291 290 290 290 290 291 292 292 291 290 289 288 287 286 285 285 286 286 286 286 286
301 301 299 298 298 298 298 297 296 295 294 293 292 291 292 291 292 291 291 290 290 290 289 289 289 288 288 288 287 287 286 286 285 285 285 284 285 286 287 286 287 287 286
301 300 299 298 298 297 297 296 295 294 294 293 292 291 291 292 291 291 290 289 289 288 288 288 288 287 287 288 287 286 286 285 285 284 284 285 285 286 286 285 285 285 284
301 300 299 298 297 297 296 295 293 293 292 292 292 292 292 292 292 291 289 289 287 288 289 289 288 288 287 287 287 287 285 285 285 284 284 284 285 284 284 283 282 282 283
300 300 298 297 297 296 295 293 293 293 293 293 292 292 291 291 291 290 288 288 287 287 287 286 286 286 285 286 286 286 285 285 284 284 284 284 283 282 282 281 281 282 283
300 299 298 297 295 294 294 293 293 293 293 293 292 292 291 289 287 287 287 287 287 286 286 285 284 284 284 284 285 284 284 284 283 283 282 282 281 280 279 281 281 281 281
299 299 297 296 294 294 294 294 293 294 294 293 291 289 287 287 287 286 287 287 286 285 284 284 284 284 284 285 284 284 283 283 282 282 281 281 280 280 280 280 280 281 281
300 299 298 296 295 294 294 294 294 294 293 292 288 287 287 286 286 285 285 284 284 284 284 283 283 283 284 284 283 283 282 282 282 282 280 279 279 279 280 281 281 281 281
300 299 299 298 296 295 295 295 294 294 292 288 287 287 286 286 287 286 285 285 284 283 282 282 282 283 283 283 283 282 282 282 281 280 279 279 279 279 279 280 280 281 281

GFSMW_925_thetae_063.txt.gz
Theta_e
313 314 315 314 315 315 316 317 317 318 321 339 341 340 340 340 338 339 340 339 339 339 336 335 334 333 332 332 332 331 330 329 329 324 319 316 315 312 312 312 310 312 314
310 312 313 312 312 313 313 313 315 316 317 318 319 334 339 340 340 339 338 337 336 336 339 336 335 334 332 332 331 331 331 330 328 323 313 309 310 310 310 311 310 310 312
311 311 313 315 315 315 314 314 313 313 314 314 315 317 317 334 337 339 339 338 336 332 331 336 336 335 334 332 331 331 331 329 328 325 319 310 310 307 311 310 309 309 309
312 313 314 315 316 316 316 316 315 314 314 313 312 313 314 315 319 328 334 335 334 336 335 334 334 332 333 333 333 332 331 330 327 324 320 318 315 308 308 307 308 308 308
312 313 315 316 316 316 316 315 316 315 315 315 314 313 312 312 313 315 316 321 332 334 334 334 333 332 331 331 333 333 332 330 329 325 323 317 316 312 307 308 306 306 306
313 314 316 315 315 314 314 314 313 314 314 314 315 314 314 313 313 313 313 315 318 326 330 331 331 331 331 330 329 328 330 331 330 328 324 321 319 317 309 309 305 305 304
312 312 313 313 314 313 313 312 312 313 313 313 313 314 314 314 314 315 316 315 316 317 318 321 326 328 329 328 328 327 327 327 327 327 327 321 318 318 316 312 307 305 301
313 312 312 312 313 312 311 311 311 311 312 312 313 314 315 315 315 315 315 316 316 316 317 317 318 320 326 327 326 325 324 324 324 324 325 324 319 318 316 315 313 303 298
313 312 311 312 312 311 310 310 309 309 309 309 311 311 312 313 313 313 313 313 314 314 315 316 317 318 322 326 327 324 321 321 321 322 323 323 322 319 316 314 314 313 311
312 311 310 310 312 310 310 308 307 306 306 307 308 309 310 310 311 311 311 310 310 310 311 311 312 313 316 317 317 317 318 317 318 320 322 322 320 317 316 313 310 309 308
310 308 308 309 311 309 308 306 305 305 304 305 305 306 306 306 306 305 305 305 305 307 308 308 308 309 310 312 313 313 313 314 314 316 317 317 313 310 308 306 305 304 305
308 306 307 308 308 307 305 304 304 303 303 303 303 302 302 302 302 302 302 303 304 304 304 305 306 306 307 308 309 309 309 310 310 309 309 307 305 304 303 303 302 302 301
307 305 306 306 305 304 304 303 303 302 302 301 300 300 299 299 298 298 299 299 299 300 301 302 303 302 303 302 304 304 304 303 302 301 300 299 300 299 298 299 298 297 297
307 305 305 305 304 303 303 303 302 301 300 300 298 297 297 296 296 296 296 296 296 297 297 297 297 297 297 297 297 297 298 297 296 296 295 295 295 295 294 294 294 294 295
306 304 304 302 302 302 302 301 301 300 299 298 297 296 295 295 295 296 295 296 295 295 295 295 295 294 294 294 295 295 294 293 293 293 293 293 293 292 293 293 292 292 292
306 303 302 302 301 301 301 300 300 299 298 296 295 295 294 294 294 294 294 294 294 294 294 294 293 293 293 292 292 293 292 292 292 292 292 292 292 292 291 291 290 290 290
304 302 301 300 300 301 300 299 298 298 297 296 294 293 292 293 293 293 293 293 292 292 292 291 292 292 292 292 292 292 292 291 290 290 290 290 290 290 289 288 287 288 289
303 301 299 299 299 299 299 298 297 297 295 294 293 293 292 292 292 292 292 292 290 289 290 290 291 291 291 290 290 290 290 289 287 286 285 284 284 285 285 286 286 286 286
300 299 299 298 298 298 297 297 295 295 294 293 292 292 292 291 292 291 291 289 289 289 289 288 288 288 288 288 287 286 285 285 284 284 285 285 285 287 287 286 286 286 285
300 298 298 298 298 297 297 295 295 294 293 292 292 292 292 292 291 290 289 288 289 288 288 287 287 287 288 288 287 285 285 284 284 284 284 286 286 286 285 284 284 284 284
300 299 298 297 297 297 296 295 294 293 293 292 292 292 292 292 291 289 289 288 288 289 289 288 287 287 286 287 287 286 285 284 284 284 284 284 285 284 283 283 281 282 283
300 299 297 296 296 296 296 294 293 293 292 292 292 292 292 292 291 289 288 287 287 287 286 286 285 285 285 285 286 285 285 284 283 283 283 282 283 282 282 282 282 282 282
299 299 297 296 295 295 295 293 293 293 293 292 292 291 291 291 288 287 287 287 286 286 285 284 284 283 284 284 285 285 285 284 283 283 283 283 282 280 280 280 281 281 281
299 299 296 295 295 294 294 294 293 293 293 293 292 291 289 287 287 287 286 286 286 285 284 283 283 283 284 284 284 283 282 282 282 282 281 280 280 280 280 280 280 281 281
299 299 297 296 295 294 294 294 294 293 294 293 291 288 287 286 286 286 286 285 285 285 284 284 283 283 283 283 284 283 283 283 282 282 279 279 279 279 279 280 280 281 281
300 298 298 297 295 294 294 295 295 294 294 292 288 287 287 286 286 285 286 285 284 283 283 282 282 282 283 283 282 282 282 282 282 281 278 278 278 279 279 279 279 280 280

GFSMW_925_thetae_066.txt.gz
Theta_e
310 312 313 314 314 314 315 316 317 322 334 340 340 339 339 339 340 339 340 340 339 338 336 335 335 334 333 332 331 330 328 328 328 327 324 321 318 316 315 314 314 312 312
309 310 310 312 314 313 314 313 314 314 316 319 331 338 339 339 339 339 337 337 336 336 336 335 335 335 334 333 332 331 331 330 328 325 315 316 317 317 317 315 312 312 311
310 310 312 314 314 314 314 314 313 313 313 313 314 316 319 327 336 334 335 336 338 338 336 334 331 333 335 333 332 331 330 329 328 327 325 313 316 309 315 316 313 311 311
310 311 313 315 315 315 315 315 315 315 314 314 313 312 312 314 317 321 325 330 333 334 334 334 334 334 334 332 332 332 330 329 327 325 324 323 316 311 312 311 311 309 309
311 312 313 315 315 315 315 314 314 314 315 314 314 313 312 312 312 312 313 314 317 323 332 335 334 332 331 331 331 330 331 331 328 327 326 322 317 312 311 320 310 308 310
311 312 314 315 314 314 314 313 313 313 313 313 314 314 314 313 313 313 314 314 314 319 323 327 331 332 332 331 330 329 329 328 328 328 328 324 320 318 315 311 310 308 310
311 311 311 312 313 312 312 311 312 312 312 313 313 314 314 314 314 315 315 315 315 316 317 318 320 324 327 328 329 329 328 327 326 325 325 325 324 323 321 318 317 308 306
310 311 311 312 312 311 311 310 310 310 310 311 312 313 314 314 314 314 314 314 314 314 314 315 317 318 320 325 326 327 326 323 322 322 322 323 323 323 321 318 315 306 301
311 311 310 311 311 310 309 309 308 307 308 309 310 311 311 311 311 311 311 311 311 311 311 312 313 315 317 320 321 322 324 320 319 318 318 318 319 319 319 317 315 314 312
311 309 309 310 310 309 308 307 306 306 305 306 307 307 307 307 307 308 308 307 307 307 308 308 308 310 312 314 315 315 315 314 315 315 314 315 316 317 316 312 312 312 312
310 308 307 309 309 308 306 306 305 305 304 304 304 304 303 303 304 304 304 304 304 305 305 305 306 307 308 309 309 310 310 311 311 311 312 311 308 308 307 306 305 305 307
308 305 306 308 307 305 304 304 303 303 303 302 302 301 301 301 302 301 301 301 302 303 303 303 304 304 304 305 306 306 306 307 306 305 306 304 303 302 300 300 300 300 301
306 304 304 305 304 303 303 303 302 302 301 301 300 299 299 299 298 298 298 299 299 299 299 299 299 299 299 300 300 301 302 301 300 299 299 299 299 297 297 297 296 296 296
306 304 303 303 303 302 302 302 301 301 300 299 298 298 297 296 296 296 296 297 296 296 296 296 296 295 296 296 297 298 297 297 296 295 295 295 295 294 294 294 294 294 294
306 304 303 301 301 301 301 301 300 300 299 298 297 296 295 296 296 296 295 295 295 295 295 294 293 293 293 293 294 294 294 293 293 293 293 293 293 293 293 293 293 293 292
306 304 302 301 300 301 300 300 300 299 298 297 295 294 294 295 294 294 294 294 294 294 294 293 293 293 293 293 292 293 293 292 292 292 292 292 292 292 291 291 290 290 289
305 303 301 301 300 300 300 299 299 298 297 296 295 294 293 293 293 293 293 293 292 292 292 292 292 293 293 292 292 292 292 291 290 290 290 289 288 287 287 286 286 287 288
303 301 300 299 300 300 299 298 298 297 296 295 294 293 293 292 292 293 292 291 290 290 291 291 292 291 290 289 288 288 287 286 285 284 284 284 285 287 287 286 286 286 286
301 300 300 299 299 299 298 297 296 295 295 294 293 292 292 292 292 291 290 289 289 289 288 288 288 288 288 288 285 285 284 284 284 285 286 285 286 287 286 285 285 286 285
300 299 299 298 298 297 297 296 295 294 293 293 292 292 292 292 291 291 289 288 287 287 287 287 287 288 288 288 286 284 284 284 284 284 284 285 286 285 285 283 282 283 283
299 298 298 297 297 297 296 295 294 294 293 293 292 292 292 292 292 290 289 289 289 288 287 287 286 286 286 287 287 286 284 284 283 283 283 283 284 283 283 283 281 282 283
299 298 297 296 296 296 295 294 294 293 293 292 292 292 292 292 291 288 288 288 288 287 286 285 285 284 284 286 286 286 285 285 283 282 282 283 283 282 282 281 282 283 282
299 298 297 296 296 295 295 294 294 293 293 292 292 292 292 292 291 288 288 287 286 286 285 285 283 283 284 284 285 284 285 284 283 282 283 282 282 281 280 280 282 282 281
298 298 296 295 294 295 294 294 294 293 293 292 292 291 291 291 288 286 286 286 286 285 284 283 283 283 283 284 284 283 282 282 282 282 282 280 279 279 280 280 280 280 281
299 298 296 295 295 294 294 294 294 293 293 293 292 292 290 288 287 286 286 286 285 285 284 284 283 283 283 283 284 283 283 283 283 283 280 279 279 279 279 279 280 280 280
300 298 297 296 296 295 295 294 294 294 293 293 292 291 288 287 286 286 286 284 284 284 283 283 282 282 282 283 283 283 283 283 283 282 280 278 278 278 278 279 279 279 280

GFSMW_925_thetae_069.txt.gz
Theta_e
310 311 311 313 314 315 317 322 333 339 340 341 340 339 339 340 340 340 339 339 339 337 335 335 334 333 330 330 329 328 327 327 327 327 326 327 327 325 324 320 318 316 315
309 308 311 311 313 313 314 315 315 316 318 327 338 339 339 339 339 339 339 338 337 337 337 336 335 334 334 333 333 330 328 328 327 325 319 321 323 324 325 322 319 317 315
309 309 311 313 313 313 314 314 313 313 313 313 315 318 324 330 334 336 336 336 336 337 337 336 335 335 334 332 333 332 330 328 329 328 326 318 318 312 322 322 322 319 316
308 310 311 313 314 314 314 315 314 314 313 314 313 312 313 314 317 321 321 322 324 328 332 335 335 334 334 333 332 333 332 330 327 327 325 325 321 317 319 316 315 312 311
308 310 312 314 315 314 314 314 314 314 313 314 314 313 312 311 311 311 312 313 314 315 319 325 332 334 334 332 331 331 331 330 329 327 326 325 321 318 313 321 317 317 317
309 310 313 314 313 313 313 313 313 312 313 313 313 313 313 313 312 313 314 314 314 316 318 321 325 330 332 333 332 331 329 328 328 328 327 325 322 319 316 315 315 314 315
309 310 310 311 312 312 311 311 311 311 312 313 313 313 314 314 314 314 314 314 315 315 315 316 318 319 323 327 328 329 329 328 327 326 325 324 323 323 322 319 319 314 311
309 310 310 311 311 310 310 310 309 309 310 311 312 312 313 313 313 313 312 312 312 312 312 313 314 315 317 320 325 325 326 326 324 322 320 319 318 319 319 319 318 312 305
309 309 309 310 310 310 309 309 308 307 308 309 309 309 309 310 310 309 309 309 309 309 309 309 309 311 313 316 318 319 320 320 318 317 316 316 315 315 315 316 315 315 315
310 309 308 309 309 309 308 307 306 306 306 306 306 306 306 305 305 305 305 305 305 305 306 306 307 307 308 310 311 313 313 313 312 311 310 309 308 308 309 310 310 310 309
310 308 307 309 309 307 306 305 305 304 304 304 303 303 303 303 302 302 302 303 303 303 304 304 304 305 306 307 307 308 308 308 307 305 305 306 306 307 306 305 304 304 304
308 306 306 308 307 306 305 304 304 304 303 302 302 301 301 301 301 300 300 300 301 300 301 301 301 301 302 303 304 304 304 304 304 303 304 302 302 301 302 301 301 300 300
307 304 303 305 305 304 303 303 302 302 301 301 300 299 299 299 298 298 298 298 298 298 298 299 298 298 298 299 299 300 300 299 299 299 298 297 297 297 297 296 296 296 296
307 304 303 303 303 302 302 302 301 301 300 299 298 298 297 296 296 296 296 296 296 297 296 296 295 294 295 296 296 296 295 295 295 294 294 294 294 294 294 294 294 294 294
306 304 304 302 302 301 301 301 300 300 299 298 297 296 295 296 296 296 295 294 294 293 294 293 293 293 293 293 294 293 293 292 292 292 292 292 293 293 292 292 292 292 292
307 304 303 302 301 301 301 300 300 299 298 297 296 295 295 295 295 294 294 294 294 293 293 293 293 293 293 292 293 293 292 292 292 291 290 290 291 291 291 290 290 290 289
307 304 302 301 301 301 301 300 299 298 297 296 295 295 294 294 294 293 293 293 292 292 293 293 293 292 292 291 291 292 291 289 287 285 284 285 286 286 285 286 286 286 287
305 303 301 301 301 301 300 299 298 297 296 295 295 294 293 293 292 292 292 291 291 292 292 291 290 288 288 287 285 284 284 284 284 284 284 285 287 288 286 285 286 286 286
302 302 302 300 300 300 299 298 297 296 295 295 294 293 293 292 292 291 290 289 290 290 289 288 288 288 288 287 285 284 284 284 284 285 286 286 286 286 286 284 283 284 285
302 300 299 299 299 298 298 297 296 295 295 294 294 293 292 292 291 290 289 289 288 287 287 287 287 287 288 288 286 284 284 284 283 283 283 284 285 285 284 283 282 281 282
299 299 298 298 298 297 297 296 295 295 294 294 293 292 292 292 292 289 288 287 287 287 287 286 286 285 285 287 287 286 284 283 283 283 282 282 283 284 283 283 282 282 283
298 298 297 297 297 297 296 295 294 295 294 293 292 292 292 292 291 289 288 288 288 288 286 285 285 284 284 286 286 286 286 285 284 282 282 282 283 284 282 281 282 283 282
299 298 298 297 296 296 296 295 294 294 294 292 292 292 292 292 290 288 288 287 286 286 285 285 284 283 284 284 284 284 283 283 283 282 283 281 281 281 280 280 282 282 281
299 298 297 296 295 295 295 295 294 294 293 292 292 292 292 291 291 288 287 287 287 286 285 284 283 283 283 283 284 283 282 282 282 283 282 280 279 279 279 279 280 280 280
300 299 297 296 296 296 295 294 294 294 293 292 292 291 291 291 290 287 286 286 286 285 285 284 284 283 283 283 283 283 283 283 283 283 282 280 279 278 278 279 279 279 280
301 299 298 297 296 296 295 295 294 294 293 292 291 291 291 291 288 287 286 285 285 285 285 284 283 283 283 282 284 284 283 283 283 282 281 280 279 278 278 278 278 278 279

GFSMW_925_thetae_072.txt.gz
Theta_e
310 310 311 312 314 316 320 326 334 338 339 339 338 338 338 338 338 337 337 338 338 338 336 334 334 334 335 335 333 330 327 326 326 326 326 327 327 327 327 328 327 326 324
309 307 309 311 312 313 315 317 320 324 327 334 339 339 339 338 338 338 339 339 338 338 337 337 337 335 334 333 332 330 329 328 327 325 322 322 325 326 327 327 326 325 321
307 307 309 311 312 313 313 313 313 314 314 314 317 322 328 334 336 337 336 336 335 336 336 337 337 336 335 334 334 332 331 328 328 327 326 323 322 316 324 326 325 324 321
306 307 310 311 313 313 314 314 314 313 313 313 313 312 312 313 315 319 322 320 319 322 325 329 333 335 335 334 333 333 332 330 327 327 327 325 323 320 322 320 323 322 322
305 307 310 312 313 313 313 313 313 313 313 314 313 313 312 311 311 311 311 312 312 313 315 319 322 327 331 332 333 332 330 330 328 327 327 325 323 321 316 322 319 319 320
305 308 312 313 312 312 312 312 312 312 312 313 313 313 313 313 312 312 313 313 313 314 315 317 318 321 326 330 331 331 330 330 329 327 326 324 322 319 317 314 315 317 317
307 308 309 310 311 311 311 311 311 311 312 312 313 313 313 313 313 313 313 313 313 314 314 314 315 316 318 321 325 327 328 328 327 326 324 321 322 321 320 320 318 316 315
307 309 309 310 310 310 310 310 309 309 310 311 311 312 312 312 312 311 311 310 310 311 311 311 311 312 314 316 319 321 322 322 322 321 321 318 317 316 316 316 316 315 309
308 308 308 309 309 309 309 309 308 308 308 308 309 309 309 309 309 308 308 308 307 307 307 307 308 308 309 312 315 318 318 318 318 317 315 314 312 311 311 312 312 311 312
308 307 307 308 309 309 308 307 306 306 306 306 306 306 306 305 305 304 304 304 304 304 305 305 305 306 306 308 309 311 313 313 313 312 310 308 307 307 307 308 308 308 307
308 307 306 308 308 307 306 306 305 305 304 304 303 303 303 303 302 302 302 302 302 303 303 303 303 303 304 304 305 306 306 306 304 303 304 304 303 305 306 305 305 305 303
308 306 306 307 306 305 305 304 304 303 303 302 302 302 301 301 300 300 299 299 300 300 300 300 301 301 301 301 302 302 301 301 301 300 300 299 299 299 299 300 300 300 300
307 305 304 304 304 304 303 303 303 302 301 301 300 300 299 299 298 298 297 297 297 298 298 298 298 298 298 298 298 298 298 297 296 296 296 295 295 295 295 295 295 295 295
307 304 302 303 304 303 303 302 302 301 300 300 299 298 297 296 297 296 296 295 295 296 295 295 294 294 295 296 295 295 294 294 294 294 294 294 293 293 292 293 294 294 294
306 304 303 302 303 302 302 301 301 300 299 298 297 297 296 296 296 296 295 294 294 294 293 293 293 293 292 293 292 292 292 292 292 292 292 293 293 293 292 291 291 290 290
307 305 303 302 302 301 301 301 300 299 298 297 297 296 296 295 295 295 294 294 293 293 293 293 293 292 292 291 293 293 292 291 291 289 289 289 288 289 288 288 288 289 289
307 305 303 303 302 302 301 300 300 299 298 297 296 295 295 294 294 294 293 293 293 293 293 293 293 291 290 289 290 289 287 285 284 284 285 287 287 286 285 285 286 286 287
307 304 303 303 303 302 301 300 299 298 297 296 295 295 294 293 293 292 292 292 292 292 291 290 288 288 288 286 284 284 284 284 285 285 285 286 287 287 285 283 285 285 286
305 304 304 303 302 301 300 299 298 297 296 295 295 294 293 293 292 291 291 291 291 291 289 288 288 287 287 286 284 284 284 284 284 284 286 286 285 286 285 283 282 282 284
303 302 301 301 300 300 299 298 297 296 295 295 295 294 293 292 292 291 291 290 290 288 287 288 288 287 288 288 285 284 283 283 283 283 283 283 285 285 284 284 282 281 282
300 300 300 300 299 299 298 297 296 295 295 294 294 293 293 292 292 290 289 289 287 287 286 286 286 285 286 287 287 286 284 284 283 282 282 282 284 284 284 283 281 283 283
298 298 298 298 298 298 297 296 295 295 295 294 293 293 292 292 291 290 288 287 287 287 286 285 285 284 285 285 286 287 286 285 283 282 282 282 283 283 283 281 282 283 283
299 298 298 297 296 296 296 296 296 295 294 293 293 293 292 292 292 290 288 288 288 287 286 285 284 283 283 284 284 284 283 283 283 282 283 281 280 280 280 280 282 281 280
299 299 297 296 296 296 296 296 295 294 294 293 293 292 292 292 291 290 288 287 286 286 285 285 284 284 283 283 283 283 283 282 282 283 283 281 279 279 279 279 279 280 280
301 300 299 297 297 296 296 295 295 294 294 293 293 292 292 291 291 289 287 287 287 287 286 285 284 283 283 283 283 283 283 283 283 284 283 281 280 279 279 278 279 279 279
301 300 299 298 298 297 296 296 295 294 294 293 292 292 292 292 290 290 288 286 286 285 285 285 285 284 283 283 282 285 284 284 284 283 281 280 279 278 278 278 278 278 278

GFSMW_925_thetae_075.txt.gz
Theta_e
312 310 310 311 323 324 329 336 337 338 338 339 338 337 337 337 336 336 335 334 335 337 336 336 335 334 333 334 334 334 332 329 329 325 327 327 328 327 327 327 327 327 326
311 310 309 310 311 313 316 322 329 335 338 338 338 338 338 338 338 338 338 338 338 337 337 337 337 337 336 335 334 331 328 327 329 327 324 328 327 326 326 326 325 326 325
312 309 309 310 311 312 313 314 317 319 321 325 331 335 336 336 336 336 336 336 336 336 336 336 336 336 335 335 335 333 331 328 329 328 326 328 328 319 325 324 325 324 323
308 308 309 310 311 312 313 313 313 313 313 313 312 312 313 314 315 318 321 322 319 320 322 324 327 330 332 332 332 333 332 330 328 327 326 325 323 324 324 322 323 323 322
309 308 309 311 312 313 313 313 313 313 313 313 313 313 312 311 310 310 311 311 312 312 314 315 317 319 322 328 328 331 331 330 327 326 326 326 323 321 320 322 321 320 319
308 307 309 312 312 311 312 312 312 312 313 313 313 313 313 312 311 312 312 313 313 313 314 314 316 317 319 322 326 328 328 329 328 327 324 324 323 320 318 317 317 319 319
307 309 311 310 310 310 311 311 311 312 312 312 312 313 313 312 312 312 312 312 312 312 312 312 312 313 314 317 320 324 325 326 325 326 324 323 322 322 321 320 319 319 315
307 310 311 310 309 309 310 309 310 310 311 311 311 312 312 312 312 311 311 311 311 310 310 310 310 310 311 313 316 318 320 322 322 322 321 320 319 318 316 314 315 315 313
308 310 309 309 308 309 309 309 309 309 308 309 309 309 309 309 309 308 308 307 307 306 306 306 307 307 308 309 312 316 316 317 317 317 316 316 314 313 311 310 310 311 312
309 309 309 308 308 308 308 307 307 307 307 307 306 306 305 305 304 304 304 304 303 303 304 304 305 305 306 306 308 310 312 312 311 310 310 309 308 308 307 307 307 307 307
310 309 308 307 307 307 307 306 306 306 305 304 304 304 303 303 302 302 302 302 302 302 302 303 303 303 304 304 305 306 306 305 304 305 305 305 304 304 305 304 303 303 303
309 308 307 306 305 305 305 305 304 304 303 303 302 302 301 301 301 300 300 300 300 300 300 300 301 301 301 301 302 302 302 302 301 301 301 300 299 299 298 298 299 299 299
308 307 306 305 304 304 304 304 303 303 302 302 301 300 300 299 299 299 298 298 298 298 298 298 298 298 298 299 298 298 298 297 296 296 296 295 296 294 295 296 295 296 295
309 307 305 305 304 304 303 303 302 302 301 300 300 299 298 297 297 297 296 295 296 296 295 294 295 296 295 294 295 295 295 295 295 294 294 293 293 293 293 293 294 294 294
309 307 305 304 303 303 303 302 302 301 300 299 298 298 297 297 297 296 296 295 295 294 294 293 292 292 292 293 294 294 294 293 293 293 293 293 293 293 292 291 291 291 290
309 307 305 303 303 303 302 302 301 300 299 298 298 297 296 296 296 295 295 294 294 294 294 293 292 292 291 292 293 293 292 291 290 291 290 290 289 288 289 288 289 289 288
309 307 305 304 303 303 304 302 301 300 298 298 296 296 296 295 295 294 294 293 293 293 293 293 292 292 291 290 289 288 287 286 285 285 286 287 287 285 284 285 285 287 287
308 306 305 304 304 304 302 302 300 299 298 296 296 295 295 295 294 293 293 293 293 293 292 291 289 287 288 285 284 284 284 284 285 285 286 286 286 287 284 283 284 285 285
306 306 306 305 304 303 302 300 299 298 297 296 296 295 295 294 293 292 292 292 292 291 290 288 288 287 287 286 284 284 284 284 284 285 286 285 285 286 285 283 282 281 283
305 304 303 303 302 301 300 299 298 297 296 296 295 295 294 293 292 292 291 291 291 290 287 288 287 287 287 286 284 283 283 283 283 282 282 283 285 285 285 283 281 281 283
300 301 301 301 301 300 299 298 297 296 297 296 295 294 294 293 292 291 291 291 290 287 287 287 286 286 287 288 287 285 284 283 283 282 282 282 284 285 284 283 281 283 283
298 299 299 299 299 299 299 298 297 297 296 295 294 294 293 292 292 291 290 289 288 287 286 285 285 285 285 286 287 287 286 284 283 282 282 282 283 283 282 281 283 284 283
298 299 299 298 297 298 298 297 297 296 295 294 294 293 293 292 291 291 288 287 286 286 286 285 284 284 284 284 285 285 284 283 283 282 283 282 281 280 280 280 282 281 280
299 299 298 297 297 297 297 297 297 296 295 294 293 293 292 292 291 291 290 287 287 287 286 285 285 284 283 283 283 284 283 283 282 283 283 282 280 279 279 279 279 280 280
300 299 299 298 298 298 297 297 296 295 294 294 293 293 292 292 291 291 290 288 288 287 286 286 285 284 284 284 283 283 283 283 283 283 283 282 280 279 279 279 279 279 279
302 302 301 300 301 300 298 297 296 295 294 293 293 293 292 292 292 291 290 287 287 287 286 286 285 285 284 283 283 283 284 285 284 284 283 281 280 279 279 278 278 278 278

GFSMW_925_thetae_078.txt.gz
Theta_e
318 316 313 313 325 329 333 338 339 340 341 341 340 340 341 340 340 339 339 338 336 335 335 337 337 337 336 335 335 335 335 334 333 332 332 332 331 329 329 328 327 327 326
320 317 315 312 314 323 324 328 334 337 339 340 340 340 340 340 340 339 339 338 338 338 338 338 338 338 337 336 335 334 333 332 331 332 332 332 327 326 327 326 325 324 323
321 317 315 314 314 315 315 317 320 324 328 333 333 336 337 336 337 338 337 334 336 336 335 335 335 334 333 334 334 333 332 332 332 330 331 331 328 327 326 325 323 322 320
320 314 312 314 314 315 315 314 314 315 317 319 318 321 325 326 323 323 324 325 326 324 324 325 326 327 329 331 330 330 330 330 331 329 329 328 326 327 326 324 323 322 322
322 316 313 312 314 315 315 314 314 313 312 313 313 314 314 313 312 312 313 313 312 312 313 314 315 316 319 322 324 326 328 329 328 328 327 326 326 323 324 325 324 322 320
319 316 313 313 314 314 313 314 314 313 313 313 313 314 314 313 314 314 315 315 314 313 313 313 314 315 317 318 322 324 324 326 327 328 327 327 325 324 322 321 321 320 319
320 318 314 314 313 313 313 313 314 313 313 313 313 313 313 314 314 314 314 313 313 312 311 312 312 312 313 314 316 321 323 324 325 326 325 324 323 323 322 321 321 319 318
319 317 314 314 314 313 313 312 313 312 312 312 311 311 311 311 310 310 310 309 309 308 309 309 309 309 309 310 313 319 319 320 322 322 322 322 321 321 319 317 316 316 315
311 310 312 314 313 313 312 311 311 311 310 309 309 308 308 309 308 308 308 306 306 305 305 306 306 306 307 307 309 313 314 315 317 318 316 316 314 313 312 311 311 312 314
310 311 313 313 312 312 310 310 310 309 308 307 306 306 306 306 306 305 304 304 304 304 304 304 305 305 305 306 306 308 310 310 309 310 310 309 307 307 306 306 307 307 309
311 312 312 312 311 310 309 309 308 307 306 305 304 303 303 303 302 301 301 301 301 301 302 302 303 303 303 303 303 304 305 306 305 305 304 303 304 304 304 304 303 304 303
312 313 313 311 309 309 308 308 307 306 305 303 302 302 300 300 300 299 299 299 299 299 299 299 299 299 300 300 300 300 301 301 301 301 301 300 300 300 299 299 299 299 299
314 314 313 312 311 309 308 307 306 306 303 302 302 301 300 300 299 298 298 297 297 297 297 297 297 297 297 297 297 298 298 298 298 298 298 297 297 297 297 297 298 298 297
314 314 314 313 311 309 308 307 306 304 302 301 301 301 300 300 299 297 296 296 296 296 296 296 295 295 294 295 297 296 295 295 294 295 295 295 295 295 295 295 294 295 297
315 314 314 313 311 309 308 306 305 303 301 301 300 300 300 299 298 297 296 296 296 295 295 295 294 293 294 295 295 295 294 294 293 292 292 292 292 292 292 293 293 293 294
315 315 314 312 311 310 307 305 304 302 300 300 300 299 299 298 297 296 295 295 295 294 294 294 294 293 293 292 293 293 292 292 292 292 291 290 289 288 289 288 289 289 290
313 315 314 312 311 310 308 305 304 302 300 300 299 298 298 297 296 295 295 294 294 294 293 293 293 292 292 291 292 292 290 289 287 286 287 288 287 285 286 285 286 288 287
311 313 314 312 311 309 306 305 303 300 300 299 298 298 297 296 295 294 294 293 293 293 293 292 291 290 289 286 285 285 285 285 285 286 286 287 288 287 285 284 285 286 286
310 311 312 311 309 307 305 303 301 300 299 299 298 297 297 296 294 293 293 293 292 292 291 289 288 289 288 285 284 285 286 286 286 286 286 286 287 286 285 284 283 283 284
309 310 308 306 306 304 303 302 301 300 299 298 298 297 296 295 293 293 292 292 292 291 289 288 287 287 288 285 284 284 285 285 284 284 284 284 286 285 285 284 283 284 284
305 304 304 305 304 302 301 301 300 300 299 297 297 296 295 294 293 292 292 292 291 290 288 288 287 288 288 288 285 284 284 284 284 284 284 284 285 285 285 283 283 284 284
302 302 303 302 300 300 301 301 300 299 297 296 296 295 294 294 293 292 291 291 290 288 287 287 286 286 287 287 288 288 286 284 284 284 284 284 283 283 283 282 283 284 284
301 301 301 300 299 299 299 299 299 297 296 296 295 294 293 293 292 291 290 289 289 288 287 286 286 285 285 285 286 287 287 285 284 283 284 283 281 281 280 280 282 283 282
302 301 301 300 299 298 298 298 298 297 296 296 295 294 292 292 291 290 290 289 288 287 287 286 285 285 284 284 284 285 285 285 284 283 284 283 282 281 280 280 280 280 281
301 300 300 299 299 298 297 297 297 296 295 296 295 293 292 292 291 290 290 289 288 288 288 287 286 286 285 284 284 284 284 284 284 284 283 283 281 281 280 280 280 280 280
304 303 302 300 301 300 298 297 297 296 295 295 295 293 292 292 291 291 290 291 289 288 288 286 286 286 285 285 284 283 283 283 283 285 284 284 282 282 281 280 280 280 280

GFSMW_925_thetae_081.txt.gz
Theta_e
323 319 317 318 330 341 342 343 342 342 342 342 342 342 341 341 342 341 341 341 340 339 337 338 338 338 338 337 337 336 335 335 335 334 334 333 333 332 331 330 329 328 327
323 320 318 317 318 331 333 338 340 341 342 342 342 342 342 342 341 341 341 340 339 339 338 338 338 337 337 337 336 336 335 334 334 333 333 333 330 327 326 328 327 326 325
324 322 319 318 316 321 325 327 333 339 339 341 341 340 338 339 340 340 338 337 336 336 337 336 335 335 334 334 333 333 333 333 332 332 332 332 330 327 327 327 326 324 323
323 323 318 315 317 316 318 318 320 323 324 329 332 335 336 336 334 333 332 326 326 326 327 328 327 328 329 329 329 329 329 330 331 331 330 329 329 330 329 325 324 323 323
322 323 318 315 316 317 318 317 316 317 316 317 318 318 318 317 316 315 315 315 316 314 314 314 315 317 320 323 323 324 325 327 328 329 329 327 327 327 325 326 323 324 323
322 324 319 315 315 317 317 317 316 316 316 316 316 316 317 316 315 316 316 316 316 315 313 313 313 315 317 319 320 321 322 324 326 326 328 326 326 325 323 323 322 322 320
321 324 319 315 316 316 316 316 316 316 316 316 316 316 317 317 317 316 316 316 315 315 313 312 312 312 312 312 314 318 321 322 322 323 324 325 325 324 323 322 322 320 318
321 323 320 316 316 316 315 315 315 315 315 315 314 314 314 314 313 313 313 312 312 311 309 309 309 309 309 309 311 314 317 318 319 321 322 323 322 321 320 319 318 318 317
317 316 319 316 316 316 315 314 315 314 313 313 312 311 311 311 310 309 308 308 307 306 305 306 306 306 306 307 308 312 314 314 315 316 317 317 316 315 314 314 314 315 315
314 313 313 315 316 315 314 314 314 312 311 311 310 309 307 307 306 306 305 305 304 304 304 304 304 304 304 305 306 309 309 310 312 311 311 311 310 309 309 309 309 310 311
313 313 313 315 315 314 313 313 312 311 310 309 307 306 305 305 304 304 303 302 302 302 302 302 302 302 302 303 304 305 306 308 307 307 307 306 306 306 305 306 306 306 306
313 313 314 314 314 313 312 311 311 310 308 307 306 305 304 303 303 302 301 301 301 300 300 300 300 300 300 301 302 302 303 304 303 303 303 302 302 302 302 301 301 301 301
314 314 314 313 312 312 311 310 310 309 307 306 305 304 304 303 303 301 300 300 299 299 299 299 299 298 298 299 299 300 300 300 300 300 300 299 300 299 298 299 299 299 299
315 315 315 314 313 313 311 310 309 308 306 305 305 304 304 303 302 300 299 299 298 299 298 298 297 296 296 296 297 297 297 297 296 296 296 296 296 296 296 296 296 296 298
315 316 316 315 314 313 311 310 309 307 305 304 304 304 303 303 301 300 299 298 297 297 297 297 295 295 295 295 296 295 295 295 294 293 294 293 293 292 292 294 293 294 295
315 316 315 315 315 313 312 310 309 306 305 304 304 303 302 301 300 299 298 297 296 296 295 296 295 294 294 294 294 294 294 293 293 292 291 290 288 289 288 288 289 288 290
314 315 316 315 315 314 312 310 308 306 304 304 303 302 301 301 299 298 297 296 295 295 295 295 294 293 293 292 293 292 292 292 290 288 288 288 286 286 287 286 287 287 286
314 313 315 315 315 314 313 310 308 306 304 303 302 301 300 300 298 297 296 294 294 294 294 293 293 293 291 289 288 287 286 286 286 287 287 288 289 286 285 285 286 286 286
311 311 312 314 315 313 311 309 307 305 303 303 302 301 300 299 297 295 294 294 293 293 292 292 291 290 288 286 284 285 286 286 286 287 287 287 287 287 285 285 284 284 284
309 311 312 314 313 311 309 307 305 304 303 302 301 300 299 298 296 295 294 294 293 292 291 290 288 288 288 286 284 285 286 286 285 285 285 284 287 286 285 285 284 285 285
309 310 310 310 310 308 306 306 305 304 303 301 300 299 298 297 296 294 293 293 292 291 290 288 288 288 289 288 285 284 285 285 285 285 285 284 284 285 286 284 284 285 284
305 306 307 307 305 305 304 304 304 302 301 300 299 298 297 296 294 293 292 292 291 290 290 289 288 288 288 289 289 286 285 285 285 285 284 285 283 283 283 283 283 284 284
304 304 304 303 303 303 303 303 302 301 299 298 298 297 295 294 293 293 292 290 290 290 290 288 288 287 286 287 287 289 289 286 285 284 284 285 283 281 281 281 281 283 283
304 304 304 303 302 301 301 302 300 298 298 298 298 296 294 293 293 292 291 291 290 290 289 288 287 287 286 285 286 286 288 287 286 284 283 283 283 282 282 281 280 280 281
304 303 303 302 302 300 300 300 298 298 297 297 297 296 294 293 292 292 291 290 291 291 289 288 287 286 286 285 285 285 286 286 285 285 284 284 283 282 282 281 281 281 281
305 305 305 302 301 300 299 298 298 297 297 296 296 296 294 293 292 292 291 291 291 290 289 288 288 287 286 286 285 285 285 285 285 284 284 284 284 283 282 282 281 281 281

GFSMW_925_thetae_084.txt.gz
Theta_e
322 319 318 320 335 340 341 340 341 342 340 340 341 341 341 340 340 339 339 339 339 339 338 338 338 337 337 336 336 335 335 335 335 334 334 333 333 332 333 332 330 328 327
318 318 317 317 322 338 340 340 340 341 341 340 340 340 340 340 339 339 339 340 339 338 338 337 336 337 337 336 336 335 334 333 333 333 332 331 328 328 328 329 327 327 325
320 317 317 317 316 325 333 336 339 341 339 339 340 341 341 340 341 341 340 338 338 338 337 336 336 335 335 334 333 333 333 332 332 331 331 327 326 326 326 326 326 324 323
320 319 317 317 317 317 323 324 329 336 338 340 339 338 339 338 337 338 337 335 335 332 331 331 331 331 329 329 329 329 328 328 329 330 329 330 329 325 325 325 325 323 323
318 320 316 316 317 317 318 319 320 324 329 332 332 333 331 322 325 327 327 320 317 315 315 315 315 316 318 320 322 322 323 324 326 326 325 328 328 327 326 325 324 323 323
317 317 317 315 317 317 317 317 316 316 317 318 317 317 317 316 315 315 315 316 316 316 314 312 313 314 315 316 317 318 319 320 321 322 322 324 327 325 325 323 323 322 321
316 317 314 314 317 317 317 317 316 316 316 316 316 316 316 315 316 317 316 316 316 315 314 312 312 312 312 312 312 313 317 320 319 319 321 322 323 325 324 323 321 321 319
315 316 314 315 316 317 316 316 316 316 316 316 316 316 315 315 316 315 314 314 313 313 311 310 309 309 309 309 309 311 316 317 316 316 317 319 321 321 321 320 320 317 316
313 317 316 315 317 316 316 315 316 315 315 315 314 313 312 312 311 310 310 310 309 308 307 307 306 306 306 306 307 309 312 313 313 314 314 316 316 316 316 316 315 315 313
314 310 312 315 316 316 315 314 315 314 313 312 311 310 310 309 309 308 307 307 306 305 305 305 304 304 304 305 305 307 309 308 309 311 311 312 311 311 311 311 311 311 310
311 310 310 314 316 315 315 314 314 312 311 310 309 308 308 307 306 306 305 305 304 304 303 303 303 303 303 303 304 305 306 307 306 307 308 307 307 307 306 306 307 307 307
311 310 312 314 314 314 313 313 312 311 310 309 307 306 306 305 305 304 304 303 302 302 302 302 301 301 301 301 302 302 303 304 304 303 304 303 303 303 303 303 303 303 301
313 311 311 312 313 312 312 312 311 309 308 307 307 306 305 304 303 303 302 302 301 300 300 299 299 299 299 300 300 300 300 300 300 300 300 300 300 299 299 299 299 299 299
313 311 310 310 312 312 311 311 310 309 307 306 305 305 304 303 303 302 301 300 299 299 299 298 297 297 297 297 298 299 299 299 298 298 298 297 297 296 296 296 296 297 298
313 312 312 310 312 311 310 310 309 308 306 305 305 304 304 303 302 301 300 299 299 298 298 297 297 295 295 296 297 297 297 296 295 295 295 294 294 294 294 294 293 294 295
311 312 312 312 312 312 311 310 308 307 306 305 304 304 303 303 301 300 299 298 297 297 297 296 296 295 294 295 295 295 295 294 294 293 291 290 289 289 290 290 288 290 290
311 310 312 312 313 313 312 310 308 307 305 304 304 303 303 302 301 299 298 297 297 297 296 295 295 294 293 293 294 294 294 294 292 289 288 287 286 286 286 288 288 288 288
312 310 311 314 315 314 312 310 308 306 305 304 303 302 302 301 300 298 297 296 296 296 295 295 294 294 292 291 291 292 291 289 287 288 287 288 288 286 285 285 286 286 285
308 308 310 311 315 314 313 310 308 306 304 304 303 302 301 300 299 297 296 295 295 294 294 294 293 292 290 288 285 285 285 285 286 287 287 287 288 286 285 285 284 284 284
308 309 311 311 314 314 312 309 307 305 304 303 302 301 300 299 298 296 295 294 294 294 293 292 291 290 288 287 285 286 286 286 286 286 286 286 287 286 285 285 284 285 285
306 309 310 311 312 311 310 307 306 304 304 303 302 301 300 299 298 296 294 294 293 292 292 291 289 288 289 288 286 284 285 286 285 285 284 284 284 285 286 284 284 285 285
305 307 306 305 307 307 307 306 305 304 303 302 301 300 299 298 296 295 293 293 292 291 290 290 289 289 288 289 288 285 285 285 285 285 284 284 284 283 284 283 283 284 284
304 305 304 304 304 304 305 304 303 303 302 300 299 299 298 296 294 293 293 292 291 291 290 290 289 288 288 288 289 290 289 287 285 285 284 284 285 282 282 281 281 284 283
303 303 303 302 302 302 303 303 302 301 300 299 298 298 296 295 294 293 293 292 291 290 290 290 289 288 287 286 286 288 289 289 288 285 284 283 283 283 282 282 281 281 281
303 303 303 302 301 301 301 301 301 300 299 298 298 297 296 295 293 293 293 292 292 292 291 290 288 287 287 286 286 285 286 287 286 286 284 284 284 283 282 282 281 281 281
305 305 304 302 301 300 299 299 299 298 298 298 298 297 296 294 294 293 292 292 292 292 292 290 288 288 287 287 286 286 285 286 286 286 285 284 284 284 283 282 282 281 281

GFSMW_925_thetae_087.txt.gz
Theta_e
320 320 326 333 339 341 341 342 342 341 340 340 339 339 339 337 338 339 339 339 339 339 338 338 337 337 337 337 336 336 335 335 335 334 332 330 330 329 329 329 332 331 328
317 316 319 321 330 339 340 341 341 340 340 339 339 338 338 338 337 337 338 339 339 339 338 338 337 335 335 336 336 336 334 333 331 331 330 328 327 327 327 327 328 325 324
316 314 315 318 321 333 339 339 340 339 339 339 338 339 338 338 338 337 338 339 338 337 336 336 336 335 334 334 334 333 332 332 329 329 330 327 324 324 326 326 325 324 324
315 314 314 315 317 326 332 336 337 339 338 338 338 338 336 336 337 337 337 338 337 336 337 336 335 334 333 331 330 329 328 327 327 326 328 330 329 326 323 324 324 323 323
314 315 314 316 316 320 326 326 331 337 337 339 337 336 336 336 335 336 335 334 334 331 324 320 318 318 318 319 321 321 320 322 323 324 324 323 323 327 324 321 323 323 320
314 313 316 316 316 317 321 323 322 323 328 332 334 335 334 329 328 327 326 322 316 315 314 313 312 313 314 315 316 317 318 318 319 320 321 321 322 323 323 321 321 322 318
313 313 312 313 317 317 317 318 319 318 318 319 319 322 322 319 317 315 315 316 316 315 314 313 312 312 312 311 311 312 313 317 319 319 318 319 321 323 324 323 321 320 319
310 312 312 313 317 317 317 316 316 316 316 316 316 316 316 315 315 316 316 316 315 314 313 311 310 310 309 309 309 309 311 316 317 315 315 316 317 319 321 322 321 317 317
310 312 311 313 316 316 317 316 316 316 316 316 316 316 315 315 315 315 314 313 312 311 310 309 308 307 307 307 307 307 309 313 313 312 313 313 315 316 317 317 318 317 314
309 309 310 313 315 316 316 315 316 316 315 315 314 313 312 312 311 310 310 310 309 307 307 306 306 305 305 305 305 306 307 308 309 309 311 311 311 312 312 312 312 312 312
308 308 309 313 315 315 315 315 315 315 314 313 311 311 310 309 308 308 307 306 305 304 304 304 303 303 303 303 304 304 305 306 307 306 308 308 307 308 307 308 308 308 308
309 308 309 313 314 314 314 314 314 313 313 312 310 310 309 308 308 305 305 303 303 303 303 302 302 302 302 302 302 303 303 304 305 304 304 304 304 304 304 304 304 304 304
310 309 309 310 312 313 313 313 312 311 310 309 309 308 307 306 305 305 304 303 303 302 301 301 300 300 300 300 300 300 301 301 302 302 301 301 301 301 301 301 300 300 300
310 308 308 309 311 312 312 312 311 310 309 308 307 307 305 304 304 303 303 303 301 300 299 299 299 298 298 298 298 299 299 299 299 299 299 299 299 298 297 297 297 298 298
310 309 308 307 310 311 311 311 310 309 308 306 305 305 305 304 303 303 302 301 300 299 298 298 298 297 296 296 297 298 298 298 297 297 297 296 296 296 296 295 295 296 297
310 310 310 308 309 310 310 310 309 308 307 306 305 305 304 303 303 302 301 300 299 298 298 297 297 296 295 295 296 296 296 295 295 294 294 292 291 291 291 291 291 292 294
308 308 309 310 310 310 311 309 309 308 307 306 305 304 304 303 302 301 300 299 298 297 297 297 296 295 295 295 295 295 294 294 293 292 289 286 287 287 289 289 289 289 289
306 307 307 311 311 311 311 310 309 307 306 305 304 304 303 302 301 300 299 298 297 297 296 296 295 294 294 293 293 294 294 293 291 288 288 287 286 285 286 286 286 286 286
305 305 307 309 312 312 311 310 308 307 306 305 304 303 302 301 300 299 298 296 296 296 296 295 294 294 293 291 290 290 289 287 287 287 287 288 288 286 285 284 284 285 284
304 306 308 310 309 312 311 309 306 306 305 305 304 303 302 301 300 298 297 295 295 295 295 294 293 292 291 289 288 285 286 286 286 287 287 287 287 286 285 285 284 284 285
304 305 307 308 310 310 309 306 305 305 306 305 303 302 301 300 299 298 297 295 294 294 293 292 292 291 289 287 288 287 286 286 285 285 285 285 286 286 286 285 284 285 285
304 304 304 304 306 307 308 306 305 306 304 304 303 301 300 299 298 297 296 294 293 293 292 291 291 289 288 288 289 288 287 285 285 285 285 285 285 284 285 285 284 285 285
303 304 303 303 304 306 307 305 304 304 303 302 301 300 299 298 297 296 295 293 292 292 291 290 290 289 288 288 289 289 287 287 285 285 285 284 285 283 283 282 283 284 284
302 303 303 302 302 303 304 304 303 303 302 301 300 299 298 297 296 295 294 293 292 291 291 290 290 290 288 288 288 290 291 290 289 285 285 285 284 283 282 282 283 282 282
302 302 302 302 301 302 302 303 302 302 301 300 299 298 297 296 295 294 293 293 293 293 292 292 292 290 288 288 287 286 288 289 289 288 285 284 284 284 283 282 282 281 281
304 303 302 301 300 301 300 300 300 300 299 298 298 297 297 296 295 294 293 293 293 293 293 292 292 291 290 288 287 286 286 286 287 288 286 285 284 284 284 283 282 282 282

GFSMW_925_thetae_090.txt.gz
Theta_e
319 323 336 337 339 341 339 339 340 342 342 340 340 338 341 340 337 335 337 336 337 337 337 337 337 337 336 336 336 335 335 335 334 332 330 329 328 327 327 327 329 329 330
319 317 322 333 338 340 340 340 339 339 340 339 339 340 340 339 336 336 337 339 337 337 338 337 338 337 336 335 336 335 335 333 330 330 329 326 326 327 326 326 326 327 325
317 316 315 318 327 338 340 341 341 340 340 340 339 339 338 337 336 336 336 336 338 338 338 338 337 336 334 333 332 332 332 331 329 328 328 328 324 323 325 325 324 323 322
314 314 314 315 317 329 339 340 340 339 339 340 340 339 337 337 336 335 336 337 336 337 336 335 335 335 333 332 332 331 330 328 327 327 326 326 329 327 324 323 323 321 321
313 314 313 317 318 319 333 338 339 339 339 338 338 338 337 336 336 335 335 334 333 333 330 334 334 331 329 327 323 322 322 322 322 323 323 322 322 322 323 323 321 320 318
312 311 316 316 316 316 324 331 334 337 337 337 337 337 336 335 333 334 333 331 329 329 327 318 313 313 313 313 314 315 316 317 317 318 320 321 320 320 321 320 320 318 313
310 311 311 311 314 314 321 323 327 331 332 333 334 334 334 332 333 331 330 325 322 318 315 314 313 312 312 312 312 312 312 313 316 318 319 318 318 319 321 321 321 321 311
309 310 310 311 314 315 318 318 319 321 322 326 322 325 326 324 324 322 318 317 316 315 314 314 312 311 311 310 310 310 310 311 314 317 316 315 315 316 317 321 321 318 316
308 310 309 311 314 315 317 317 317 318 318 317 317 316 317 316 315 315 315 315 315 314 313 311 309 309 308 307 307 307 307 310 313 314 313 312 312 314 315 316 317 318 316
309 308 309 310 314 315 316 316 315 315 315 315 316 316 315 315 315 314 314 313 311 310 308 307 306 306 306 305 305 305 306 308 308 309 309 311 312 311 312 313 313 314 314
307 306 308 311 313 315 316 316 315 315 315 315 315 315 314 313 312 311 310 310 309 308 307 306 305 305 304 304 304 304 305 305 307 307 306 307 308 308 308 309 309 309 310
307 307 307 311 313 314 314 314 314 315 315 314 314 311 313 311 310 311 310 308 306 306 305 305 304 303 303 302 303 303 303 304 305 305 304 305 304 305 305 305 305 305 305
310 307 308 309 311 312 313 313 313 313 313 311 311 310 307 307 308 309 307 305 305 304 303 302 302 302 301 301 300 301 301 302 303 303 303 302 302 301 301 301 302 302 302
308 307 307 308 311 312 312 313 313 313 312 311 309 307 306 305 305 305 306 304 303 302 301 300 300 300 299 299 299 299 299 299 300 300 300 300 300 299 299 299 299 299 299
308 308 307 306 309 311 312 312 312 311 311 310 308 307 307 306 304 303 303 302 301 300 300 300 299 299 298 297 297 298 298 298 298 298 298 297 297 297 297 297 296 297 297
306 308 307 307 308 309 311 311 311 310 309 309 308 307 305 304 303 302 302 301 300 300 299 298 298 297 297 297 296 297 297 297 296 296 295 295 294 294 293 293 293 295 296
306 306 305 307 309 310 310 310 310 309 308 308 307 305 304 303 302 302 301 301 300 299 298 297 297 296 296 296 296 296 295 295 295 294 292 289 288 290 290 290 290 290 290
305 304 304 305 308 310 310 310 309 308 307 306 305 304 304 303 302 301 300 299 298 298 297 297 296 295 295 295 295 295 294 294 293 292 288 286 286 286 287 287 287 286 286
303 304 304 306 306 308 310 310 308 308 306 306 305 304 304 303 301 300 299 298 297 297 297 296 296 295 294 294 293 293 293 293 291 288 288 288 287 287 285 285 285 285 284
303 303 304 306 308 308 309 309 307 306 305 306 305 304 304 303 302 301 299 297 296 296 296 295 294 294 293 292 290 288 289 288 287 287 287 287 287 288 286 284 284 284 285
303 304 304 304 306 308 308 307 306 305 307 306 306 304 303 303 301 300 298 297 296 294 294 294 293 292 292 290 289 287 286 286 286 286 287 287 288 288 287 285 284 284 285
303 304 303 303 304 306 306 305 305 306 306 306 304 303 302 301 300 299 298 296 295 294 293 293 292 292 291 289 289 289 287 286 286 285 285 285 286 287 287 286 284 286 285
303 303 303 303 303 304 305 304 304 305 305 304 303 302 301 300 299 298 297 296 294 293 292 292 291 292 290 288 289 290 289 288 286 285 285 285 285 286 286 286 284 285 286
302 302 302 302 302 304 305 305 305 305 305 303 302 301 300 299 298 297 296 295 294 292 291 291 291 291 291 289 288 290 290 289 288 286 285 285 285 285 284 283 284 284 284
302 302 302 301 301 302 303 303 303 303 302 301 300 299 299 298 297 296 296 295 294 294 293 292 293 292 291 291 289 288 289 290 290 289 285 286 285 284 283 283 282 283 282
302 302 301 302 301 301 302 302 302 302 301 300 299 298 298 297 296 296 295 294 294 294 293 293 293 293 293 292 290 288 287 287 289 289 288 285 285 284 284 283 283 282 282

GFSMW_925_thetae_093.txt.gz
Theta_e
324 326 334 337 339 338 338 337 336 335 337 337 338 338 337 335 338 337 336 336 336 336 335 334 334 335 336 335 335 335 334 334 334 333 330 328 327 326 326 326 326 326 328
318 317 321 332 336 339 339 338 338 338 338 337 332 335 337 337 339 338 337 337 336 336 336 336 336 336 336 335 334 334 334 332 330 330 329 324 325 326 325 325 325 326 326
316 317 315 325 333 336 338 339 339 339 339 339 338 339 338 337 338 336 335 336 337 336 336 336 336 337 336 335 333 332 331 330 330 328 328 326 322 321 324 324 323 322 321
314 314 315 315 322 333 336 337 337 337 337 338 338 339 338 337 338 336 336 337 336 334 334 333 335 336 335 333 332 330 330 330 329 328 327 326 326 324 322 322 321 321 319
312 314 314 316 318 319 321 334 337 336 336 337 337 337 337 337 337 335 335 335 334 333 333 333 333 332 331 332 331 329 326 325 323 322 323 323 322 322 321 318 318 319 317
312 311 314 316 317 318 318 319 333 336 335 335 337 337 336 336 335 334 333 331 329 329 328 327 326 321 317 314 313 314 315 316 317 317 318 320 320 318 318 316 320 318 313
311 310 310 311 315 315 317 317 326 333 335 335 335 334 333 333 332 331 331 325 324 324 323 318 314 312 312 312 312 312 312 312 313 315 317 318 319 318 319 318 319 318 311
308 308 308 310 313 314 315 316 323 328 331 331 330 331 331 331 330 329 327 323 320 318 316 314 313 312 311 311 310 310 309 309 311 312 316 317 315 314 315 317 318 317 314
307 309 309 309 312 314 315 315 320 321 322 324 324 324 325 325 326 326 325 324 320 315 314 313 312 310 309 308 308 307 307 307 309 311 314 314 312 311 313 314 315 317 317
307 305 307 309 310 312 313 315 317 318 318 318 319 319 320 319 319 319 315 315 314 313 311 310 309 308 308 307 306 306 306 306 307 308 309 309 310 311 311 311 312 313 313
306 305 305 310 311 313 314 315 315 315 315 315 315 315 315 314 315 315 315 313 312 310 309 309 307 306 306 305 304 304 304 305 305 306 306 306 307 308 308 308 309 310 310
307 305 305 308 311 312 313 315 315 314 314 314 314 314 313 312 312 312 311 313 315 314 312 308 306 304 304 304 303 303 303 303 303 305 305 305 304 305 305 304 305 305 306
307 306 306 307 309 311 313 314 314 314 314 314 313 312 311 310 309 308 309 309 308 307 305 305 305 303 302 302 301 301 301 301 302 303 303 303 302 302 302 302 302 302 302
306 306 305 306 309 311 312 313 313 313 314 313 312 311 309 309 308 307 306 306 305 305 304 303 302 302 301 300 299 299 299 300 300 300 300 300 300 300 299 299 299 299 300
305 305 306 305 307 309 311 312 312 312 312 311 311 310 309 307 306 306 306 305 304 302 301 301 300 299 299 298 298 297 298 298 298 298 298 298 298 298 297 297 297 298 298
305 304 305 306 307 308 310 310 311 311 311 310 310 309 307 305 306 306 304 302 301 300 300 300 299 298 298 297 297 296 297 297 297 296 296 296 295 295 295 295 295 295 297
305 304 304 303 305 307 309 310 310 310 310 309 309 307 306 306 305 303 302 301 300 300 299 298 298 297 297 297 297 296 296 296 296 295 294 293 292 292 291 291 291 291 293
304 304 303 304 305 306 306 309 309 309 309 308 307 306 305 304 303 302 301 300 299 299 298 298 297 297 297 296 296 296 295 295 294 294 293 289 287 287 288 287 287 286 287
302 303 304 304 304 305 307 306 308 308 307 307 306 306 304 303 302 302 301 300 299 298 297 297 297 296 296 295 294 294 294 293 293 292 289 287 286 286 286 286 286 285 285
304 303 304 304 304 306 306 306 306 306 306 307 306 306 305 304 303 302 300 299 298 298 297 296 296 296 295 294 293 292 293 292 292 289 287 287 288 288 287 284 285 284 284
304 304 303 303 304 305 305 305 305 304 308 307 306 305 304 304 303 302 300 299 298 297 296 295 295 295 294 293 292 290 287 288 287 286 286 287 288 289 288 285 284 284 285
303 304 303 303 304 305 304 304 304 307 305 306 306 305 304 303 302 301 300 298 297 296 294 294 293 293 292 292 291 290 288 286 286 286 286 286 287 289 288 287 284 285 285
303 303 302 302 303 304 304 304 304 304 304 305 304 304 303 302 302 300 299 297 296 295 294 293 292 293 292 292 290 289 290 289 287 285 285 285 285 287 287 287 285 286 287
303 303 302 301 301 303 303 304 303 303 304 303 303 302 302 300 300 299 298 297 295 294 293 292 292 293 292 292 290 289 290 291 289 287 285 285 285 287 286 285 286 285 285
304 302 301 301 301 302 302 303 303 303 303 303 302 301 300 299 298 298 298 297 296 296 294 293 293 293 292 293 293 290 289 290 289 288 287 285 286 286 285 284 283 283 283
304 301 301 301 301 301 302 301 302 302 302 301 300 300 300 299 298 297 296 296 295 295 294 294 293 293 293 293 293 292 289 288 289 289 289 287 285 285 285 284 283 283 283

GFSMW_925_thetae_096.txt.gz
Theta_e
326 333 336 336 336 334 331 331 331 331 334 336 338 338 332 336 337 337 338 336 335 334 333 332 330 331 331 333 334 333 333 333 333 333 330 328 327 326 325 325 325 325 325
319 317 326 335 335 334 333 332 332 331 334 332 331 337 336 337 337 337 338 337 335 334 335 335 332 333 334 335 334 334 332 331 330 329 328 322 323 324 325 324 324 324 326
317 317 316 327 333 336 337 337 336 335 335 332 334 335 335 335 336 336 337 337 336 335 335 335 334 334 335 334 334 333 331 331 330 328 328 325 321 320 323 322 321 321 323
315 314 315 315 325 332 335 337 336 336 336 335 335 335 334 334 334 332 335 336 335 335 335 334 334 333 329 331 332 332 331 330 329 329 329 327 326 324 322 320 320 318 319
314 314 314 316 318 317 325 331 334 334 334 335 335 334 335 335 336 334 335 334 333 333 333 332 332 330 331 332 329 329 328 328 325 323 322 322 323 323 321 317 316 317 317
312 312 314 315 316 317 317 318 320 330 334 335 334 335 334 334 334 333 333 329 329 329 328 328 329 326 322 322 318 316 314 315 316 316 317 318 319 317 317 314 315 316 313
311 311 311 312 314 316 316 316 317 321 331 334 334 334 334 334 333 332 330 329 327 323 322 324 320 314 312 312 312 311 311 311 312 312 314 316 317 318 317 318 317 316 312
307 309 308 310 312 314 315 315 316 318 326 331 332 332 333 332 331 330 329 329 328 327 327 323 317 312 312 311 310 310 310 309 309 310 312 314 316 315 314 315 316 315 312
305 308 309 310 309 310 313 313 314 317 324 328 328 327 327 327 327 327 328 327 327 325 323 321 321 317 312 310 308 308 307 307 307 308 310 313 313 312 311 312 313 314 314
304 304 304 308 310 310 311 313 313 316 320 321 321 321 322 323 324 325 325 326 324 322 318 315 313 310 309 308 307 306 305 305 306 307 307 308 308 309 308 310 311 310 311
304 304 303 307 311 311 313 313 314 316 317 317 317 317 318 320 321 321 320 319 318 315 313 311 310 308 307 306 306 305 305 304 305 305 306 306 306 306 307 307 308 308 309
306 305 305 307 309 311 312 313 314 314 315 315 315 314 315 315 315 313 313 312 311 309 308 307 306 305 304 304 304 304 303 304 303 303 304 305 304 304 304 304 304 305 306
305 305 305 305 307 309 311 312 313 314 314 314 313 312 312 312 312 311 310 309 307 307 307 306 306 304 303 303 302 302 302 301 302 302 303 303 302 302 302 302 302 302 302
304 303 304 304 306 308 310 311 312 312 312 312 313 312 312 311 311 310 310 310 307 305 304 304 303 303 303 302 301 300 300 300 300 300 300 300 300 300 300 299 299 300 300
305 304 303 303 306 307 309 310 311 312 312 311 311 311 310 309 308 307 306 306 305 305 304 305 303 302 301 300 299 298 298 298 298 298 298 298 298 298 298 298 298 298 298
305 304 303 302 304 306 308 309 310 311 311 311 311 310 308 307 307 305 304 305 305 303 303 302 302 300 299 298 298 297 297 297 297 297 297 297 296 296 295 295 295 295 297
305 304 303 302 304 305 305 306 307 309 310 310 310 309 307 306 304 304 304 304 303 302 301 301 299 299 298 298 297 297 296 297 296 296 295 295 294 293 293 293 292 293 295
304 303 303 304 305 305 305 305 306 306 308 309 309 308 306 305 304 304 303 302 301 301 300 299 299 298 297 297 296 297 296 296 295 295 294 293 290 289 289 288 288 286 288
302 303 304 304 304 304 305 304 305 305 306 307 308 308 306 304 303 302 302 301 301 300 300 299 298 297 296 295 295 295 295 294 294 293 292 289 287 286 287 287 286 285 286
303 303 304 304 304 305 304 303 304 304 304 306 308 307 306 305 303 302 301 301 300 300 298 297 296 296 296 295 294 294 293 293 293 292 291 288 287 287 288 286 285 285 285
304 305 304 303 304 304 303 303 303 303 306 305 306 306 306 305 303 303 301 301 300 298 297 296 296 296 295 295 294 294 292 292 292 291 288 287 288 288 289 287 284 284 285
302 303 303 303 304 303 302 302 302 306 304 304 305 305 305 303 303 302 301 299 298 296 296 296 295 295 295 294 293 293 290 285 286 286 286 286 287 289 289 288 285 284 285
303 303 302 302 303 303 302 301 304 304 303 304 304 304 304 303 303 301 300 297 297 296 295 295 294 294 294 293 292 292 292 290 287 286 286 285 285 287 289 288 287 287 286
301 303 302 300 301 302 302 302 303 303 302 302 302 301 301 300 300 300 299 298 296 295 295 294 293 293 293 293 292 292 290 291 290 289 287 285 285 285 287 286 287 286 286
302 303 303 303 300 302 302 302 302 302 301 301 300 300 300 300 299 299 299 298 298 298 296 295 294 293 293 294 293 292 290 289 291 289 287 285 285 286 287 286 285 285 285
302 302 302 303 301 302 301 301 301 301 301 300 299 300 300 300 299 299 297 297 297 297 296 295 295 294 294 293 293 293 292 289 289 289 288 287 286 285 286 285 285 284 283

GFSMW_925_thetae_099.txt.gz
Theta_e
333 332 327 333 331 330 328 331 328 327 328 332 336 335 335 334 334 333 333 334 334 334 333 333 332 330 328 330 332 333 332 332 332 331 330 328 327 325 324 324 324 324 324
324 331 333 333 333 331 329 329 329 327 328 333 334 331 335 335 335 335 336 336 336 336 334 333 332 330 329 330 332 333 333 331 332 330 328 329 326 323 323 323 324 323 324
319 319 328 332 333 331 330 329 331 330 329 333 336 335 334 333 334 334 334 335 336 334 333 332 331 331 331 331 333 334 332 331 330 329 328 328 327 324 322 321 321 321 321
317 316 317 319 329 332 332 331 332 332 331 332 333 333 333 333 332 330 333 335 335 334 333 332 331 331 331 332 331 330 332 331 329 328 328 328 326 326 325 320 319 318 318
317 318 316 316 317 321 331 332 332 333 333 330 332 333 333 333 331 332 332 332 333 333 333 332 332 332 331 328 329 329 329 329 328 326 324 323 323 323 324 322 320 317 317
315 314 313 314 315 316 316 319 329 331 333 333 333 334 333 334 332 332 333 331 330 332 331 329 329 328 327 326 321 318 317 316 315 316 317 318 319 319 320 321 320 318 314
312 313 313 313 314 315 315 316 316 319 326 332 333 333 333 333 332 331 330 327 327 327 327 327 326 324 320 313 311 311 311 311 312 312 313 315 316 317 317 317 317 319 313
309 310 309 309 311 312 313 313 315 316 319 326 332 332 333 333 331 330 329 327 327 327 327 326 324 322 321 321 320 320 313 310 309 310 311 312 314 316 315 315 316 316 315
307 307 307 309 310 310 310 311 313 314 317 323 328 329 329 330 330 329 328 327 327 326 326 324 321 320 319 318 316 311 308 308 308 308 308 310 312 313 312 312 312 311 313
305 305 305 307 310 311 311 311 312 314 317 323 325 325 324 324 325 326 326 326 326 324 322 320 319 317 313 310 308 307 306 306 306 306 307 307 308 308 309 308 309 310 311
306 305 305 307 309 311 312 312 313 314 317 319 319 319 319 321 323 324 323 324 324 322 319 318 313 309 307 306 306 305 305 305 305 305 305 306 306 306 306 306 307 308 308
306 306 305 306 308 310 311 312 312 314 315 316 315 315 316 318 321 322 321 321 319 316 313 310 308 306 306 306 306 305 304 304 303 303 304 305 304 304 304 304 304 305 305
306 305 305 305 306 308 310 312 313 313 313 313 313 313 313 315 316 317 317 315 312 309 308 307 306 307 306 304 304 303 302 302 302 302 302 303 303 302 302 302 301 302 302
305 304 303 303 305 307 309 310 312 312 312 313 313 313 312 312 312 311 311 310 309 308 307 307 306 304 303 302 302 301 301 301 300 300 300 301 301 301 300 300 300 300 300
305 304 304 303 304 305 306 308 310 312 312 312 312 312 311 311 310 309 308 307 307 307 305 304 303 302 301 301 300 300 300 299 299 299 299 299 299 299 298 298 298 298 298
304 304 304 303 303 303 304 304 306 308 310 311 312 312 310 309 308 307 307 307 306 304 304 303 303 301 301 300 299 299 298 298 297 298 297 297 297 297 296 295 295 296 296
304 304 303 303 304 305 305 305 304 304 306 308 309 310 310 309 307 306 305 304 304 304 302 301 300 301 300 299 299 298 297 297 297 297 296 295 295 295 294 294 294 294 294
304 304 303 303 304 305 305 305 305 304 304 305 307 307 307 306 305 304 303 303 302 301 300 300 300 300 299 298 298 297 297 296 296 296 295 294 293 291 290 289 288 287 289
302 303 303 303 304 304 304 304 304 304 304 304 305 307 306 305 303 302 302 302 301 300 300 300 299 299 298 298 297 296 296 295 295 295 294 293 291 287 287 287 286 286 287
302 302 302 302 302 304 303 302 303 303 304 305 305 305 306 305 304 303 302 301 300 301 300 299 298 298 298 297 295 295 295 294 293 293 292 291 288 286 289 286 286 285 286
300 301 301 301 302 302 303 301 302 302 305 305 304 304 305 305 305 303 302 301 299 299 298 298 297 297 297 296 295 295 294 293 293 292 292 290 288 288 289 287 284 285 285
297 298 299 301 301 302 301 300 300 304 304 304 303 303 304 304 303 303 301 300 299 298 296 296 296 296 296 295 294 295 294 291 290 291 290 287 287 290 289 288 285 284 284
297 298 298 298 300 301 301 300 302 302 303 303 302 302 302 302 302 301 300 298 297 296 294 294 294 295 295 294 295 294 294 289 286 286 286 286 286 289 289 289 287 286 286
297 298 299 300 301 301 301 301 301 302 301 301 301 301 300 300 301 300 299 297 295 295 295 294 294 294 294 294 294 293 293 293 290 288 286 285 285 286 289 288 288 287 287
297 298 299 300 300 301 301 302 301 301 301 300 300 300 299 298 297 297 297 296 297 298 297 296 295 294 293 294 295 294 293 292 292 291 288 286 286 285 286 287 286 287 286
296 297 298 297 298 299 301 301 300 300 300 299 298 298 298 297 297 297 295 296 299 299 298 297 296 296 295 295 294 294 293 292 290 290 288 287 285 285 285 286 286 285 285

GFSMW_925_thetae_102.txt.gz
Theta_e
332 333 329 333 333 331 331 330 329 330 333 335 336 337 336 336 334 333 334 333 334 334 336 337 336 335 332 330 330 331 332 332 332 333 332 331 330 328 327 325 326 326 326
332 328 324 323 330 330 330 330 329 328 329 333 335 336 336 336 338 336 334 334 335 334 334 335 334 334 333 331 332 332 334 334 333 331 331 329 327 326 325 325 324 324 324
330 326 325 326 329 329 329 329 328 328 326 329 334 335 333 335 337 336 336 336 336 335 334 334 333 333 332 332 333 334 334 332 333 332 330 330 327 326 325 324 323 322 322
321 323 328 329 328 328 327 328 328 327 328 329 332 332 332 333 333 331 333 332 332 332 332 332 332 331 330 332 333 332 331 330 330 330 329 330 330 327 325 324 322 320 320
320 320 321 324 330 331 330 330 329 329 328 330 331 330 330 331 331 330 330 329 330 331 332 333 332 331 330 327 324 326 327 328 328 328 328 327 325 325 324 323 321 320 318
318 318 317 316 318 324 331 331 331 330 331 331 331 331 331 332 331 331 330 330 330 330 331 332 332 331 329 328 328 327 323 316 315 315 317 319 318 318 320 321 320 320 319
317 317 317 316 317 316 315 321 327 332 332 332 332 332 332 331 332 332 332 331 328 328 328 329 329 329 327 325 326 324 317 313 312 312 313 314 316 318 318 318 318 318 318
314 313 313 314 313 313 314 315 315 318 323 329 331 331 332 331 332 332 330 329 326 327 326 326 326 326 326 324 319 319 317 314 315 312 312 315 316 316 317 316 316 316 316
312 311 312 312 313 312 312 312 314 315 319 323 328 330 330 332 330 330 327 326 325 325 325 324 323 321 321 319 318 315 316 314 311 310 310 313 314 314 315 315 314 314 315
311 311 310 311 312 313 313 312 312 314 317 321 324 325 326 327 327 327 327 326 323 324 323 321 321 320 317 315 315 311 308 308 307 307 308 310 311 311 311 312 312 311 312
312 311 311 310 311 313 314 313 313 314 316 320 321 322 322 322 323 322 322 323 323 323 321 320 315 316 314 311 309 307 307 306 306 306 307 307 307 308 308 308 308 308 309
311 311 311 310 311 311 313 314 313 314 316 316 318 318 318 318 320 319 319 321 320 318 315 315 312 308 307 306 305 306 306 306 305 305 304 305 305 305 305 305 306 306 305
311 310 310 309 309 309 310 312 313 313 313 313 314 314 314 316 317 316 320 320 319 313 312 310 307 305 305 305 304 304 304 303 304 304 304 305 305 305 304 304 304 304 303
310 310 310 309 308 308 308 309 311 311 312 311 312 312 312 313 313 315 316 314 313 312 310 307 305 305 306 305 304 303 302 302 301 301 302 303 304 304 303 302 302 301 301
309 309 309 309 308 308 307 307 308 309 310 311 311 311 311 310 310 309 309 309 307 307 306 305 304 304 303 303 302 301 301 301 300 300 300 300 300 300 300 299 300 299 299
309 308 308 308 308 308 308 307 307 307 306 308 310 311 309 308 308 307 307 306 305 304 304 303 303 302 302 303 302 301 300 300 300 299 298 298 298 298 298 297 297 297 297
307 308 308 307 307 307 306 307 307 306 306 307 308 309 309 308 307 306 305 305 304 303 303 302 302 302 300 300 299 299 299 299 299 298 297 296 296 296 295 295 294 294 295
304 305 305 305 305 305 306 306 305 306 306 306 306 307 308 308 306 305 304 304 303 302 302 301 300 300 300 299 299 298 298 297 297 297 297 296 295 294 293 291 290 289 290
301 301 301 302 303 303 304 304 304 305 305 305 306 306 307 307 306 304 303 303 302 301 301 300 300 300 298 299 298 298 297 296 295 296 295 295 294 292 290 289 288 288 289
298 298 298 300 301 301 302 303 303 304 305 305 305 305 305 306 307 305 303 302 301 301 300 299 299 299 299 297 297 297 297 296 294 294 294 293 292 288 289 288 288 288 289
298 298 298 298 299 299 300 301 302 303 304 304 304 304 304 304 305 305 303 301 300 299 297 298 298 297 298 297 297 296 295 296 294 292 293 292 291 287 290 288 287 287 287
297 297 298 299 299 300 300 301 302 302 303 303 303 303 303 303 303 303 301 300 298 297 296 296 296 297 297 296 296 296 295 294 293 293 293 291 290 289 290 289 286 285 285
296 296 297 298 298 299 300 301 301 302 302 303 302 303 303 302 302 301 299 298 297 297 295 295 295 296 296 296 296 296 295 294 291 291 290 289 287 290 290 290 286 286 286
296 296 296 297 298 298 298 298 298 301 302 302 302 303 302 302 300 300 299 299 297 297 296 297 297 297 294 295 295 295 295 293 288 286 286 286 287 289 290 290 289 287 286
293 294 294 296 296 296 296 296 297 299 300 301 301 302 301 300 299 299 299 299 298 299 298 297 297 296 295 295 294 294 294 294 292 288 287 287 287 287 288 289 289 287 287
292 293 295 294 293 294 294 297 299 300 299 301 301 301 300 300 298 298 297 297 297 297 297 298 299 297 297 297 295 295 294 293 293 290 288 288 287 287 287 287 287 286 287

GFSMW_925_thetae_105.txt.gz
Theta_e
325 330 328 331 332 330 331 329 330 331 333 335 337 336 336 336 335 334 333 333 334 336 337 336 336 336 335 333 331 331 331 332 333 332 332 330 330 330 329 327 326 327 327
330 329 325 325 325 328 330 331 331 330 330 333 333 336 337 337 336 335 334 334 334 334 336 337 337 336 335 334 332 331 332 333 333 333 332 330 328 328 325 325 325 325 325
331 327 324 324 324 323 330 329 329 328 328 330 331 333 335 333 336 337 337 335 335 336 335 335 335 335 334 334 333 332 332 334 333 333 330 331 331 326 327 326 325 324 324
329 327 325 325 328 324 329 329 328 328 328 329 329 331 332 332 334 334 333 333 335 335 335 333 332 331 330 332 332 333 333 334 332 330 329 329 329 330 325 325 324 322 322
327 328 327 326 325 325 328 328 326 326 326 327 327 330 330 330 329 330 331 331 331 331 330 330 331 330 329 330 331 331 330 329 327 326 325 319 320 325 326 324 323 322 321
323 324 324 325 327 326 325 326 328 328 326 326 327 329 330 327 330 330 331 332 330 329 329 330 330 329 330 329 330 328 327 327 325 324 320 318 318 320 322 322 320 320 321
320 320 320 319 320 324 327 329 329 329 327 326 326 329 328 325 326 328 328 328 329 329 328 327 328 330 330 330 328 327 327 326 325 324 316 316 316 319 319 319 319 319 319
317 316 316 317 318 318 317 320 326 330 330 330 329 329 330 329 330 330 330 329 331 329 329 329 329 329 328 326 326 326 324 321 318 314 313 314 315 316 318 318 317 319 317
314 314 314 315 315 314 314 315 316 317 322 328 331 332 331 331 332 332 331 331 330 327 326 326 326 325 324 325 323 319 316 314 313 314 313 314 315 315 316 316 316 315 316
312 312 312 313 315 315 315 315 313 315 317 320 324 328 331 330 330 329 329 327 326 324 325 323 323 323 322 320 316 317 316 315 315 313 311 311 311 312 313 314 313 313 313
313 312 312 312 312 314 316 316 315 316 317 320 323 325 326 327 329 328 327 325 324 323 324 324 323 321 318 317 317 314 313 311 310 308 308 309 310 310 311 311 311 311 310
312 312 311 311 311 311 312 314 315 316 317 318 319 321 322 322 323 324 323 322 322 321 321 321 320 318 314 313 310 309 308 308 308 307 307 308 308 307 308 308 308 307 308
312 312 311 311 310 310 310 311 312 314 314 314 315 316 316 318 320 321 319 319 320 320 318 318 316 313 311 310 307 306 306 306 306 306 305 306 306 306 306 306 306 305 305
311 311 311 311 310 310 309 309 309 310 312 313 313 314 314 314 316 317 316 316 317 316 315 315 312 309 308 306 306 306 305 305 305 305 305 306 306 306 306 305 304 304 303
310 310 310 309 309 309 309 309 309 309 308 310 312 313 313 313 313 313 313 313 313 313 312 310 308 306 306 305 305 304 304 304 303 303 303 303 303 304 304 303 302 301 301
309 309 309 309 308 308 308 308 308 308 308 308 308 311 312 312 311 311 311 311 311 309 308 307 305 305 304 305 304 304 304 303 302 302 301 300 300 300 300 300 300 300 299
305 305 305 305 306 306 306 307 307 307 307 308 308 308 310 311 310 310 309 309 308 307 306 305 304 304 304 303 303 303 302 302 302 301 300 298 297 298 297 297 297 297 296
301 301 301 301 301 301 302 303 304 305 306 307 307 308 308 309 310 309 309 308 307 306 305 305 304 303 303 303 301 301 301 301 300 299 298 297 296 296 296 295 293 292 292
300 300 300 300 300 300 301 301 301 302 303 304 306 307 307 308 309 309 308 307 306 305 305 304 303 303 302 301 300 300 300 299 298 297 297 296 295 296 294 291 290 290 290
300 300 300 300 300 300 301 301 301 301 302 303 304 305 306 307 307 308 308 306 306 305 304 303 302 302 301 300 299 298 298 298 297 295 295 295 294 294 292 290 289 289 290
299 298 297 297 298 298 298 299 300 301 301 302 303 303 305 305 306 307 308 306 304 304 302 301 301 301 301 299 298 298 298 298 296 293 292 294 293 292 291 288 289 289 289
298 298 297 297 297 297 298 299 299 299 300 300 301 302 304 305 305 305 306 306 303 302 301 300 300 299 300 299 298 298 297 297 296 294 293 294 293 291 290 290 288 287 288
297 296 295 295 295 295 296 297 296 297 297 298 299 301 302 304 304 305 305 305 302 302 300 299 299 299 299 298 298 297 296 296 295 294 294 293 292 291 290 291 288 286 287
295 294 294 294 294 295 294 294 295 295 296 296 298 299 301 302 304 304 303 303 301 300 299 298 298 298 298 297 297 297 297 295 294 292 292 291 289 290 290 291 288 287 287
294 293 293 293 292 292 292 293 293 292 294 297 298 299 301 302 303 303 302 301 301 300 300 299 299 298 297 297 296 297 297 295 294 288 287 288 288 290 291 290 289 287 287
293 292 292 291 291 291 291 291 291 290 291 295 299 300 301 302 302 301 300 301 301 301 300 300 300 299 297 296 296 296 296 295 293 287 287 288 288 288 289 289 289 289 287

GFSMW_925_thetae_108.txt.gz
Theta_e
322 325 330 329 330 330 330 330 330 326 326 330 332 332 332 333 334 336 338 338 337 337 335 336 336 335 334 333 332 332 331 330 330 332 330 330 329 331 329 328 326 326 325
322 326 325 326 325 327 330 330 330 325 326 328 331 332 334 334 333 332 333 334 337 337 337 335 336 336 335 334 333 331 331 331 331 333 331 328 329 328 327 325 325 325 325
326 326 324 323 324 324 326 330 329 328 328 328 330 331 333 336 335 335 334 333 333 333 336 336 336 336 335 335 334 333 332 332 333 332 331 327 325 325 325 325 325 324 324
326 324 324 323 326 324 325 329 329 329 328 329 329 330 330 331 333 333 332 333 334 334 335 335 335 334 332 332 331 331 331 331 332 330 329 328 329 325 323 325 325 323 323
326 325 324 324 325 325 325 328 328 328 328 327 328 328 327 329 329 329 330 330 331 331 331 331 330 331 330 329 327 328 326 328 330 330 327 326 326 322 325 324 322 323 321
327 326 325 324 324 324 324 323 323 325 326 326 326 325 327 327 327 327 329 330 330 331 330 330 329 329 330 328 327 328 328 326 329 329 328 326 321 319 319 319 320 320 321
323 324 324 324 326 326 324 324 323 324 325 326 324 325 326 326 327 325 327 328 329 328 328 329 329 329 329 329 329 328 329 328 329 327 326 324 321 318 319 319 318 318 319
319 319 318 318 318 321 326 325 326 325 325 326 324 325 326 326 327 327 326 327 328 326 325 328 328 328 328 328 328 328 328 328 327 325 324 321 316 314 316 317 317 316 316
315 313 313 314 314 314 314 317 321 325 327 327 326 325 326 326 328 326 328 329 329 328 328 326 326 327 328 326 328 327 324 326 324 322 318 314 313 314 315 316 317 316 314
311 310 310 313 315 315 315 315 314 314 315 318 324 327 330 330 330 330 330 330 330 330 329 328 327 325 327 328 325 323 323 320 318 314 313 313 314 315 315 315 315 315 314
310 310 310 311 312 313 315 315 315 316 317 318 321 323 325 327 330 330 329 329 330 329 327 325 324 325 325 324 322 321 318 316 314 314 314 313 312 312 312 313 313 313 312
309 308 308 309 309 310 311 313 314 315 315 317 318 320 321 322 323 325 326 325 325 324 322 322 322 323 322 322 319 317 316 316 314 312 309 309 310 310 310 310 310 311 310
309 308 307 307 308 309 309 309 310 311 313 313 314 315 316 317 319 320 322 321 321 321 321 320 320 318 318 318 317 317 315 312 310 309 308 308 308 307 307 308 308 307 307
308 307 306 306 308 308 308 308 308 309 308 309 312 313 314 314 315 317 319 318 318 318 318 319 318 317 317 316 314 312 311 308 307 307 307 306 306 306 306 306 306 305 304
306 305 305 304 307 307 307 307 307 307 308 308 308 309 311 312 313 313 315 315 316 318 317 316 316 314 314 312 309 309 307 306 306 305 305 305 306 306 306 306 305 303 303
303 302 301 301 301 302 302 302 304 305 305 306 307 308 308 310 312 312 312 312 314 315 315 313 313 312 310 309 306 306 306 306 305 304 304 304 305 305 304 304 303 302 301
299 299 298 298 299 299 299 300 301 301 302 303 305 306 307 308 309 311 311 310 311 312 312 313 311 310 308 307 306 305 305 305 304 303 302 302 301 301 301 300 300 300 300
298 298 298 299 299 300 300 300 300 300 300 300 301 302 304 306 307 308 310 310 309 309 309 309 308 307 307 306 304 303 304 303 303 302 301 301 300 299 298 298 297 297 295
299 299 299 299 299 299 299 299 299 299 299 300 301 301 302 303 305 307 307 309 309 308 307 307 306 305 305 304 304 302 303 302 302 301 300 299 298 298 297 296 294 291 291
299 298 298 298 297 297 297 297 297 298 298 299 300 300 301 302 302 303 305 307 309 308 307 306 305 305 304 304 302 301 301 301 300 299 298 298 297 297 296 294 292 289 290
298 298 297 297 296 296 295 296 297 297 298 298 298 298 298 298 300 302 303 305 307 307 306 305 305 304 303 303 301 300 300 300 299 298 297 296 296 295 295 293 290 289 290
297 296 295 294 294 294 294 295 295 295 295 295 295 296 297 297 298 300 302 304 305 305 304 303 302 302 302 302 300 300 299 299 299 297 296 296 294 294 294 291 289 289 289
296 295 294 293 293 293 293 292 293 292 293 293 293 294 296 297 298 299 301 302 304 305 304 302 301 300 300 300 301 300 299 299 298 298 297 295 295 293 292 291 289 289 288
294 294 293 293 292 292 291 291 291 290 291 291 291 292 296 297 298 299 301 302 303 304 303 302 301 300 299 299 300 300 299 297 297 296 294 294 294 292 291 292 289 287 287
293 293 292 292 292 291 290 290 290 289 289 289 289 291 294 298 299 300 301 302 303 303 303 301 301 300 299 299 299 299 298 296 295 294 293 292 292 291 290 291 289 287 286
293 292 292 291 291 290 290 290 289 289 288 288 290 290 292 294 296 300 301 302 303 303 303 302 300 299 300 299 298 298 298 296 295 291 290 289 289 290 290 290 289 287 287

GFSMW_925_thetae_111.txt.gz
Theta_e
318 321 324 328 329 329 329 329 329 328 331 333 334 332 331 330 328 328 328 330 331 330 332 331 333 333 332 331 331 331 330 330 330 330 330 331 330 329 330 329 328 327 325
319 325 325 325 326 328 329 330 329 327 328 331 332 331 332 334 334 334 333 332 336 335 334 334 334 335 333 333 332 332 331 331 330 330 330 329 328 329 328 328 327 325 325
318 324 324 324 324 325 326 326 329 325 324 326 328 327 331 331 332 333 335 335 336 337 337 334 336 336 334 333 333 332 331 331 331 331 330 327 325 324 324 325 324 325 324
322 324 323 323 324 324 325 325 327 324 324 325 328 328 328 329 328 331 332 333 334 336 336 336 336 336 335 335 334 333 332 332 331 331 331 330 328 323 325 325 325 323 323
322 323 322 325 324 324 324 325 328 326 326 326 327 328 329 328 328 329 330 331 332 333 333 334 332 331 331 330 330 330 330 330 330 329 328 328 329 326 323 323 322 323 322
324 323 324 323 324 323 323 326 328 328 328 327 327 327 326 325 326 327 327 328 330 330 331 330 330 329 330 329 328 327 327 326 326 328 329 328 324 319 320 318 318 321 321
325 324 323 324 324 323 323 323 325 327 328 327 327 326 325 324 325 325 326 326 326 329 330 330 329 329 328 328 327 327 327 328 328 328 328 328 327 325 320 320 319 317 318
318 316 317 319 318 322 323 324 325 324 325 325 325 325 325 325 324 324 324 325 324 325 326 326 328 327 329 329 329 328 328 328 327 327 328 327 326 324 321 319 318 316 316
313 313 313 313 314 313 316 320 323 325 325 325 326 324 324 325 325 325 324 325 325 325 326 327 326 326 326 327 328 328 328 327 326 326 327 325 325 322 317 316 317 316 315
312 311 311 312 314 314 315 314 313 314 316 318 323 326 325 324 325 326 326 327 325 325 327 327 328 327 326 325 325 327 326 325 326 326 325 324 321 316 315 316 316 316 314
309 309 308 309 310 312 313 314 315 316 317 318 320 322 324 325 328 328 328 328 327 327 328 328 326 325 324 325 324 323 323 324 325 323 321 319 314 314 315 315 315 315 315
308 307 306 306 307 308 308 309 309 311 312 313 315 316 318 320 323 324 326 326 326 326 326 326 325 325 324 323 321 320 320 323 322 319 315 314 314 314 313 313 312 313 313
306 305 304 304 305 306 306 307 307 308 308 308 309 311 313 314 315 317 320 323 323 323 323 323 322 322 322 321 320 321 323 321 318 316 315 315 313 311 310 310 310 310 310
304 303 302 302 302 302 302 302 303 304 305 306 307 307 308 310 312 313 315 318 319 319 320 320 320 320 320 319 319 318 318 316 316 315 314 311 309 309 309 308 308 308 307
301 300 299 298 298 299 299 299 300 301 301 302 303 305 306 307 308 310 312 313 315 315 317 318 318 318 318 319 318 317 315 314 312 310 309 308 307 307 307 307 306 306 305
298 297 297 296 297 298 299 299 299 300 300 300 300 300 302 304 305 306 308 311 311 312 314 315 316 317 316 317 316 317 313 311 309 307 306 306 305 306 306 306 306 305 304
297 297 296 297 298 298 298 298 298 299 299 299 300 300 301 301 302 303 306 307 309 310 311 313 313 314 315 314 315 313 310 308 305 305 305 305 305 305 305 305 304 304 303
297 297 296 297 297 297 297 296 297 297 297 297 298 299 300 300 300 301 302 303 306 308 309 310 311 312 311 312 312 311 308 307 306 305 305 304 303 303 303 303 302 301 301
297 297 297 297 297 297 296 296 295 296 296 296 297 297 297 298 299 300 301 301 302 302 306 309 309 309 310 309 307 307 305 305 304 304 303 304 303 302 300 300 299 298 297
298 298 297 297 297 296 295 295 294 295 295 296 296 295 295 295 296 296 297 298 299 301 302 305 307 308 307 308 307 305 303 302 302 302 302 302 302 300 299 299 298 295 293
297 297 297 295 295 294 294 294 294 294 295 294 294 294 294 294 294 295 297 297 298 300 301 303 305 306 306 306 306 304 302 301 300 301 300 300 300 298 298 298 297 296 292
296 296 294 293 293 293 293 293 292 292 292 291 293 293 292 292 293 294 296 297 297 298 301 303 303 303 304 304 304 304 303 301 300 299 299 299 298 297 297 295 295 293 290
295 294 293 293 292 292 291 291 290 290 290 290 290 290 290 290 291 294 296 297 298 299 301 302 303 303 302 302 303 303 302 301 300 299 300 299 297 296 296 294 293 290 289
293 293 292 291 291 291 290 290 290 289 289 289 288 288 289 290 291 292 295 298 298 299 301 302 303 303 301 301 301 302 301 299 298 297 298 298 295 294 295 294 291 290 289
292 292 291 291 291 290 290 290 289 289 289 288 287 287 288 289 290 291 292 294 296 300 300 301 302 302 301 300 300 301 301 299 298 296 296 294 293 292 292 292 290 289 290
293 292 291 291 290 290 289 289 288 288 287 287 287 287 287 288 289 290 290 292 293 295 301 302 302 302 302 302 300 300 301 300 296 295 293 293 293 291 290 290 289 288 287

GFSMW_925_thetae_114.txt.gz
Theta_e
306 313 322 324 325 325 328 328 328 328 328 328 330 329 330 328 332 332 334 330 331 331 333 332 330 329 329 330 331 330 329 330 330 329 328 330 330 330 330 329 328 327 327
312 318 324 324 324 328 329 329 329 329 328 328 331 331 330 329 330 330 329 330 332 332 330 329 329 328 330 331 330 329 330 330 330 329 330 328 329 328 328 328 327 326 325
313 321 323 323 324 325 327 329 329 329 327 329 332 332 330 330 330 330 329 329 329 329 329 328 328 330 331 332 331 330 330 330 330 329 330 327 327 324 324 325 325 325 324
314 321 321 323 324 324 324 325 325 326 325 327 326 331 330 330 330 330 330 329 329 329 331 332 332 333 333 333 332 331 331 331 330 330 331 330 326 323 325 324 323 324 324
318 320 322 323 323 324 324 325 326 325 325 325 324 324 325 326 328 329 330 330 331 335 335 335 334 333 336 335 332 332 330 330 330 330 328 327 328 327 323 323 322 321 323
318 320 322 323 323 322 322 324 326 325 324 325 326 324 323 326 327 326 327 327 328 329 330 331 331 330 331 331 330 329 328 328 328 327 328 328 327 324 323 319 318 321 321
320 323 322 322 322 323 323 325 325 326 324 325 326 325 325 325 325 326 326 326 326 326 327 328 328 329 329 329 328 327 327 327 327 326 327 329 328 327 325 320 319 317 318
316 316 315 314 315 319 320 324 324 326 326 326 326 326 326 325 325 324 324 324 324 324 324 324 327 328 329 328 328 328 328 327 327 327 327 327 328 327 326 323 319 317 317
314 314 314 313 313 313 313 316 322 324 324 324 325 325 325 325 324 323 323 324 323 323 323 324 324 325 326 327 325 327 328 328 327 327 327 326 326 327 323 323 322 320 317
311 311 310 310 311 312 313 314 314 315 317 319 319 325 324 323 323 324 325 325 325 325 324 325 324 324 325 325 325 325 327 327 327 326 327 325 326 326 324 321 319 319 316
309 308 306 305 306 306 307 308 309 310 311 314 316 318 321 323 325 326 326 326 326 326 326 326 324 325 326 326 326 325 325 324 324 324 326 323 324 323 322 318 316 316 315
305 304 304 303 303 302 303 303 303 304 305 306 308 311 314 315 316 318 320 322 327 327 326 326 326 325 325 326 325 324 323 323 322 322 322 321 322 320 317 315 315 315 315
301 300 299 299 299 298 299 299 300 300 301 302 304 305 306 307 308 311 312 315 320 323 323 323 323 323 323 323 323 322 322 321 320 320 320 320 318 315 314 314 314 314 313
298 298 297 296 297 298 298 299 299 300 300 300 300 300 301 302 304 305 307 309 311 315 318 319 320 319 320 320 319 319 319 319 319 319 319 317 317 314 313 313 312 311 311
297 296 296 295 296 297 298 298 299 299 299 299 300 300 300 300 300 301 303 304 306 309 311 313 314 316 316 317 318 318 317 316 316 317 316 315 314 314 314 312 310 309 308
296 296 296 296 296 296 297 296 297 297 297 297 297 298 298 299 299 300 300 301 302 304 306 309 311 312 313 315 316 317 316 315 315 316 316 315 313 311 309 309 309 308 307
297 296 296 296 296 296 296 296 296 296 296 296 297 297 298 297 297 297 297 299 299 300 301 303 305 309 311 312 313 314 313 313 313 313 314 310 308 307 307 307 306 306 306
297 296 295 295 295 295 295 294 294 294 295 295 295 296 295 295 295 296 296 297 297 298 299 300 301 302 306 309 311 312 310 310 310 310 310 309 307 306 306 306 306 305 304
295 295 295 295 295 293 293 293 293 293 294 294 294 293 293 293 293 294 294 294 295 297 297 298 299 301 302 304 308 310 308 307 307 306 307 305 306 306 306 305 305 303 303
296 296 296 295 295 294 293 293 293 293 292 292 292 292 292 292 292 292 292 293 294 296 296 297 298 299 300 302 304 306 307 305 304 304 304 304 304 305 304 303 302 300 300
296 297 296 294 294 293 293 292 292 292 291 291 291 291 291 291 290 290 291 291 293 295 297 297 298 298 300 301 303 304 305 304 303 303 302 303 302 303 302 301 300 299 299
296 296 295 294 293 292 292 292 291 291 290 290 290 290 290 290 289 289 290 290 292 295 296 297 298 299 300 301 302 303 304 304 303 302 303 302 302 302 300 299 299 299 297
294 294 294 293 292 292 291 291 290 290 289 289 289 289 289 288 288 289 290 290 291 293 296 298 299 300 301 301 302 302 303 304 302 302 302 301 301 301 299 298 297 294 293
293 293 292 292 291 291 290 290 289 289 288 288 288 288 287 288 288 288 288 289 290 291 292 294 298 299 301 302 302 301 302 303 302 300 300 299 299 300 298 297 296 292 291
292 292 291 290 291 290 290 290 289 288 287 287 287 287 287 287 287 287 288 289 289 290 291 292 294 296 300 301 302 300 302 302 301 299 297 296 297 296 296 295 293 292 290
292 291 291 290 290 290 289 289 288 287 287 286 286 286 286 286 287 287 287 289 289 290 291 291 292 294 297 300 301 301 301 302 301 296 295 295 295 294 294 294 290 290 289

GFSMW_925_thetae_117.txt.gz
Theta_e
303 305 306 307 315 323 323 322 324 325 327 327 327 327 328 327 327 327 327 333 331 331 331 331 331 331 331 330 329 328 328 327 328 329 328 328 328 329 330 330 329 329 328
304 305 308 318 322 321 320 325 326 327 327 328 328 328 329 330 328 328 329 333 332 331 331 331 331 331 331 330 328 328 328 328 328 328 328 327 328 329 329 329 327 327 327
307 308 317 322 322 321 322 323 326 328 328 328 328 327 328 329 328 329 331 330 331 332 329 331 331 331 329 328 329 328 329 329 329 328 329 325 327 324 326 326 326 326 326
307 310 317 320 321 322 323 324 325 328 328 328 327 326 331 329 329 329 329 330 330 330 331 330 331 332 330 329 328 330 330 329 329 328 329 328 325 323 324 323 323 324 325
308 313 317 320 323 323 323 323 323 325 325 325 325 325 329 330 330 330 330 330 330 331 330 330 331 329 329 328 329 331 330 329 329 329 329 328 327 326 321 321 321 322 324
312 316 318 321 321 321 322 322 322 324 325 324 325 324 326 327 328 329 329 329 329 329 329 329 328 328 328 331 332 332 331 330 329 330 329 329 327 326 324 318 318 320 321
317 316 316 316 315 316 315 316 324 323 325 326 324 323 323 326 326 326 326 326 326 327 327 327 326 327 328 329 331 331 329 328 327 327 327 327 327 327 327 323 318 318 318
317 316 315 314 313 313 312 313 325 325 324 326 325 324 324 324 324 325 325 324 325 325 325 324 324 326 327 328 328 328 328 327 325 326 326 326 326 327 327 326 321 317 317
313 312 309 309 309 310 310 312 314 317 320 321 323 324 325 325 324 323 324 324 324 325 324 324 323 323 324 326 326 328 327 327 327 327 327 326 326 326 327 326 326 323 319
308 307 305 304 304 303 303 304 305 306 309 314 318 322 325 325 323 323 323 323 323 324 324 324 323 323 323 323 324 324 325 325 325 325 326 325 325 326 327 326 323 323 320
305 303 301 300 299 299 300 300 301 302 303 305 306 308 310 314 317 320 322 324 325 326 325 325 325 325 324 324 324 324 325 325 325 325 325 325 325 324 324 325 321 319 319
300 299 298 297 297 298 298 298 299 299 300 300 302 303 305 306 308 309 311 312 316 320 323 326 326 326 325 325 324 324 325 325 325 325 325 324 323 322 321 323 319 318 318
297 296 296 296 296 297 297 298 298 298 299 299 299 300 300 300 301 302 304 306 307 310 314 318 320 320 321 322 324 325 325 324 324 323 323 322 321 320 318 317 316 316 315
296 296 295 295 295 296 296 296 297 297 297 297 297 298 298 299 299 299 300 300 302 304 306 308 310 314 314 317 318 319 320 321 321 321 320 320 319 318 317 316 315 314 313
296 295 295 294 295 295 296 296 296 296 296 296 296 296 297 297 297 296 297 297 298 299 300 301 303 306 309 312 313 315 316 316 317 317 317 318 318 318 317 316 314 313 312
296 296 295 294 294 294 295 295 295 295 295 295 295 296 296 295 295 295 295 296 296 297 297 298 299 300 302 306 309 311 314 314 315 314 315 315 315 315 316 318 315 314 311
297 296 294 294 295 295 294 293 294 294 294 294 294 294 293 293 293 293 294 294 294 295 295 296 297 298 298 300 302 307 310 312 312 312 312 312 313 312 313 312 313 312 311
296 295 294 294 295 293 292 292 292 293 293 292 292 292 291 292 292 292 292 293 293 293 293 294 295 296 297 298 299 301 305 308 310 310 310 310 310 311 312 309 308 308 308
295 295 295 294 293 292 292 292 292 291 291 291 290 290 290 291 291 291 290 291 291 292 292 293 294 296 297 297 298 299 302 305 307 308 309 308 308 308 306 306 307 306 305
295 294 294 293 291 291 291 291 290 290 290 290 290 290 290 289 290 289 289 289 289 290 291 292 294 295 296 297 297 298 301 303 305 306 307 307 307 307 306 305 306 303 304
294 294 293 292 292 292 291 291 290 290 290 290 289 289 289 288 289 288 288 288 289 289 290 291 293 295 296 297 298 298 300 302 304 304 303 305 305 306 305 305 305 303 304
294 294 293 292 292 292 291 291 291 290 290 290 289 288 288 288 288 288 288 288 288 289 289 290 291 293 297 297 298 299 300 301 303 303 303 304 304 304 304 304 304 303 302
293 293 292 292 292 292 291 290 290 290 289 289 288 288 288 287 287 287 287 287 287 288 289 289 290 291 292 294 298 299 300 301 302 303 303 304 304 302 303 302 303 301 300
292 292 292 292 291 291 291 290 289 289 288 287 287 287 286 287 286 286 286 287 287 288 289 289 290 290 291 292 293 298 300 301 302 302 303 302 302 300 300 298 298 299 298
292 292 292 291 291 290 290 289 289 288 287 287 286 286 286 286 286 286 287 287 287 288 289 290 290 291 291 292 292 294 296 300 300 302 301 299 299 299 298 296 295 296 293
292 292 291 291 290 289 289 289 288 287 286 286 286 286 286 286 286 286 286 286 287 288 288 289 290 291 291 292 293 293 295 298 301 300 298 297 298 298 296 294 292 292 291